<?xml version="1.0" encoding="UTF-8" standalone="no" ?>
<gpx xmlns="http://www.topografix.com/GPX/1/1" xmlns:xsi="http://www.w3.org/2001/XMLSchema-instance" xsi:schemaLocation="http://www.topografix.com/GPX/1/1 http://www.topografix.com/GPX/1/1/gpx.xsd" version="1.1" creator="VisuGPX - https://www.visugpx.com">
  <metadata>
    <name>170104HR3ROBJeunes</name>
    <desc><![CDATA[Bonne sortie de reprise pour cette annee]]></desc>
  </metadata>
  <trk>
    <name><![CDATA[170104HR3ROBJeunes]]></name>
    <trkseg>
      <trkpt lat="43.41582" lon="6.07001">
        <ele>202</ele>
        <time>2017-01-04T13:09:59Z</time>
      </trkpt>
      <trkpt lat="43.41581" lon="6.07011">
        <ele>202</ele>
        <time>2017-01-04T13:10:11Z</time>
      </trkpt>
      <trkpt lat="43.4158" lon="6.07031">
        <ele>201.60000610352</ele>
        <time>2017-01-04T13:10:21Z</time>
      </trkpt>
      <trkpt lat="43.41579" lon="6.07037">
        <ele>201.80000305176</ele>
        <time>2017-01-04T13:10:31Z</time>
      </trkpt>
      <trkpt lat="43.41579" lon="6.07038">
        <ele>202.60000610352</ele>
        <time>2017-01-04T13:10:41Z</time>
      </trkpt>
      <trkpt lat="43.41579" lon="6.07039">
        <ele>202.60000610352</ele>
        <time>2017-01-04T13:10:46Z</time>
      </trkpt>
      <trkpt lat="43.41579" lon="6.07037">
        <ele>202.39999389648</ele>
        <time>2017-01-04T13:10:51Z</time>
      </trkpt>
      <trkpt lat="43.41579" lon="6.07037">
        <ele>202.19999694824</ele>
        <time>2017-01-04T13:10:54Z</time>
      </trkpt>
      <trkpt lat="43.41579" lon="6.07037">
        <ele>202.19999694824</ele>
        <time>2017-01-04T13:11:01Z</time>
      </trkpt>
      <trkpt lat="43.41579" lon="6.07038">
        <ele>201.80000305176</ele>
        <time>2017-01-04T13:11:11Z</time>
      </trkpt>
      <trkpt lat="43.41579" lon="6.07038">
        <ele>202.19999694824</ele>
        <time>2017-01-04T13:11:21Z</time>
      </trkpt>
      <trkpt lat="43.41579" lon="6.07039">
        <ele>202.39999389648</ele>
        <time>2017-01-04T13:11:30Z</time>
      </trkpt>
      <trkpt lat="43.41579" lon="6.07039">
        <ele>202.39999389648</ele>
        <time>2017-01-04T13:11:31Z</time>
      </trkpt>
      <trkpt lat="43.41579" lon="6.07039">
        <ele>202.60000610352</ele>
        <time>2017-01-04T13:11:38Z</time>
      </trkpt>
      <trkpt lat="43.41579" lon="6.0704">
        <ele>202.39999389648</ele>
        <time>2017-01-04T13:11:51Z</time>
      </trkpt>
      <trkpt lat="43.4158" lon="6.07042">
        <ele>202.39999389648</ele>
        <time>2017-01-04T13:12:01Z</time>
      </trkpt>
      <trkpt lat="43.4158" lon="6.07042">
        <ele>202.19999694824</ele>
        <time>2017-01-04T13:12:11Z</time>
      </trkpt>
      <trkpt lat="43.4158" lon="6.07042">
        <ele>202.19999694824</ele>
        <time>2017-01-04T13:12:21Z</time>
      </trkpt>
      <trkpt lat="43.4158" lon="6.07042">
        <ele>202.19999694824</ele>
        <time>2017-01-04T13:12:41Z</time>
      </trkpt>
      <trkpt lat="43.4158" lon="6.07042">
        <ele>202.19999694824</ele>
        <time>2017-01-04T13:12:51Z</time>
      </trkpt>
      <trkpt lat="43.4158" lon="6.07043">
        <ele>202.19999694824</ele>
        <time>2017-01-04T13:13:01Z</time>
      </trkpt>
      <trkpt lat="43.4158" lon="6.07044">
        <ele>202.19999694824</ele>
        <time>2017-01-04T13:13:04Z</time>
      </trkpt>
      <trkpt lat="43.41581" lon="6.07046">
        <ele>202.19999694824</ele>
        <time>2017-01-04T13:13:05Z</time>
      </trkpt>
      <trkpt lat="43.41581" lon="6.07052">
        <ele>202</ele>
        <time>2017-01-04T13:13:07Z</time>
      </trkpt>
      <trkpt lat="43.41583" lon="6.07067">
        <ele>202</ele>
        <time>2017-01-04T13:13:11Z</time>
      </trkpt>
      <trkpt lat="43.41585" lon="6.0709">
        <ele>201.80000305176</ele>
        <time>2017-01-04T13:13:16Z</time>
      </trkpt>
      <trkpt lat="43.41585" lon="6.07093">
        <ele>201.80000305176</ele>
        <time>2017-01-04T13:13:17Z</time>
      </trkpt>
      <trkpt lat="43.41579" lon="6.07104">
        <ele>201.80000305176</ele>
        <time>2017-01-04T13:13:21Z</time>
      </trkpt>
      <trkpt lat="43.41558" lon="6.07115">
        <ele>202</ele>
        <time>2017-01-04T13:13:28Z</time>
      </trkpt>
      <trkpt lat="43.4155" lon="6.07114">
        <ele>201.80000305176</ele>
        <time>2017-01-04T13:13:31Z</time>
      </trkpt>
      <trkpt lat="43.41545" lon="6.07078">
        <ele>201.39999389648</ele>
        <time>2017-01-04T13:13:41Z</time>
      </trkpt>
      <trkpt lat="43.41517" lon="6.07078">
        <ele>200.80000305176</ele>
        <time>2017-01-04T13:13:49Z</time>
      </trkpt>
      <trkpt lat="43.41509" lon="6.07079">
        <ele>200.39999389648</ele>
        <time>2017-01-04T13:13:51Z</time>
      </trkpt>
      <trkpt lat="43.41488" lon="6.07075">
        <ele>199.80000305176</ele>
        <time>2017-01-04T13:13:57Z</time>
      </trkpt>
      <trkpt lat="43.41476" lon="6.07071">
        <ele>199.60000610352</ele>
        <time>2017-01-04T13:14:01Z</time>
      </trkpt>
      <trkpt lat="43.41472" lon="6.07069">
        <ele>200.80000305176</ele>
        <time>2017-01-04T13:14:11Z</time>
      </trkpt>
      <trkpt lat="43.41471" lon="6.07068">
        <ele>200.80000305176</ele>
        <time>2017-01-04T13:14:12Z</time>
      </trkpt>
      <trkpt lat="43.4147" lon="6.07063">
        <ele>200.60000610352</ele>
        <time>2017-01-04T13:14:14Z</time>
      </trkpt>
      <trkpt lat="43.41475" lon="6.07047">
        <ele>199.80000305176</ele>
        <time>2017-01-04T13:14:18Z</time>
      </trkpt>
      <trkpt lat="43.41479" lon="6.07037">
        <ele>199.19999694824</ele>
        <time>2017-01-04T13:14:20Z</time>
      </trkpt>
      <trkpt lat="43.41481" lon="6.07032">
        <ele>199.19999694824</ele>
        <time>2017-01-04T13:14:21Z</time>
      </trkpt>
      <trkpt lat="43.41488" lon="6.07016">
        <ele>199</ele>
        <time>2017-01-04T13:14:24Z</time>
      </trkpt>
      <trkpt lat="43.41494" lon="6.0698">
        <ele>199.80000305176</ele>
        <time>2017-01-04T13:14:31Z</time>
      </trkpt>
      <trkpt lat="43.41492" lon="6.06971">
        <ele>199.80000305176</ele>
        <time>2017-01-04T13:14:33Z</time>
      </trkpt>
      <trkpt lat="43.41476" lon="6.06941">
        <ele>200.80000305176</ele>
        <time>2017-01-04T13:14:41Z</time>
      </trkpt>
      <trkpt lat="43.41467" lon="6.06924">
        <ele>201.19999694824</ele>
        <time>2017-01-04T13:14:46Z</time>
      </trkpt>
      <trkpt lat="43.41473" lon="6.0691">
        <ele>201.60000610352</ele>
        <time>2017-01-04T13:14:51Z</time>
      </trkpt>
      <trkpt lat="43.41476" lon="6.06901">
        <ele>201.80000305176</ele>
        <time>2017-01-04T13:14:55Z</time>
      </trkpt>
      <trkpt lat="43.41476" lon="6.069">
        <ele>202.39999389648</ele>
        <time>2017-01-04T13:15:01Z</time>
      </trkpt>
      <trkpt lat="43.41476" lon="6.06899">
        <ele>202.60000610352</ele>
        <time>2017-01-04T13:15:03Z</time>
      </trkpt>
      <trkpt lat="43.41476" lon="6.06886">
        <ele>202.19999694824</ele>
        <time>2017-01-04T13:15:07Z</time>
      </trkpt>
      <trkpt lat="43.41477" lon="6.0687">
        <ele>202</ele>
        <time>2017-01-04T13:15:10Z</time>
      </trkpt>
      <trkpt lat="43.41476" lon="6.06864">
        <ele>201.80000305176</ele>
        <time>2017-01-04T13:15:11Z</time>
      </trkpt>
      <trkpt lat="43.41482" lon="6.0682">
        <ele>201.80000305176</ele>
        <time>2017-01-04T13:15:21Z</time>
      </trkpt>
      <trkpt lat="43.41492" lon="6.06786">
        <ele>201.39999389648</ele>
        <time>2017-01-04T13:15:27Z</time>
      </trkpt>
      <trkpt lat="43.41495" lon="6.06762">
        <ele>201.60000610352</ele>
        <time>2017-01-04T13:15:31Z</time>
      </trkpt>
      <trkpt lat="43.41496" lon="6.0675">
        <ele>201.60000610352</ele>
        <time>2017-01-04T13:15:33Z</time>
      </trkpt>
      <trkpt lat="43.41498" lon="6.06733">
        <ele>202.19999694824</ele>
        <time>2017-01-04T13:15:36Z</time>
      </trkpt>
      <trkpt lat="43.41498" lon="6.06705">
        <ele>203.39999389648</ele>
        <time>2017-01-04T13:15:41Z</time>
      </trkpt>
      <trkpt lat="43.415" lon="6.06668">
        <ele>204.19999694824</ele>
        <time>2017-01-04T13:15:48Z</time>
      </trkpt>
      <trkpt lat="43.41502" lon="6.06653">
        <ele>204.39999389648</ele>
        <time>2017-01-04T13:15:51Z</time>
      </trkpt>
      <trkpt lat="43.41512" lon="6.066">
        <ele>204.60000610352</ele>
        <time>2017-01-04T13:16:01Z</time>
      </trkpt>
      <trkpt lat="43.41521" lon="6.0654">
        <ele>205</ele>
        <time>2017-01-04T13:16:11Z</time>
      </trkpt>
      <trkpt lat="43.4153" lon="6.06502">
        <ele>204.80000305176</ele>
        <time>2017-01-04T13:16:18Z</time>
      </trkpt>
      <trkpt lat="43.41534" lon="6.06493">
        <ele>205.19999694824</ele>
        <time>2017-01-04T13:16:20Z</time>
      </trkpt>
      <trkpt lat="43.41537" lon="6.06489">
        <ele>205.39999389648</ele>
        <time>2017-01-04T13:16:21Z</time>
      </trkpt>
      <trkpt lat="43.41545" lon="6.06475">
        <ele>206.39999389648</ele>
        <time>2017-01-04T13:16:25Z</time>
      </trkpt>
      <trkpt lat="43.41547" lon="6.06453">
        <ele>207</ele>
        <time>2017-01-04T13:16:31Z</time>
      </trkpt>
      <trkpt lat="43.41552" lon="6.06406">
        <ele>207.60000610352</ele>
        <time>2017-01-04T13:16:41Z</time>
      </trkpt>
      <trkpt lat="43.41555" lon="6.06392">
        <ele>209</ele>
        <time>2017-01-04T13:16:44Z</time>
      </trkpt>
      <trkpt lat="43.41557" lon="6.06378">
        <ele>209.60000610352</ele>
        <time>2017-01-04T13:16:47Z</time>
      </trkpt>
      <trkpt lat="43.41559" lon="6.06369">
        <ele>210.19999694824</ele>
        <time>2017-01-04T13:16:49Z</time>
      </trkpt>
      <trkpt lat="43.41561" lon="6.0636">
        <ele>210.80000305176</ele>
        <time>2017-01-04T13:16:51Z</time>
      </trkpt>
      <trkpt lat="43.41565" lon="6.06347">
        <ele>211.19999694824</ele>
        <time>2017-01-04T13:16:54Z</time>
      </trkpt>
      <trkpt lat="43.41576" lon="6.0633">
        <ele>212.19999694824</ele>
        <time>2017-01-04T13:16:59Z</time>
      </trkpt>
      <trkpt lat="43.4158" lon="6.06323">
        <ele>212.80000305176</ele>
        <time>2017-01-04T13:17:01Z</time>
      </trkpt>
      <trkpt lat="43.41586" lon="6.06314">
        <ele>213.60000610352</ele>
        <time>2017-01-04T13:17:04Z</time>
      </trkpt>
      <trkpt lat="43.41589" lon="6.06288">
        <ele>214.39999389648</ele>
        <time>2017-01-04T13:17:11Z</time>
      </trkpt>
      <trkpt lat="43.41587" lon="6.0628">
        <ele>214.60000610352</ele>
        <time>2017-01-04T13:17:13Z</time>
      </trkpt>
      <trkpt lat="43.41587" lon="6.06269">
        <ele>214.80000305176</ele>
        <time>2017-01-04T13:17:16Z</time>
      </trkpt>
      <trkpt lat="43.41595" lon="6.06257">
        <ele>215.19999694824</ele>
        <time>2017-01-04T13:17:21Z</time>
      </trkpt>
      <trkpt lat="43.41599" lon="6.06253">
        <ele>215.80000305176</ele>
        <time>2017-01-04T13:17:24Z</time>
      </trkpt>
      <trkpt lat="43.416" lon="6.06252">
        <ele>216.80000305176</ele>
        <time>2017-01-04T13:17:29Z</time>
      </trkpt>
      <trkpt lat="43.416" lon="6.06252">
        <ele>217</ele>
        <time>2017-01-04T13:17:30Z</time>
      </trkpt>
      <trkpt lat="43.416" lon="6.06252">
        <ele>217</ele>
        <time>2017-01-04T13:17:31Z</time>
      </trkpt>
      <trkpt lat="43.41604" lon="6.06246">
        <ele>217.39999389648</ele>
        <time>2017-01-04T13:17:35Z</time>
      </trkpt>
      <trkpt lat="43.4161" lon="6.06224">
        <ele>217</ele>
        <time>2017-01-04T13:17:41Z</time>
      </trkpt>
      <trkpt lat="43.4161" lon="6.0622">
        <ele>216.80000305176</ele>
        <time>2017-01-04T13:17:43Z</time>
      </trkpt>
      <trkpt lat="43.4161" lon="6.0622">
        <ele>217.39999389648</ele>
        <time>2017-01-04T13:17:50Z</time>
      </trkpt>
      <trkpt lat="43.4161" lon="6.0622">
        <ele>217.39999389648</ele>
        <time>2017-01-04T13:17:51Z</time>
      </trkpt>
      <trkpt lat="43.41609" lon="6.06221">
        <ele>217.80000305176</ele>
        <time>2017-01-04T13:17:56Z</time>
      </trkpt>
      <trkpt lat="43.41609" lon="6.06219">
        <ele>218</ele>
        <time>2017-01-04T13:18:00Z</time>
      </trkpt>
      <trkpt lat="43.41609" lon="6.06218">
        <ele>217.80000305176</ele>
        <time>2017-01-04T13:18:01Z</time>
      </trkpt>
      <trkpt lat="43.4161" lon="6.06212">
        <ele>217.60000610352</ele>
        <time>2017-01-04T13:18:03Z</time>
      </trkpt>
      <trkpt lat="43.41612" lon="6.06208">
        <ele>217.39999389648</ele>
        <time>2017-01-04T13:18:05Z</time>
      </trkpt>
      <trkpt lat="43.41626" lon="6.06223">
        <ele>217.80000305176</ele>
        <time>2017-01-04T13:18:11Z</time>
      </trkpt>
      <trkpt lat="43.41629" lon="6.06226">
        <ele>218</ele>
        <time>2017-01-04T13:18:12Z</time>
      </trkpt>
      <trkpt lat="43.41666" lon="6.06246">
        <ele>219.19999694824</ele>
        <time>2017-01-04T13:18:23Z</time>
      </trkpt>
      <trkpt lat="43.41699" lon="6.06249">
        <ele>219.19999694824</ele>
        <time>2017-01-04T13:18:31Z</time>
      </trkpt>
      <trkpt lat="43.41737" lon="6.0625">
        <ele>219.60000610352</ele>
        <time>2017-01-04T13:18:41Z</time>
      </trkpt>
      <trkpt lat="43.41751" lon="6.06253">
        <ele>220.39999389648</ele>
        <time>2017-01-04T13:18:45Z</time>
      </trkpt>
      <trkpt lat="43.4176" lon="6.06255">
        <ele>221.39999389648</ele>
        <time>2017-01-04T13:18:48Z</time>
      </trkpt>
      <trkpt lat="43.41769" lon="6.0626">
        <ele>222</ele>
        <time>2017-01-04T13:18:51Z</time>
      </trkpt>
      <trkpt lat="43.41779" lon="6.06265">
        <ele>222.39999389648</ele>
        <time>2017-01-04T13:18:54Z</time>
      </trkpt>
      <trkpt lat="43.41795" lon="6.06279">
        <ele>223.60000610352</ele>
        <time>2017-01-04T13:19:00Z</time>
      </trkpt>
      <trkpt lat="43.41798" lon="6.06282">
        <ele>223.80000305176</ele>
        <time>2017-01-04T13:19:01Z</time>
      </trkpt>
      <trkpt lat="43.41811" lon="6.06289">
        <ele>224.39999389648</ele>
        <time>2017-01-04T13:19:05Z</time>
      </trkpt>
      <trkpt lat="43.41814" lon="6.06291">
        <ele>224.60000610352</ele>
        <time>2017-01-04T13:19:06Z</time>
      </trkpt>
      <trkpt lat="43.41829" lon="6.06292">
        <ele>225.19999694824</ele>
        <time>2017-01-04T13:19:11Z</time>
      </trkpt>
      <trkpt lat="43.41837" lon="6.06292">
        <ele>225.80000305176</ele>
        <time>2017-01-04T13:19:14Z</time>
      </trkpt>
      <trkpt lat="43.41848" lon="6.06291">
        <ele>227</ele>
        <time>2017-01-04T13:19:18Z</time>
      </trkpt>
      <trkpt lat="43.41856" lon="6.06291">
        <ele>227.19999694824</ele>
        <time>2017-01-04T13:19:21Z</time>
      </trkpt>
      <trkpt lat="43.41885" lon="6.06293">
        <ele>229.19999694824</ele>
        <time>2017-01-04T13:19:31Z</time>
      </trkpt>
      <trkpt lat="43.41888" lon="6.06293">
        <ele>229.39999389648</ele>
        <time>2017-01-04T13:19:32Z</time>
      </trkpt>
      <trkpt lat="43.41902" lon="6.06292">
        <ele>230.60000610352</ele>
        <time>2017-01-04T13:19:37Z</time>
      </trkpt>
      <trkpt lat="43.41912" lon="6.0629">
        <ele>230.80000305176</ele>
        <time>2017-01-04T13:19:41Z</time>
      </trkpt>
      <trkpt lat="43.41928" lon="6.06289">
        <ele>231.60000610352</ele>
        <time>2017-01-04T13:19:48Z</time>
      </trkpt>
      <trkpt lat="43.41938" lon="6.06286">
        <ele>231.80000305176</ele>
        <time>2017-01-04T13:19:52Z</time>
      </trkpt>
      <trkpt lat="43.41946" lon="6.06284">
        <ele>232</ele>
        <time>2017-01-04T13:19:55Z</time>
      </trkpt>
      <trkpt lat="43.41969" lon="6.06276">
        <ele>234</ele>
        <time>2017-01-04T13:20:04Z</time>
      </trkpt>
      <trkpt lat="43.41982" lon="6.06272">
        <ele>235</ele>
        <time>2017-01-04T13:20:10Z</time>
      </trkpt>
      <trkpt lat="43.41984" lon="6.06272">
        <ele>235.39999389648</ele>
        <time>2017-01-04T13:20:11Z</time>
      </trkpt>
      <trkpt lat="43.4199" lon="6.06271">
        <ele>236.19999694824</ele>
        <time>2017-01-04T13:20:14Z</time>
      </trkpt>
      <trkpt lat="43.42002" lon="6.06266">
        <ele>237.19999694824</ele>
        <time>2017-01-04T13:20:20Z</time>
      </trkpt>
      <trkpt lat="43.42004" lon="6.06265">
        <ele>237.39999389648</ele>
        <time>2017-01-04T13:20:21Z</time>
      </trkpt>
      <trkpt lat="43.42011" lon="6.06263">
        <ele>238.39999389648</ele>
        <time>2017-01-04T13:20:25Z</time>
      </trkpt>
      <trkpt lat="43.42021" lon="6.0626">
        <ele>240</ele>
        <time>2017-01-04T13:20:31Z</time>
      </trkpt>
      <trkpt lat="43.42026" lon="6.06258">
        <ele>240.80000305176</ele>
        <time>2017-01-04T13:20:34Z</time>
      </trkpt>
      <trkpt lat="43.42034" lon="6.06256">
        <ele>241.80000305176</ele>
        <time>2017-01-04T13:20:39Z</time>
      </trkpt>
      <trkpt lat="43.42039" lon="6.06254">
        <ele>242.80000305176</ele>
        <time>2017-01-04T13:20:42Z</time>
      </trkpt>
      <trkpt lat="43.42047" lon="6.0625">
        <ele>244</ele>
        <time>2017-01-04T13:20:47Z</time>
      </trkpt>
      <trkpt lat="43.42053" lon="6.06248">
        <ele>244.80000305176</ele>
        <time>2017-01-04T13:20:51Z</time>
      </trkpt>
      <trkpt lat="43.42058" lon="6.06247">
        <ele>245.19999694824</ele>
        <time>2017-01-04T13:20:54Z</time>
      </trkpt>
      <trkpt lat="43.42068" lon="6.06244">
        <ele>246.19999694824</ele>
        <time>2017-01-04T13:21:00Z</time>
      </trkpt>
      <trkpt lat="43.42083" lon="6.0624">
        <ele>248.39999389648</ele>
        <time>2017-01-04T13:21:09Z</time>
      </trkpt>
      <trkpt lat="43.42087" lon="6.06237">
        <ele>249.60000610352</ele>
        <time>2017-01-04T13:21:12Z</time>
      </trkpt>
      <trkpt lat="43.42101" lon="6.06231">
        <ele>250.60000610352</ele>
        <time>2017-01-04T13:21:21Z</time>
      </trkpt>
      <trkpt lat="43.42102" lon="6.06232">
        <ele>250.80000305176</ele>
        <time>2017-01-04T13:21:22Z</time>
      </trkpt>
      <trkpt lat="43.42115" lon="6.06228">
        <ele>251.80000305176</ele>
        <time>2017-01-04T13:21:29Z</time>
      </trkpt>
      <trkpt lat="43.42118" lon="6.06227">
        <ele>252.19999694824</ele>
        <time>2017-01-04T13:21:31Z</time>
      </trkpt>
      <trkpt lat="43.42135" lon="6.06221">
        <ele>253.39999389648</ele>
        <time>2017-01-04T13:21:41Z</time>
      </trkpt>
      <trkpt lat="43.42144" lon="6.06217">
        <ele>254</ele>
        <time>2017-01-04T13:21:47Z</time>
      </trkpt>
      <trkpt lat="43.42147" lon="6.06211">
        <ele>254.19999694824</ele>
        <time>2017-01-04T13:21:51Z</time>
      </trkpt>
      <trkpt lat="43.42149" lon="6.06207">
        <ele>254.19999694824</ele>
        <time>2017-01-04T13:21:54Z</time>
      </trkpt>
      <trkpt lat="43.42151" lon="6.06203">
        <ele>254.19999694824</ele>
        <time>2017-01-04T13:21:57Z</time>
      </trkpt>
      <trkpt lat="43.42152" lon="6.062">
        <ele>254.39999389648</ele>
        <time>2017-01-04T13:22:00Z</time>
      </trkpt>
      <trkpt lat="43.42151" lon="6.06199">
        <ele>254.39999389648</ele>
        <time>2017-01-04T13:22:01Z</time>
      </trkpt>
      <trkpt lat="43.4215" lon="6.06198">
        <ele>254</ele>
        <time>2017-01-04T13:22:08Z</time>
      </trkpt>
      <trkpt lat="43.4215" lon="6.06198">
        <ele>254</ele>
        <time>2017-01-04T13:22:11Z</time>
      </trkpt>
      <trkpt lat="43.4215" lon="6.06198">
        <ele>254</ele>
        <time>2017-01-04T13:22:13Z</time>
      </trkpt>
      <trkpt lat="43.4215" lon="6.06198">
        <ele>253.80000305176</ele>
        <time>2017-01-04T13:22:15Z</time>
      </trkpt>
      <trkpt lat="43.4215" lon="6.06198">
        <ele>254</ele>
        <time>2017-01-04T13:22:20Z</time>
      </trkpt>
      <trkpt lat="43.4215" lon="6.06198">
        <ele>254</ele>
        <time>2017-01-04T13:22:21Z</time>
      </trkpt>
      <trkpt lat="43.4215" lon="6.06198">
        <ele>254</ele>
        <time>2017-01-04T13:22:22Z</time>
      </trkpt>
      <trkpt lat="43.4215" lon="6.06198">
        <ele>254.19999694824</ele>
        <time>2017-01-04T13:22:24Z</time>
      </trkpt>
      <trkpt lat="43.42151" lon="6.06199">
        <ele>254.39999389648</ele>
        <time>2017-01-04T13:22:29Z</time>
      </trkpt>
      <trkpt lat="43.42151" lon="6.062">
        <ele>254.39999389648</ele>
        <time>2017-01-04T13:22:31Z</time>
      </trkpt>
      <trkpt lat="43.42151" lon="6.062">
        <ele>254.39999389648</ele>
        <time>2017-01-04T13:22:36Z</time>
      </trkpt>
      <trkpt lat="43.42151" lon="6.062">
        <ele>254.39999389648</ele>
        <time>2017-01-04T13:22:41Z</time>
      </trkpt>
      <trkpt lat="43.4215" lon="6.062">
        <ele>254.60000610352</ele>
        <time>2017-01-04T13:22:51Z</time>
      </trkpt>
      <trkpt lat="43.4215" lon="6.062">
        <ele>255</ele>
        <time>2017-01-04T13:23:01Z</time>
      </trkpt>
      <trkpt lat="43.4215" lon="6.062">
        <ele>254.80000305176</ele>
        <time>2017-01-04T13:23:04Z</time>
      </trkpt>
      <trkpt lat="43.4215" lon="6.062">
        <ele>254</ele>
        <time>2017-01-04T13:23:11Z</time>
      </trkpt>
      <trkpt lat="43.42151" lon="6.06199">
        <ele>254</ele>
        <time>2017-01-04T13:23:21Z</time>
      </trkpt>
      <trkpt lat="43.42151" lon="6.06199">
        <ele>254</ele>
        <time>2017-01-04T13:23:31Z</time>
      </trkpt>
      <trkpt lat="43.42151" lon="6.06199">
        <ele>254</ele>
        <time>2017-01-04T13:24:02Z</time>
      </trkpt>
      <trkpt lat="43.42151" lon="6.06199">
        <ele>254</ele>
        <time>2017-01-04T13:24:12Z</time>
      </trkpt>
      <trkpt lat="43.42151" lon="6.06199">
        <ele>254</ele>
        <time>2017-01-04T13:24:22Z</time>
      </trkpt>
      <trkpt lat="43.4215" lon="6.06199">
        <ele>254</ele>
        <time>2017-01-04T13:24:27Z</time>
      </trkpt>
      <trkpt lat="43.42148" lon="6.06196">
        <ele>254</ele>
        <time>2017-01-04T13:24:32Z</time>
      </trkpt>
      <trkpt lat="43.42147" lon="6.06194">
        <ele>254.19999694824</ele>
        <time>2017-01-04T13:24:33Z</time>
      </trkpt>
      <trkpt lat="43.42141" lon="6.06173">
        <ele>253.19999694824</ele>
        <time>2017-01-04T13:24:40Z</time>
      </trkpt>
      <trkpt lat="43.42138" lon="6.06163">
        <ele>252.39999389648</ele>
        <time>2017-01-04T13:24:42Z</time>
      </trkpt>
      <trkpt lat="43.42134" lon="6.06151">
        <ele>251.80000305176</ele>
        <time>2017-01-04T13:24:44Z</time>
      </trkpt>
      <trkpt lat="43.42126" lon="6.06121">
        <ele>250.80000305176</ele>
        <time>2017-01-04T13:24:48Z</time>
      </trkpt>
      <trkpt lat="43.42123" lon="6.06107">
        <ele>250.39999389648</ele>
        <time>2017-01-04T13:24:50Z</time>
      </trkpt>
      <trkpt lat="43.42121" lon="6.06092">
        <ele>250.39999389648</ele>
        <time>2017-01-04T13:24:52Z</time>
      </trkpt>
      <trkpt lat="43.42118" lon="6.06079">
        <ele>251.39999389648</ele>
        <time>2017-01-04T13:24:54Z</time>
      </trkpt>
      <trkpt lat="43.42118" lon="6.06073">
        <ele>252</ele>
        <time>2017-01-04T13:24:55Z</time>
      </trkpt>
      <trkpt lat="43.42115" lon="6.06055">
        <ele>253.39999389648</ele>
        <time>2017-01-04T13:24:58Z</time>
      </trkpt>
      <trkpt lat="43.42111" lon="6.06033">
        <ele>254.60000610352</ele>
        <time>2017-01-04T13:25:02Z</time>
      </trkpt>
      <trkpt lat="43.42108" lon="6.06012">
        <ele>255.39999389648</ele>
        <time>2017-01-04T13:25:06Z</time>
      </trkpt>
      <trkpt lat="43.421" lon="6.05975">
        <ele>255</ele>
        <time>2017-01-04T13:25:12Z</time>
      </trkpt>
      <trkpt lat="43.42085" lon="6.05921">
        <ele>253.39999389648</ele>
        <time>2017-01-04T13:25:20Z</time>
      </trkpt>
      <trkpt lat="43.42082" lon="6.05907">
        <ele>253.39999389648</ele>
        <time>2017-01-04T13:25:22Z</time>
      </trkpt>
      <trkpt lat="43.42071" lon="6.05862">
        <ele>252.60000610352</ele>
        <time>2017-01-04T13:25:28Z</time>
      </trkpt>
      <trkpt lat="43.42067" lon="6.05846">
        <ele>252.39999389648</ele>
        <time>2017-01-04T13:25:30Z</time>
      </trkpt>
      <trkpt lat="43.42062" lon="6.05827">
        <ele>252.39999389648</ele>
        <time>2017-01-04T13:25:32Z</time>
      </trkpt>
      <trkpt lat="43.42057" lon="6.05805">
        <ele>250.80000305176</ele>
        <time>2017-01-04T13:25:34Z</time>
      </trkpt>
      <trkpt lat="43.42053" lon="6.05784">
        <ele>249.39999389648</ele>
        <time>2017-01-04T13:25:36Z</time>
      </trkpt>
      <trkpt lat="43.42049" lon="6.05764">
        <ele>248.19999694824</ele>
        <time>2017-01-04T13:25:38Z</time>
      </trkpt>
      <trkpt lat="43.42041" lon="6.05724">
        <ele>247.39999389648</ele>
        <time>2017-01-04T13:25:42Z</time>
      </trkpt>
      <trkpt lat="43.42032" lon="6.05675">
        <ele>247.39999389648</ele>
        <time>2017-01-04T13:25:47Z</time>
      </trkpt>
      <trkpt lat="43.42025" lon="6.05636">
        <ele>248.39999389648</ele>
        <time>2017-01-04T13:25:52Z</time>
      </trkpt>
      <trkpt lat="43.42023" lon="6.05624">
        <ele>249.60000610352</ele>
        <time>2017-01-04T13:25:54Z</time>
      </trkpt>
      <trkpt lat="43.4202" lon="6.05607">
        <ele>251</ele>
        <time>2017-01-04T13:25:57Z</time>
      </trkpt>
      <trkpt lat="43.42018" lon="6.05597">
        <ele>252.19999694824</ele>
        <time>2017-01-04T13:25:59Z</time>
      </trkpt>
      <trkpt lat="43.42016" lon="6.05582">
        <ele>253.39999389648</ele>
        <time>2017-01-04T13:26:02Z</time>
      </trkpt>
      <trkpt lat="43.4201" lon="6.05547">
        <ele>255.60000610352</ele>
        <time>2017-01-04T13:26:10Z</time>
      </trkpt>
      <trkpt lat="43.42007" lon="6.05531">
        <ele>256.79998779297</ele>
        <time>2017-01-04T13:26:14Z</time>
      </trkpt>
      <trkpt lat="43.42004" lon="6.05504">
        <ele>258</ele>
        <time>2017-01-04T13:26:22Z</time>
      </trkpt>
      <trkpt lat="43.42001" lon="6.05488">
        <ele>259.20001220703</ele>
        <time>2017-01-04T13:26:27Z</time>
      </trkpt>
      <trkpt lat="43.41998" lon="6.05476">
        <ele>260</ele>
        <time>2017-01-04T13:26:31Z</time>
      </trkpt>
      <trkpt lat="43.41997" lon="6.05473">
        <ele>260</ele>
        <time>2017-01-04T13:26:32Z</time>
      </trkpt>
      <trkpt lat="43.41995" lon="6.05464">
        <ele>260</ele>
        <time>2017-01-04T13:26:35Z</time>
      </trkpt>
      <trkpt lat="43.4199" lon="6.05444">
        <ele>259.60000610352</ele>
        <time>2017-01-04T13:26:40Z</time>
      </trkpt>
      <trkpt lat="43.41988" lon="6.05434">
        <ele>259</ele>
        <time>2017-01-04T13:26:42Z</time>
      </trkpt>
      <trkpt lat="43.41983" lon="6.05415">
        <ele>258.20001220703</ele>
        <time>2017-01-04T13:26:45Z</time>
      </trkpt>
      <trkpt lat="43.41977" lon="6.05395">
        <ele>256.60000610352</ele>
        <time>2017-01-04T13:26:48Z</time>
      </trkpt>
      <trkpt lat="43.41974" lon="6.05379">
        <ele>255.60000610352</ele>
        <time>2017-01-04T13:26:50Z</time>
      </trkpt>
      <trkpt lat="43.41964" lon="6.05337">
        <ele>253.19999694824</ele>
        <time>2017-01-04T13:26:55Z</time>
      </trkpt>
      <trkpt lat="43.41958" lon="6.05307">
        <ele>252</ele>
        <time>2017-01-04T13:26:58Z</time>
      </trkpt>
      <trkpt lat="43.41954" lon="6.05286">
        <ele>251</ele>
        <time>2017-01-04T13:27:00Z</time>
      </trkpt>
      <trkpt lat="43.41951" lon="6.05264">
        <ele>249.80000305176</ele>
        <time>2017-01-04T13:27:02Z</time>
      </trkpt>
      <trkpt lat="43.41949" lon="6.05253">
        <ele>249</ele>
        <time>2017-01-04T13:27:03Z</time>
      </trkpt>
      <trkpt lat="43.41948" lon="6.05241">
        <ele>248.19999694824</ele>
        <time>2017-01-04T13:27:04Z</time>
      </trkpt>
      <trkpt lat="43.41945" lon="6.05218">
        <ele>246.80000305176</ele>
        <time>2017-01-04T13:27:06Z</time>
      </trkpt>
      <trkpt lat="43.41942" lon="6.05185">
        <ele>245.39999389648</ele>
        <time>2017-01-04T13:27:09Z</time>
      </trkpt>
      <trkpt lat="43.41941" lon="6.05159">
        <ele>244.19999694824</ele>
        <time>2017-01-04T13:27:12Z</time>
      </trkpt>
      <trkpt lat="43.41945" lon="6.05147">
        <ele>243.60000610352</ele>
        <time>2017-01-04T13:27:14Z</time>
      </trkpt>
      <trkpt lat="43.41956" lon="6.05138">
        <ele>243.60000610352</ele>
        <time>2017-01-04T13:27:17Z</time>
      </trkpt>
      <trkpt lat="43.41963" lon="6.05134">
        <ele>243.80000305176</ele>
        <time>2017-01-04T13:27:19Z</time>
      </trkpt>
      <trkpt lat="43.4197" lon="6.05131">
        <ele>244.19999694824</ele>
        <time>2017-01-04T13:27:21Z</time>
      </trkpt>
      <trkpt lat="43.41974" lon="6.05129">
        <ele>244.19999694824</ele>
        <time>2017-01-04T13:27:22Z</time>
      </trkpt>
      <trkpt lat="43.41985" lon="6.05127">
        <ele>245.19999694824</ele>
        <time>2017-01-04T13:27:25Z</time>
      </trkpt>
      <trkpt lat="43.42009" lon="6.05121">
        <ele>246</ele>
        <time>2017-01-04T13:27:31Z</time>
      </trkpt>
      <trkpt lat="43.42017" lon="6.0512">
        <ele>246.39999389648</ele>
        <time>2017-01-04T13:27:33Z</time>
      </trkpt>
      <trkpt lat="43.42034" lon="6.05116">
        <ele>247.39999389648</ele>
        <time>2017-01-04T13:27:37Z</time>
      </trkpt>
      <trkpt lat="43.42052" lon="6.05111">
        <ele>248.19999694824</ele>
        <time>2017-01-04T13:27:42Z</time>
      </trkpt>
      <trkpt lat="43.42059" lon="6.0511">
        <ele>248.39999389648</ele>
        <time>2017-01-04T13:27:44Z</time>
      </trkpt>
      <trkpt lat="43.4208" lon="6.05108">
        <ele>249.39999389648</ele>
        <time>2017-01-04T13:27:50Z</time>
      </trkpt>
      <trkpt lat="43.42088" lon="6.05109">
        <ele>249.80000305176</ele>
        <time>2017-01-04T13:27:52Z</time>
      </trkpt>
      <trkpt lat="43.42099" lon="6.0511">
        <ele>250.60000610352</ele>
        <time>2017-01-04T13:27:55Z</time>
      </trkpt>
      <trkpt lat="43.42122" lon="6.0511">
        <ele>251.19999694824</ele>
        <time>2017-01-04T13:28:02Z</time>
      </trkpt>
      <trkpt lat="43.42126" lon="6.05112">
        <ele>251.80000305176</ele>
        <time>2017-01-04T13:28:04Z</time>
      </trkpt>
      <trkpt lat="43.4213" lon="6.05117">
        <ele>252.80000305176</ele>
        <time>2017-01-04T13:28:08Z</time>
      </trkpt>
      <trkpt lat="43.42133" lon="6.0512">
        <ele>253.19999694824</ele>
        <time>2017-01-04T13:28:12Z</time>
      </trkpt>
      <trkpt lat="43.42134" lon="6.05121">
        <ele>253.39999389648</ele>
        <time>2017-01-04T13:28:14Z</time>
      </trkpt>
      <trkpt lat="43.42138" lon="6.05124">
        <ele>253.39999389648</ele>
        <time>2017-01-04T13:28:18Z</time>
      </trkpt>
      <trkpt lat="43.4214" lon="6.05126">
        <ele>253.60000610352</ele>
        <time>2017-01-04T13:28:22Z</time>
      </trkpt>
      <trkpt lat="43.42142" lon="6.05127">
        <ele>253.60000610352</ele>
        <time>2017-01-04T13:28:25Z</time>
      </trkpt>
      <trkpt lat="43.42144" lon="6.05132">
        <ele>254</ele>
        <time>2017-01-04T13:28:28Z</time>
      </trkpt>
      <trkpt lat="43.42147" lon="6.05138">
        <ele>254.19999694824</ele>
        <time>2017-01-04T13:28:32Z</time>
      </trkpt>
      <trkpt lat="43.4216" lon="6.05154">
        <ele>254.39999389648</ele>
        <time>2017-01-04T13:28:42Z</time>
      </trkpt>
      <trkpt lat="43.42165" lon="6.05158">
        <ele>254.39999389648</ele>
        <time>2017-01-04T13:28:45Z</time>
      </trkpt>
      <trkpt lat="43.42181" lon="6.05167">
        <ele>255</ele>
        <time>2017-01-04T13:28:53Z</time>
      </trkpt>
      <trkpt lat="43.42203" lon="6.0518">
        <ele>255.80000305176</ele>
        <time>2017-01-04T13:29:03Z</time>
      </trkpt>
      <trkpt lat="43.42205" lon="6.0518">
        <ele>256</ele>
        <time>2017-01-04T13:29:04Z</time>
      </trkpt>
      <trkpt lat="43.42222" lon="6.0519">
        <ele>257</ele>
        <time>2017-01-04T13:29:12Z</time>
      </trkpt>
      <trkpt lat="43.42224" lon="6.05191">
        <ele>257.20001220703</ele>
        <time>2017-01-04T13:29:13Z</time>
      </trkpt>
      <trkpt lat="43.42237" lon="6.0521">
        <ele>257.79998779297</ele>
        <time>2017-01-04T13:29:22Z</time>
      </trkpt>
      <trkpt lat="43.42239" lon="6.05211">
        <ele>258</ele>
        <time>2017-01-04T13:29:23Z</time>
      </trkpt>
      <trkpt lat="43.4224" lon="6.05212">
        <ele>258.20001220703</ele>
        <time>2017-01-04T13:29:25Z</time>
      </trkpt>
      <trkpt lat="43.42242" lon="6.05213">
        <ele>258.79998779297</ele>
        <time>2017-01-04T13:29:33Z</time>
      </trkpt>
      <trkpt lat="43.42242" lon="6.05213">
        <ele>258.60000610352</ele>
        <time>2017-01-04T13:29:43Z</time>
      </trkpt>
      <trkpt lat="43.42242" lon="6.05214">
        <ele>258.60000610352</ele>
        <time>2017-01-04T13:29:53Z</time>
      </trkpt>
      <trkpt lat="43.42242" lon="6.05214">
        <ele>258.39999389648</ele>
        <time>2017-01-04T13:30:00Z</time>
      </trkpt>
      <trkpt lat="43.42242" lon="6.05214">
        <ele>258.39999389648</ele>
        <time>2017-01-04T13:30:03Z</time>
      </trkpt>
      <trkpt lat="43.42242" lon="6.05214">
        <ele>258.39999389648</ele>
        <time>2017-01-04T13:30:09Z</time>
      </trkpt>
      <trkpt lat="43.42243" lon="6.05214">
        <ele>258.60000610352</ele>
        <time>2017-01-04T13:30:13Z</time>
      </trkpt>
      <trkpt lat="43.42247" lon="6.05213">
        <ele>258.60000610352</ele>
        <time>2017-01-04T13:30:16Z</time>
      </trkpt>
      <trkpt lat="43.42255" lon="6.05213">
        <ele>258.79998779297</ele>
        <time>2017-01-04T13:30:21Z</time>
      </trkpt>
      <trkpt lat="43.4226" lon="6.05212">
        <ele>258.79998779297</ele>
        <time>2017-01-04T13:30:23Z</time>
      </trkpt>
      <trkpt lat="43.42269" lon="6.05213">
        <ele>259</ele>
        <time>2017-01-04T13:30:27Z</time>
      </trkpt>
      <trkpt lat="43.42272" lon="6.05213">
        <ele>259.20001220703</ele>
        <time>2017-01-04T13:30:28Z</time>
      </trkpt>
      <trkpt lat="43.42286" lon="6.05215">
        <ele>260</ele>
        <time>2017-01-04T13:30:33Z</time>
      </trkpt>
      <trkpt lat="43.423" lon="6.05219">
        <ele>260</ele>
        <time>2017-01-04T13:30:38Z</time>
      </trkpt>
      <trkpt lat="43.42308" lon="6.05222">
        <ele>260.60000610352</ele>
        <time>2017-01-04T13:30:41Z</time>
      </trkpt>
      <trkpt lat="43.42313" lon="6.05223">
        <ele>261</ele>
        <time>2017-01-04T13:30:43Z</time>
      </trkpt>
      <trkpt lat="43.42317" lon="6.05223">
        <ele>261.60000610352</ele>
        <time>2017-01-04T13:30:45Z</time>
      </trkpt>
      <trkpt lat="43.42331" lon="6.05227">
        <ele>263</ele>
        <time>2017-01-04T13:30:52Z</time>
      </trkpt>
      <trkpt lat="43.4234" lon="6.05229">
        <ele>263.79998779297</ele>
        <time>2017-01-04T13:30:56Z</time>
      </trkpt>
      <trkpt lat="43.42345" lon="6.05229">
        <ele>264.20001220703</ele>
        <time>2017-01-04T13:30:59Z</time>
      </trkpt>
      <trkpt lat="43.42351" lon="6.0523">
        <ele>264.79998779297</ele>
        <time>2017-01-04T13:31:02Z</time>
      </trkpt>
      <trkpt lat="43.42353" lon="6.0523">
        <ele>265</ele>
        <time>2017-01-04T13:31:03Z</time>
      </trkpt>
      <trkpt lat="43.42373" lon="6.05224">
        <ele>265.79998779297</ele>
        <time>2017-01-04T13:31:13Z</time>
      </trkpt>
      <trkpt lat="43.42393" lon="6.05224">
        <ele>267.20001220703</ele>
        <time>2017-01-04T13:31:23Z</time>
      </trkpt>
      <trkpt lat="43.42408" lon="6.05221">
        <ele>268</ele>
        <time>2017-01-04T13:31:30Z</time>
      </trkpt>
      <trkpt lat="43.42414" lon="6.05221">
        <ele>268.20001220703</ele>
        <time>2017-01-04T13:31:33Z</time>
      </trkpt>
      <trkpt lat="43.42441" lon="6.0522">
        <ele>268.60000610352</ele>
        <time>2017-01-04T13:31:43Z</time>
      </trkpt>
      <trkpt lat="43.42448" lon="6.05218">
        <ele>269</ele>
        <time>2017-01-04T13:31:46Z</time>
      </trkpt>
      <trkpt lat="43.42454" lon="6.05215">
        <ele>270.20001220703</ele>
        <time>2017-01-04T13:31:49Z</time>
      </trkpt>
      <trkpt lat="43.42459" lon="6.05212">
        <ele>271.20001220703</ele>
        <time>2017-01-04T13:31:52Z</time>
      </trkpt>
      <trkpt lat="43.4246" lon="6.05212">
        <ele>271.20001220703</ele>
        <time>2017-01-04T13:31:53Z</time>
      </trkpt>
      <trkpt lat="43.42464" lon="6.05211">
        <ele>272.20001220703</ele>
        <time>2017-01-04T13:31:56Z</time>
      </trkpt>
      <trkpt lat="43.42466" lon="6.05211">
        <ele>272.39999389648</ele>
        <time>2017-01-04T13:31:57Z</time>
      </trkpt>
      <trkpt lat="43.42477" lon="6.05213">
        <ele>273</ele>
        <time>2017-01-04T13:32:03Z</time>
      </trkpt>
      <trkpt lat="43.42495" lon="6.05219">
        <ele>272.39999389648</ele>
        <time>2017-01-04T13:32:10Z</time>
      </trkpt>
      <trkpt lat="43.42503" lon="6.05222">
        <ele>272.39999389648</ele>
        <time>2017-01-04T13:32:13Z</time>
      </trkpt>
      <trkpt lat="43.42525" lon="6.05223">
        <ele>272.79998779297</ele>
        <time>2017-01-04T13:32:22Z</time>
      </trkpt>
      <trkpt lat="43.42527" lon="6.05223">
        <ele>272.79998779297</ele>
        <time>2017-01-04T13:32:23Z</time>
      </trkpt>
      <trkpt lat="43.42546" lon="6.0522">
        <ele>273.60000610352</ele>
        <time>2017-01-04T13:32:31Z</time>
      </trkpt>
      <trkpt lat="43.4255" lon="6.05217">
        <ele>274.20001220703</ele>
        <time>2017-01-04T13:32:33Z</time>
      </trkpt>
      <trkpt lat="43.42553" lon="6.05215">
        <ele>274.79998779297</ele>
        <time>2017-01-04T13:32:35Z</time>
      </trkpt>
      <trkpt lat="43.42555" lon="6.05215">
        <ele>275</ele>
        <time>2017-01-04T13:32:36Z</time>
      </trkpt>
      <trkpt lat="43.42569" lon="6.05217">
        <ele>275.79998779297</ele>
        <time>2017-01-04T13:32:43Z</time>
      </trkpt>
      <trkpt lat="43.4258" lon="6.05222">
        <ele>275.60000610352</ele>
        <time>2017-01-04T13:32:48Z</time>
      </trkpt>
      <trkpt lat="43.4259" lon="6.05231">
        <ele>275.60000610352</ele>
        <time>2017-01-04T13:32:53Z</time>
      </trkpt>
      <trkpt lat="43.42602" lon="6.05242">
        <ele>275.60000610352</ele>
        <time>2017-01-04T13:32:59Z</time>
      </trkpt>
      <trkpt lat="43.42612" lon="6.05249">
        <ele>275.39999389648</ele>
        <time>2017-01-04T13:33:03Z</time>
      </trkpt>
      <trkpt lat="43.42619" lon="6.05255">
        <ele>276</ele>
        <time>2017-01-04T13:33:06Z</time>
      </trkpt>
      <trkpt lat="43.42624" lon="6.05258">
        <ele>277.20001220703</ele>
        <time>2017-01-04T13:33:09Z</time>
      </trkpt>
      <trkpt lat="43.42631" lon="6.05263">
        <ele>277.79998779297</ele>
        <time>2017-01-04T13:33:13Z</time>
      </trkpt>
      <trkpt lat="43.42633" lon="6.05265">
        <ele>278</ele>
        <time>2017-01-04T13:33:20Z</time>
      </trkpt>
      <trkpt lat="43.42633" lon="6.05266">
        <ele>278</ele>
        <time>2017-01-04T13:33:23Z</time>
      </trkpt>
      <trkpt lat="43.42633" lon="6.05266">
        <ele>278.20001220703</ele>
        <time>2017-01-04T13:33:27Z</time>
      </trkpt>
      <trkpt lat="43.42633" lon="6.05266">
        <ele>278.20001220703</ele>
        <time>2017-01-04T13:33:30Z</time>
      </trkpt>
      <trkpt lat="43.42633" lon="6.05267">
        <ele>278</ele>
        <time>2017-01-04T13:33:35Z</time>
      </trkpt>
      <trkpt lat="43.42633" lon="6.05267">
        <ele>278</ele>
        <time>2017-01-04T13:33:41Z</time>
      </trkpt>
      <trkpt lat="43.42633" lon="6.05267">
        <ele>278</ele>
        <time>2017-01-04T13:33:43Z</time>
      </trkpt>
      <trkpt lat="43.42635" lon="6.05268">
        <ele>278</ele>
        <time>2017-01-04T13:33:52Z</time>
      </trkpt>
      <trkpt lat="43.42635" lon="6.05268">
        <ele>278</ele>
        <time>2017-01-04T13:33:53Z</time>
      </trkpt>
      <trkpt lat="43.42635" lon="6.05268">
        <ele>277.79998779297</ele>
        <time>2017-01-04T13:33:56Z</time>
      </trkpt>
      <trkpt lat="43.42635" lon="6.05268">
        <ele>278</ele>
        <time>2017-01-04T13:34:00Z</time>
      </trkpt>
      <trkpt lat="43.42635" lon="6.05268">
        <ele>278</ele>
        <time>2017-01-04T13:34:03Z</time>
      </trkpt>
      <trkpt lat="43.42635" lon="6.05269">
        <ele>278.20001220703</ele>
        <time>2017-01-04T13:34:08Z</time>
      </trkpt>
      <trkpt lat="43.42635" lon="6.05269">
        <ele>278.20001220703</ele>
        <time>2017-01-04T13:34:09Z</time>
      </trkpt>
      <trkpt lat="43.42635" lon="6.05271">
        <ele>278.39999389648</ele>
        <time>2017-01-04T13:34:11Z</time>
      </trkpt>
      <trkpt lat="43.42638" lon="6.05273">
        <ele>278.39999389648</ele>
        <time>2017-01-04T13:34:13Z</time>
      </trkpt>
      <trkpt lat="43.42639" lon="6.05275">
        <ele>278.39999389648</ele>
        <time>2017-01-04T13:34:14Z</time>
      </trkpt>
      <trkpt lat="43.42653" lon="6.05287">
        <ele>279.20001220703</ele>
        <time>2017-01-04T13:34:22Z</time>
      </trkpt>
      <trkpt lat="43.42659" lon="6.05299">
        <ele>279.60000610352</ele>
        <time>2017-01-04T13:34:28Z</time>
      </trkpt>
      <trkpt lat="43.42663" lon="6.05304">
        <ele>280.39999389648</ele>
        <time>2017-01-04T13:34:31Z</time>
      </trkpt>
      <trkpt lat="43.42665" lon="6.05308">
        <ele>280.79998779297</ele>
        <time>2017-01-04T13:34:33Z</time>
      </trkpt>
      <trkpt lat="43.42671" lon="6.05317">
        <ele>280.60000610352</ele>
        <time>2017-01-04T13:34:38Z</time>
      </trkpt>
      <trkpt lat="43.42675" lon="6.05323">
        <ele>280.79998779297</ele>
        <time>2017-01-04T13:34:41Z</time>
      </trkpt>
      <trkpt lat="43.42675" lon="6.05325">
        <ele>281.60000610352</ele>
        <time>2017-01-04T13:34:43Z</time>
      </trkpt>
      <trkpt lat="43.42675" lon="6.05326">
        <ele>281.79998779297</ele>
        <time>2017-01-04T13:34:46Z</time>
      </trkpt>
      <trkpt lat="43.42676" lon="6.05327">
        <ele>282.20001220703</ele>
        <time>2017-01-04T13:34:50Z</time>
      </trkpt>
      <trkpt lat="43.42677" lon="6.05329">
        <ele>282.60000610352</ele>
        <time>2017-01-04T13:34:54Z</time>
      </trkpt>
      <trkpt lat="43.42679" lon="6.05332">
        <ele>282.79998779297</ele>
        <time>2017-01-04T13:34:58Z</time>
      </trkpt>
      <trkpt lat="43.42681" lon="6.05333">
        <ele>283.39999389648</ele>
        <time>2017-01-04T13:35:02Z</time>
      </trkpt>
      <trkpt lat="43.42681" lon="6.05333">
        <ele>283.60000610352</ele>
        <time>2017-01-04T13:35:06Z</time>
      </trkpt>
      <trkpt lat="43.42681" lon="6.05333">
        <ele>283.60000610352</ele>
        <time>2017-01-04T13:35:10Z</time>
      </trkpt>
      <trkpt lat="43.42682" lon="6.05334">
        <ele>283.60000610352</ele>
        <time>2017-01-04T13:35:13Z</time>
      </trkpt>
      <trkpt lat="43.42682" lon="6.05335">
        <ele>283.60000610352</ele>
        <time>2017-01-04T13:35:17Z</time>
      </trkpt>
      <trkpt lat="43.42683" lon="6.05335">
        <ele>283.60000610352</ele>
        <time>2017-01-04T13:35:23Z</time>
      </trkpt>
      <trkpt lat="43.42685" lon="6.05336">
        <ele>283.60000610352</ele>
        <time>2017-01-04T13:35:25Z</time>
      </trkpt>
      <trkpt lat="43.42688" lon="6.05338">
        <ele>283.79998779297</ele>
        <time>2017-01-04T13:35:28Z</time>
      </trkpt>
      <trkpt lat="43.42696" lon="6.0534">
        <ele>284.20001220703</ele>
        <time>2017-01-04T13:35:33Z</time>
      </trkpt>
      <trkpt lat="43.42704" lon="6.0534">
        <ele>284.60000610352</ele>
        <time>2017-01-04T13:35:38Z</time>
      </trkpt>
      <trkpt lat="43.42713" lon="6.05339">
        <ele>284.60000610352</ele>
        <time>2017-01-04T13:35:43Z</time>
      </trkpt>
      <trkpt lat="43.4272" lon="6.05344">
        <ele>285.20001220703</ele>
        <time>2017-01-04T13:35:48Z</time>
      </trkpt>
      <trkpt lat="43.42722" lon="6.05347">
        <ele>285.79998779297</ele>
        <time>2017-01-04T13:35:50Z</time>
      </trkpt>
      <trkpt lat="43.42722" lon="6.05353">
        <ele>286.39999389648</ele>
        <time>2017-01-04T13:35:53Z</time>
      </trkpt>
      <trkpt lat="43.42719" lon="6.05368">
        <ele>287</ele>
        <time>2017-01-04T13:36:00Z</time>
      </trkpt>
      <trkpt lat="43.42719" lon="6.05374">
        <ele>287.60000610352</ele>
        <time>2017-01-04T13:36:03Z</time>
      </trkpt>
      <trkpt lat="43.42719" lon="6.05378">
        <ele>288</ele>
        <time>2017-01-04T13:36:05Z</time>
      </trkpt>
      <trkpt lat="43.42724" lon="6.05394">
        <ele>288.60000610352</ele>
        <time>2017-01-04T13:36:13Z</time>
      </trkpt>
      <trkpt lat="43.42725" lon="6.05398">
        <ele>288.79998779297</ele>
        <time>2017-01-04T13:36:15Z</time>
      </trkpt>
      <trkpt lat="43.42725" lon="6.05402">
        <ele>289.20001220703</ele>
        <time>2017-01-04T13:36:17Z</time>
      </trkpt>
      <trkpt lat="43.42725" lon="6.05404">
        <ele>289.20001220703</ele>
        <time>2017-01-04T13:36:18Z</time>
      </trkpt>
      <trkpt lat="43.42727" lon="6.05409">
        <ele>289.79998779297</ele>
        <time>2017-01-04T13:36:22Z</time>
      </trkpt>
      <trkpt lat="43.42728" lon="6.05413">
        <ele>290.20001220703</ele>
        <time>2017-01-04T13:36:24Z</time>
      </trkpt>
      <trkpt lat="43.42731" lon="6.05423">
        <ele>291.39999389648</ele>
        <time>2017-01-04T13:36:29Z</time>
      </trkpt>
      <trkpt lat="43.42733" lon="6.05431">
        <ele>291.79998779297</ele>
        <time>2017-01-04T13:36:33Z</time>
      </trkpt>
      <trkpt lat="43.42733" lon="6.05438">
        <ele>291.79998779297</ele>
        <time>2017-01-04T13:36:36Z</time>
      </trkpt>
      <trkpt lat="43.42724" lon="6.05472">
        <ele>293.39999389648</ele>
        <time>2017-01-04T13:36:53Z</time>
      </trkpt>
      <trkpt lat="43.42724" lon="6.05474">
        <ele>293.60000610352</ele>
        <time>2017-01-04T13:36:54Z</time>
      </trkpt>
      <trkpt lat="43.42727" lon="6.05495">
        <ele>294.60000610352</ele>
        <time>2017-01-04T13:37:04Z</time>
      </trkpt>
      <trkpt lat="43.4273" lon="6.05525">
        <ele>296.20001220703</ele>
        <time>2017-01-04T13:37:18Z</time>
      </trkpt>
      <trkpt lat="43.42732" lon="6.05535">
        <ele>297</ele>
        <time>2017-01-04T13:37:23Z</time>
      </trkpt>
      <trkpt lat="43.42739" lon="6.05553">
        <ele>298.20001220703</ele>
        <time>2017-01-04T13:37:33Z</time>
      </trkpt>
      <trkpt lat="43.42741" lon="6.05561">
        <ele>298.79998779297</ele>
        <time>2017-01-04T13:37:37Z</time>
      </trkpt>
      <trkpt lat="43.42745" lon="6.05571">
        <ele>299.60000610352</ele>
        <time>2017-01-04T13:37:43Z</time>
      </trkpt>
      <trkpt lat="43.42748" lon="6.05574">
        <ele>300</ele>
        <time>2017-01-04T13:37:46Z</time>
      </trkpt>
      <trkpt lat="43.42754" lon="6.05584">
        <ele>300.79998779297</ele>
        <time>2017-01-04T13:37:53Z</time>
      </trkpt>
      <trkpt lat="43.42754" lon="6.05585">
        <ele>301</ele>
        <time>2017-01-04T13:37:54Z</time>
      </trkpt>
      <trkpt lat="43.42755" lon="6.0559">
        <ele>302.20001220703</ele>
        <time>2017-01-04T13:37:57Z</time>
      </trkpt>
      <trkpt lat="43.42756" lon="6.05599">
        <ele>303</ele>
        <time>2017-01-04T13:38:03Z</time>
      </trkpt>
      <trkpt lat="43.42756" lon="6.05602">
        <ele>303.20001220703</ele>
        <time>2017-01-04T13:38:05Z</time>
      </trkpt>
      <trkpt lat="43.42753" lon="6.05612">
        <ele>304</ele>
        <time>2017-01-04T13:38:11Z</time>
      </trkpt>
      <trkpt lat="43.42751" lon="6.05614">
        <ele>304.20001220703</ele>
        <time>2017-01-04T13:38:13Z</time>
      </trkpt>
      <trkpt lat="43.42748" lon="6.05621">
        <ele>305.39999389648</ele>
        <time>2017-01-04T13:38:18Z</time>
      </trkpt>
      <trkpt lat="43.42745" lon="6.05628">
        <ele>306</ele>
        <time>2017-01-04T13:38:23Z</time>
      </trkpt>
      <trkpt lat="43.4274" lon="6.05632">
        <ele>306</ele>
        <time>2017-01-04T13:38:28Z</time>
      </trkpt>
      <trkpt lat="43.42735" lon="6.05638">
        <ele>306</ele>
        <time>2017-01-04T13:38:33Z</time>
      </trkpt>
      <trkpt lat="43.42731" lon="6.05643">
        <ele>306</ele>
        <time>2017-01-04T13:38:37Z</time>
      </trkpt>
      <trkpt lat="43.42727" lon="6.05652">
        <ele>306.60000610352</ele>
        <time>2017-01-04T13:38:43Z</time>
      </trkpt>
      <trkpt lat="43.42725" lon="6.05661">
        <ele>306.79998779297</ele>
        <time>2017-01-04T13:38:48Z</time>
      </trkpt>
      <trkpt lat="43.42721" lon="6.05668">
        <ele>307.79998779297</ele>
        <time>2017-01-04T13:38:53Z</time>
      </trkpt>
      <trkpt lat="43.42715" lon="6.05674">
        <ele>308.79998779297</ele>
        <time>2017-01-04T13:38:58Z</time>
      </trkpt>
      <trkpt lat="43.42709" lon="6.0568">
        <ele>309.20001220703</ele>
        <time>2017-01-04T13:39:03Z</time>
      </trkpt>
      <trkpt lat="43.42707" lon="6.05684">
        <ele>310</ele>
        <time>2017-01-04T13:39:06Z</time>
      </trkpt>
      <trkpt lat="43.42706" lon="6.05692">
        <ele>310.60000610352</ele>
        <time>2017-01-04T13:39:11Z</time>
      </trkpt>
      <trkpt lat="43.42705" lon="6.05694">
        <ele>310.79998779297</ele>
        <time>2017-01-04T13:39:12Z</time>
      </trkpt>
      <trkpt lat="43.42705" lon="6.05695">
        <ele>310.79998779297</ele>
        <time>2017-01-04T13:39:13Z</time>
      </trkpt>
      <trkpt lat="43.42705" lon="6.05695">
        <ele>311</ele>
        <time>2017-01-04T13:39:15Z</time>
      </trkpt>
      <trkpt lat="43.42706" lon="6.0569">
        <ele>311</ele>
        <time>2017-01-04T13:39:23Z</time>
      </trkpt>
      <trkpt lat="43.42706" lon="6.05689">
        <ele>311</ele>
        <time>2017-01-04T13:39:26Z</time>
      </trkpt>
      <trkpt lat="43.42708" lon="6.05686">
        <ele>311.20001220703</ele>
        <time>2017-01-04T13:39:33Z</time>
      </trkpt>
      <trkpt lat="43.42707" lon="6.05685">
        <ele>310.79998779297</ele>
        <time>2017-01-04T13:39:42Z</time>
      </trkpt>
      <trkpt lat="43.42707" lon="6.05685">
        <ele>310.79998779297</ele>
        <time>2017-01-04T13:39:43Z</time>
      </trkpt>
      <trkpt lat="43.42707" lon="6.05685">
        <ele>310.79998779297</ele>
        <time>2017-01-04T13:39:45Z</time>
      </trkpt>
      <trkpt lat="43.42707" lon="6.05685">
        <ele>310.79998779297</ele>
        <time>2017-01-04T13:39:51Z</time>
      </trkpt>
      <trkpt lat="43.42707" lon="6.05685">
        <ele>310.79998779297</ele>
        <time>2017-01-04T13:39:53Z</time>
      </trkpt>
      <trkpt lat="43.42706" lon="6.05687">
        <ele>311</ele>
        <time>2017-01-04T13:39:58Z</time>
      </trkpt>
      <trkpt lat="43.42706" lon="6.0569">
        <ele>311</ele>
        <time>2017-01-04T13:40:00Z</time>
      </trkpt>
      <trkpt lat="43.42705" lon="6.05696">
        <ele>311.39999389648</ele>
        <time>2017-01-04T13:40:03Z</time>
      </trkpt>
      <trkpt lat="43.42705" lon="6.05696">
        <ele>311</ele>
        <time>2017-01-04T13:40:07Z</time>
      </trkpt>
      <trkpt lat="43.42705" lon="6.05697">
        <ele>311.39999389648</ele>
        <time>2017-01-04T13:40:13Z</time>
      </trkpt>
      <trkpt lat="43.42704" lon="6.05698">
        <ele>311.39999389648</ele>
        <time>2017-01-04T13:40:15Z</time>
      </trkpt>
      <trkpt lat="43.42703" lon="6.05702">
        <ele>311.39999389648</ele>
        <time>2017-01-04T13:40:17Z</time>
      </trkpt>
      <trkpt lat="43.42702" lon="6.05707">
        <ele>311.79998779297</ele>
        <time>2017-01-04T13:40:19Z</time>
      </trkpt>
      <trkpt lat="43.42701" lon="6.05712">
        <ele>312.20001220703</ele>
        <time>2017-01-04T13:40:22Z</time>
      </trkpt>
      <trkpt lat="43.42701" lon="6.05713">
        <ele>312.39999389648</ele>
        <time>2017-01-04T13:40:23Z</time>
      </trkpt>
      <trkpt lat="43.42699" lon="6.05718">
        <ele>313</ele>
        <time>2017-01-04T13:40:33Z</time>
      </trkpt>
      <trkpt lat="43.42698" lon="6.05718">
        <ele>313</ele>
        <time>2017-01-04T13:40:40Z</time>
      </trkpt>
      <trkpt lat="43.42698" lon="6.05718">
        <ele>313</ele>
        <time>2017-01-04T13:40:43Z</time>
      </trkpt>
      <trkpt lat="43.42698" lon="6.05718">
        <ele>313.39999389648</ele>
        <time>2017-01-04T13:40:53Z</time>
      </trkpt>
      <trkpt lat="43.42698" lon="6.05718">
        <ele>313</ele>
        <time>2017-01-04T13:41:03Z</time>
      </trkpt>
      <trkpt lat="43.42698" lon="6.05719">
        <ele>313</ele>
        <time>2017-01-04T13:41:05Z</time>
      </trkpt>
      <trkpt lat="43.42697" lon="6.05724">
        <ele>313.20001220703</ele>
        <time>2017-01-04T13:41:08Z</time>
      </trkpt>
      <trkpt lat="43.42701" lon="6.05732">
        <ele>314</ele>
        <time>2017-01-04T13:41:13Z</time>
      </trkpt>
      <trkpt lat="43.42706" lon="6.05734">
        <ele>314.39999389648</ele>
        <time>2017-01-04T13:41:16Z</time>
      </trkpt>
      <trkpt lat="43.42719" lon="6.05735">
        <ele>314.39999389648</ele>
        <time>2017-01-04T13:41:23Z</time>
      </trkpt>
      <trkpt lat="43.42728" lon="6.05736">
        <ele>314.39999389648</ele>
        <time>2017-01-04T13:41:29Z</time>
      </trkpt>
      <trkpt lat="43.42733" lon="6.05737">
        <ele>314.79998779297</ele>
        <time>2017-01-04T13:41:33Z</time>
      </trkpt>
      <trkpt lat="43.42733" lon="6.05737">
        <ele>315</ele>
        <time>2017-01-04T13:41:43Z</time>
      </trkpt>
      <trkpt lat="43.42733" lon="6.05737">
        <ele>315.20001220703</ele>
        <time>2017-01-04T13:41:49Z</time>
      </trkpt>
      <trkpt lat="43.42733" lon="6.05737">
        <ele>315.39999389648</ele>
        <time>2017-01-04T13:41:53Z</time>
      </trkpt>
      <trkpt lat="43.42735" lon="6.05737">
        <ele>315.20001220703</ele>
        <time>2017-01-04T13:42:03Z</time>
      </trkpt>
      <trkpt lat="43.42739" lon="6.05738">
        <ele>315.20001220703</ele>
        <time>2017-01-04T13:42:06Z</time>
      </trkpt>
      <trkpt lat="43.42751" lon="6.0574">
        <ele>315.60000610352</ele>
        <time>2017-01-04T13:42:13Z</time>
      </trkpt>
      <trkpt lat="43.42766" lon="6.05727">
        <ele>315.79998779297</ele>
        <time>2017-01-04T13:42:23Z</time>
      </trkpt>
      <trkpt lat="43.42776" lon="6.05729">
        <ele>316.39999389648</ele>
        <time>2017-01-04T13:42:29Z</time>
      </trkpt>
      <trkpt lat="43.42783" lon="6.05732">
        <ele>316.79998779297</ele>
        <time>2017-01-04T13:42:33Z</time>
      </trkpt>
      <trkpt lat="43.42788" lon="6.05733">
        <ele>316.79998779297</ele>
        <time>2017-01-04T13:42:36Z</time>
      </trkpt>
      <trkpt lat="43.42794" lon="6.05739">
        <ele>317.20001220703</ele>
        <time>2017-01-04T13:42:40Z</time>
      </trkpt>
      <trkpt lat="43.428" lon="6.0574">
        <ele>317.39999389648</ele>
        <time>2017-01-04T13:42:43Z</time>
      </trkpt>
      <trkpt lat="43.42803" lon="6.05738">
        <ele>317.39999389648</ele>
        <time>2017-01-04T13:42:45Z</time>
      </trkpt>
      <trkpt lat="43.42813" lon="6.05732">
        <ele>317.79998779297</ele>
        <time>2017-01-04T13:42:50Z</time>
      </trkpt>
      <trkpt lat="43.4282" lon="6.05732">
        <ele>317.60000610352</ele>
        <time>2017-01-04T13:42:53Z</time>
      </trkpt>
      <trkpt lat="43.42827" lon="6.05729">
        <ele>317</ele>
        <time>2017-01-04T13:42:58Z</time>
      </trkpt>
      <trkpt lat="43.4283" lon="6.0573">
        <ele>318.20001220703</ele>
        <time>2017-01-04T13:43:03Z</time>
      </trkpt>
      <trkpt lat="43.4283" lon="6.0573">
        <ele>317.60000610352</ele>
        <time>2017-01-04T13:43:13Z</time>
      </trkpt>
      <trkpt lat="43.4283" lon="6.0573">
        <ele>317.60000610352</ele>
        <time>2017-01-04T13:43:23Z</time>
      </trkpt>
      <trkpt lat="43.4283" lon="6.0573">
        <ele>317.60000610352</ele>
        <time>2017-01-04T13:43:32Z</time>
      </trkpt>
      <trkpt lat="43.4283" lon="6.0573">
        <ele>317.60000610352</ele>
        <time>2017-01-04T13:43:33Z</time>
      </trkpt>
      <trkpt lat="43.4283" lon="6.0573">
        <ele>317.39999389648</ele>
        <time>2017-01-04T13:43:43Z</time>
      </trkpt>
      <trkpt lat="43.4283" lon="6.0573">
        <ele>317.39999389648</ele>
        <time>2017-01-04T13:43:53Z</time>
      </trkpt>
      <trkpt lat="43.4283" lon="6.0573">
        <ele>317.60000610352</ele>
        <time>2017-01-04T13:44:13Z</time>
      </trkpt>
      <trkpt lat="43.42831" lon="6.0573">
        <ele>318</ele>
        <time>2017-01-04T13:44:23Z</time>
      </trkpt>
      <trkpt lat="43.42831" lon="6.0573">
        <ele>317.60000610352</ele>
        <time>2017-01-04T13:44:30Z</time>
      </trkpt>
      <trkpt lat="43.42831" lon="6.0573">
        <ele>318.20001220703</ele>
        <time>2017-01-04T13:44:53Z</time>
      </trkpt>
      <trkpt lat="43.42831" lon="6.0573">
        <ele>317.20001220703</ele>
        <time>2017-01-04T13:45:08Z</time>
      </trkpt>
      <trkpt lat="43.42831" lon="6.0573">
        <ele>317.20001220703</ele>
        <time>2017-01-04T13:45:13Z</time>
      </trkpt>
      <trkpt lat="43.42831" lon="6.05731">
        <ele>317.20001220703</ele>
        <time>2017-01-04T13:45:23Z</time>
      </trkpt>
      <trkpt lat="43.42831" lon="6.05731">
        <ele>317.20001220703</ele>
        <time>2017-01-04T13:45:33Z</time>
      </trkpt>
      <trkpt lat="43.42832" lon="6.0573">
        <ele>317.20001220703</ele>
        <time>2017-01-04T13:45:43Z</time>
      </trkpt>
      <trkpt lat="43.42836" lon="6.05726">
        <ele>317.60000610352</ele>
        <time>2017-01-04T13:45:48Z</time>
      </trkpt>
      <trkpt lat="43.42841" lon="6.05718">
        <ele>317.60000610352</ele>
        <time>2017-01-04T13:45:53Z</time>
      </trkpt>
      <trkpt lat="43.42842" lon="6.05716">
        <ele>317.60000610352</ele>
        <time>2017-01-04T13:45:54Z</time>
      </trkpt>
      <trkpt lat="43.42846" lon="6.05684">
        <ele>317.79998779297</ele>
        <time>2017-01-04T13:46:03Z</time>
      </trkpt>
      <trkpt lat="43.42849" lon="6.0565">
        <ele>317.60000610352</ele>
        <time>2017-01-04T13:46:10Z</time>
      </trkpt>
      <trkpt lat="43.42851" lon="6.05631">
        <ele>316.39999389648</ele>
        <time>2017-01-04T13:46:13Z</time>
      </trkpt>
      <trkpt lat="43.42854" lon="6.05605">
        <ele>316</ele>
        <time>2017-01-04T13:46:17Z</time>
      </trkpt>
      <trkpt lat="43.42857" lon="6.05569">
        <ele>315.79998779297</ele>
        <time>2017-01-04T13:46:23Z</time>
      </trkpt>
      <trkpt lat="43.42858" lon="6.05556">
        <ele>315</ele>
        <time>2017-01-04T13:46:25Z</time>
      </trkpt>
      <trkpt lat="43.42862" lon="6.05539">
        <ele>314.79998779297</ele>
        <time>2017-01-04T13:46:29Z</time>
      </trkpt>
      <trkpt lat="43.42866" lon="6.05538">
        <ele>315.60000610352</ele>
        <time>2017-01-04T13:46:31Z</time>
      </trkpt>
      <trkpt lat="43.42872" lon="6.05539">
        <ele>316</ele>
        <time>2017-01-04T13:46:33Z</time>
      </trkpt>
      <trkpt lat="43.42875" lon="6.05541">
        <ele>316.20001220703</ele>
        <time>2017-01-04T13:46:34Z</time>
      </trkpt>
      <trkpt lat="43.42888" lon="6.05549">
        <ele>315.39999389648</ele>
        <time>2017-01-04T13:46:41Z</time>
      </trkpt>
      <trkpt lat="43.42892" lon="6.05551">
        <ele>315</ele>
        <time>2017-01-04T13:46:43Z</time>
      </trkpt>
      <trkpt lat="43.42912" lon="6.0555">
        <ele>315.20001220703</ele>
        <time>2017-01-04T13:46:50Z</time>
      </trkpt>
      <trkpt lat="43.42917" lon="6.05545">
        <ele>314.60000610352</ele>
        <time>2017-01-04T13:46:53Z</time>
      </trkpt>
      <trkpt lat="43.42922" lon="6.05542">
        <ele>314</ele>
        <time>2017-01-04T13:46:56Z</time>
      </trkpt>
      <trkpt lat="43.42943" lon="6.05526">
        <ele>313.79998779297</ele>
        <time>2017-01-04T13:47:03Z</time>
      </trkpt>
      <trkpt lat="43.42956" lon="6.05519">
        <ele>314.60000610352</ele>
        <time>2017-01-04T13:47:07Z</time>
      </trkpt>
      <trkpt lat="43.42961" lon="6.05517">
        <ele>315.20001220703</ele>
        <time>2017-01-04T13:47:09Z</time>
      </trkpt>
      <trkpt lat="43.42966" lon="6.05515">
        <ele>315.79998779297</ele>
        <time>2017-01-04T13:47:11Z</time>
      </trkpt>
      <trkpt lat="43.4297" lon="6.05512">
        <ele>316.60000610352</ele>
        <time>2017-01-04T13:47:13Z</time>
      </trkpt>
      <trkpt lat="43.42977" lon="6.05508">
        <ele>317.60000610352</ele>
        <time>2017-01-04T13:47:17Z</time>
      </trkpt>
      <trkpt lat="43.42981" lon="6.05504">
        <ele>318.60000610352</ele>
        <time>2017-01-04T13:47:20Z</time>
      </trkpt>
      <trkpt lat="43.42983" lon="6.05503">
        <ele>319</ele>
        <time>2017-01-04T13:47:21Z</time>
      </trkpt>
      <trkpt lat="43.42986" lon="6.05501">
        <ele>319.60000610352</ele>
        <time>2017-01-04T13:47:23Z</time>
      </trkpt>
      <trkpt lat="43.42987" lon="6.05501">
        <ele>320</ele>
        <time>2017-01-04T13:47:24Z</time>
      </trkpt>
      <trkpt lat="43.42993" lon="6.05499">
        <ele>320.79998779297</ele>
        <time>2017-01-04T13:47:29Z</time>
      </trkpt>
      <trkpt lat="43.42996" lon="6.055">
        <ele>321.39999389648</ele>
        <time>2017-01-04T13:47:32Z</time>
      </trkpt>
      <trkpt lat="43.42997" lon="6.055">
        <ele>321.39999389648</ele>
        <time>2017-01-04T13:47:33Z</time>
      </trkpt>
      <trkpt lat="43.43001" lon="6.05501">
        <ele>322.20001220703</ele>
        <time>2017-01-04T13:47:37Z</time>
      </trkpt>
      <trkpt lat="43.43005" lon="6.055">
        <ele>322.79998779297</ele>
        <time>2017-01-04T13:47:43Z</time>
      </trkpt>
      <trkpt lat="43.43005" lon="6.055">
        <ele>322.79998779297</ele>
        <time>2017-01-04T13:47:46Z</time>
      </trkpt>
      <trkpt lat="43.43005" lon="6.055">
        <ele>323</ele>
        <time>2017-01-04T13:47:51Z</time>
      </trkpt>
      <trkpt lat="43.43005" lon="6.055">
        <ele>323.39999389648</ele>
        <time>2017-01-04T13:48:03Z</time>
      </trkpt>
      <trkpt lat="43.43005" lon="6.05501">
        <ele>323.60000610352</ele>
        <time>2017-01-04T13:48:11Z</time>
      </trkpt>
      <trkpt lat="43.43004" lon="6.05502">
        <ele>323.60000610352</ele>
        <time>2017-01-04T13:48:13Z</time>
      </trkpt>
      <trkpt lat="43.43004" lon="6.05502">
        <ele>323.20001220703</ele>
        <time>2017-01-04T13:48:19Z</time>
      </trkpt>
      <trkpt lat="43.43004" lon="6.05502">
        <ele>323.20001220703</ele>
        <time>2017-01-04T13:48:21Z</time>
      </trkpt>
      <trkpt lat="43.43004" lon="6.05502">
        <ele>323.20001220703</ele>
        <time>2017-01-04T13:48:23Z</time>
      </trkpt>
      <trkpt lat="43.43008" lon="6.05505">
        <ele>323.39999389648</ele>
        <time>2017-01-04T13:48:30Z</time>
      </trkpt>
      <trkpt lat="43.43013" lon="6.05512">
        <ele>322.79998779297</ele>
        <time>2017-01-04T13:48:33Z</time>
      </trkpt>
      <trkpt lat="43.43016" lon="6.05523">
        <ele>321.79998779297</ele>
        <time>2017-01-04T13:48:36Z</time>
      </trkpt>
      <trkpt lat="43.43017" lon="6.05528">
        <ele>321.60000610352</ele>
        <time>2017-01-04T13:48:37Z</time>
      </trkpt>
      <trkpt lat="43.43022" lon="6.05544">
        <ele>320.79998779297</ele>
        <time>2017-01-04T13:48:40Z</time>
      </trkpt>
      <trkpt lat="43.43025" lon="6.0556">
        <ele>320.39999389648</ele>
        <time>2017-01-04T13:48:43Z</time>
      </trkpt>
      <trkpt lat="43.43026" lon="6.05565">
        <ele>320.39999389648</ele>
        <time>2017-01-04T13:48:44Z</time>
      </trkpt>
      <trkpt lat="43.43029" lon="6.05574">
        <ele>319.79998779297</ele>
        <time>2017-01-04T13:48:46Z</time>
      </trkpt>
      <trkpt lat="43.43033" lon="6.05589">
        <ele>318.79998779297</ele>
        <time>2017-01-04T13:48:50Z</time>
      </trkpt>
      <trkpt lat="43.43033" lon="6.05592">
        <ele>318.79998779297</ele>
        <time>2017-01-04T13:48:51Z</time>
      </trkpt>
      <trkpt lat="43.43033" lon="6.05601">
        <ele>318.60000610352</ele>
        <time>2017-01-04T13:48:53Z</time>
      </trkpt>
      <trkpt lat="43.43031" lon="6.05629">
        <ele>317.20001220703</ele>
        <time>2017-01-04T13:48:58Z</time>
      </trkpt>
      <trkpt lat="43.43029" lon="6.05645">
        <ele>316.60000610352</ele>
        <time>2017-01-04T13:49:01Z</time>
      </trkpt>
      <trkpt lat="43.43028" lon="6.05659">
        <ele>316.39999389648</ele>
        <time>2017-01-04T13:49:03Z</time>
      </trkpt>
      <trkpt lat="43.43029" lon="6.05665">
        <ele>316.20001220703</ele>
        <time>2017-01-04T13:49:04Z</time>
      </trkpt>
      <trkpt lat="43.43031" lon="6.05676">
        <ele>316.20001220703</ele>
        <time>2017-01-04T13:49:06Z</time>
      </trkpt>
      <trkpt lat="43.4303" lon="6.05688">
        <ele>314.79998779297</ele>
        <time>2017-01-04T13:49:08Z</time>
      </trkpt>
      <trkpt lat="43.43028" lon="6.05693">
        <ele>314</ele>
        <time>2017-01-04T13:49:09Z</time>
      </trkpt>
      <trkpt lat="43.43026" lon="6.05698">
        <ele>313.20001220703</ele>
        <time>2017-01-04T13:49:10Z</time>
      </trkpt>
      <trkpt lat="43.43024" lon="6.05709">
        <ele>312.20001220703</ele>
        <time>2017-01-04T13:49:12Z</time>
      </trkpt>
      <trkpt lat="43.43021" lon="6.05722">
        <ele>311.20001220703</ele>
        <time>2017-01-04T13:49:14Z</time>
      </trkpt>
      <trkpt lat="43.43019" lon="6.05728">
        <ele>311</ele>
        <time>2017-01-04T13:49:15Z</time>
      </trkpt>
      <trkpt lat="43.43016" lon="6.05732">
        <ele>311</ele>
        <time>2017-01-04T13:49:16Z</time>
      </trkpt>
      <trkpt lat="43.43005" lon="6.05755">
        <ele>310</ele>
        <time>2017-01-04T13:49:21Z</time>
      </trkpt>
      <trkpt lat="43.43004" lon="6.05767">
        <ele>309.79998779297</ele>
        <time>2017-01-04T13:49:23Z</time>
      </trkpt>
      <trkpt lat="43.43002" lon="6.05775">
        <ele>309.60000610352</ele>
        <time>2017-01-04T13:49:25Z</time>
      </trkpt>
      <trkpt lat="43.43" lon="6.05784">
        <ele>309.39999389648</ele>
        <time>2017-01-04T13:49:33Z</time>
      </trkpt>
      <trkpt lat="43.43001" lon="6.05786">
        <ele>309.60000610352</ele>
        <time>2017-01-04T13:49:40Z</time>
      </trkpt>
      <trkpt lat="43.43002" lon="6.05789">
        <ele>309.60000610352</ele>
        <time>2017-01-04T13:49:42Z</time>
      </trkpt>
      <trkpt lat="43.43003" lon="6.05791">
        <ele>309.60000610352</ele>
        <time>2017-01-04T13:49:43Z</time>
      </trkpt>
      <trkpt lat="43.43005" lon="6.05802">
        <ele>308.79998779297</ele>
        <time>2017-01-04T13:49:46Z</time>
      </trkpt>
      <trkpt lat="43.43005" lon="6.05811">
        <ele>307.20001220703</ele>
        <time>2017-01-04T13:49:48Z</time>
      </trkpt>
      <trkpt lat="43.43004" lon="6.05825">
        <ele>306</ele>
        <time>2017-01-04T13:49:51Z</time>
      </trkpt>
      <trkpt lat="43.43005" lon="6.05836">
        <ele>304.60000610352</ele>
        <time>2017-01-04T13:49:53Z</time>
      </trkpt>
      <trkpt lat="43.43007" lon="6.05844">
        <ele>303</ele>
        <time>2017-01-04T13:49:55Z</time>
      </trkpt>
      <trkpt lat="43.43014" lon="6.05852">
        <ele>301.39999389648</ele>
        <time>2017-01-04T13:49:58Z</time>
      </trkpt>
      <trkpt lat="43.43021" lon="6.05855">
        <ele>300.20001220703</ele>
        <time>2017-01-04T13:50:00Z</time>
      </trkpt>
      <trkpt lat="43.43028" lon="6.05857">
        <ele>299</ele>
        <time>2017-01-04T13:50:02Z</time>
      </trkpt>
      <trkpt lat="43.43032" lon="6.05858">
        <ele>298</ele>
        <time>2017-01-04T13:50:03Z</time>
      </trkpt>
      <trkpt lat="43.43037" lon="6.05857">
        <ele>296.79998779297</ele>
        <time>2017-01-04T13:50:04Z</time>
      </trkpt>
      <trkpt lat="43.43044" lon="6.05854">
        <ele>295.79998779297</ele>
        <time>2017-01-04T13:50:06Z</time>
      </trkpt>
      <trkpt lat="43.4305" lon="6.05851">
        <ele>294.20001220703</ele>
        <time>2017-01-04T13:50:08Z</time>
      </trkpt>
      <trkpt lat="43.43059" lon="6.05848">
        <ele>292.79998779297</ele>
        <time>2017-01-04T13:50:10Z</time>
      </trkpt>
      <trkpt lat="43.43064" lon="6.05847">
        <ele>291.60000610352</ele>
        <time>2017-01-04T13:50:11Z</time>
      </trkpt>
      <trkpt lat="43.43068" lon="6.05846">
        <ele>290.20001220703</ele>
        <time>2017-01-04T13:50:12Z</time>
      </trkpt>
      <trkpt lat="43.43072" lon="6.05846">
        <ele>288.39999389648</ele>
        <time>2017-01-04T13:50:13Z</time>
      </trkpt>
      <trkpt lat="43.43074" lon="6.05846">
        <ele>287</ele>
        <time>2017-01-04T13:50:14Z</time>
      </trkpt>
      <trkpt lat="43.43079" lon="6.05845">
        <ele>285.60000610352</ele>
        <time>2017-01-04T13:50:16Z</time>
      </trkpt>
      <trkpt lat="43.43089" lon="6.05843">
        <ele>284.20001220703</ele>
        <time>2017-01-04T13:50:19Z</time>
      </trkpt>
      <trkpt lat="43.43097" lon="6.0584">
        <ele>283.39999389648</ele>
        <time>2017-01-04T13:50:23Z</time>
      </trkpt>
      <trkpt lat="43.431" lon="6.05841">
        <ele>283</ele>
        <time>2017-01-04T13:50:24Z</time>
      </trkpt>
      <trkpt lat="43.43105" lon="6.0584">
        <ele>281.79998779297</ele>
        <time>2017-01-04T13:50:26Z</time>
      </trkpt>
      <trkpt lat="43.43111" lon="6.0584">
        <ele>280.79998779297</ele>
        <time>2017-01-04T13:50:28Z</time>
      </trkpt>
      <trkpt lat="43.43119" lon="6.0584">
        <ele>279.39999389648</ele>
        <time>2017-01-04T13:50:30Z</time>
      </trkpt>
      <trkpt lat="43.43128" lon="6.0584">
        <ele>277.39999389648</ele>
        <time>2017-01-04T13:50:32Z</time>
      </trkpt>
      <trkpt lat="43.43133" lon="6.0584">
        <ele>276.39999389648</ele>
        <time>2017-01-04T13:50:33Z</time>
      </trkpt>
      <trkpt lat="43.43141" lon="6.05838">
        <ele>275.20001220703</ele>
        <time>2017-01-04T13:50:35Z</time>
      </trkpt>
      <trkpt lat="43.43148" lon="6.05837">
        <ele>274</ele>
        <time>2017-01-04T13:50:37Z</time>
      </trkpt>
      <trkpt lat="43.43157" lon="6.05833">
        <ele>272.60000610352</ele>
        <time>2017-01-04T13:50:39Z</time>
      </trkpt>
      <trkpt lat="43.43166" lon="6.05831">
        <ele>271.60000610352</ele>
        <time>2017-01-04T13:50:41Z</time>
      </trkpt>
      <trkpt lat="43.43177" lon="6.05826">
        <ele>270.20001220703</ele>
        <time>2017-01-04T13:50:43Z</time>
      </trkpt>
      <trkpt lat="43.43182" lon="6.05817">
        <ele>269.60000610352</ele>
        <time>2017-01-04T13:50:45Z</time>
      </trkpt>
      <trkpt lat="43.43182" lon="6.05814">
        <ele>268.79998779297</ele>
        <time>2017-01-04T13:50:47Z</time>
      </trkpt>
      <trkpt lat="43.43181" lon="6.05814">
        <ele>267.79998779297</ele>
        <time>2017-01-04T13:50:53Z</time>
      </trkpt>
      <trkpt lat="43.43181" lon="6.05814">
        <ele>267.79998779297</ele>
        <time>2017-01-04T13:50:54Z</time>
      </trkpt>
      <trkpt lat="43.43181" lon="6.05814">
        <ele>267.39999389648</ele>
        <time>2017-01-04T13:51:13Z</time>
      </trkpt>
      <trkpt lat="43.43182" lon="6.05814">
        <ele>268</ele>
        <time>2017-01-04T13:51:23Z</time>
      </trkpt>
      <trkpt lat="43.43182" lon="6.05814">
        <ele>267.79998779297</ele>
        <time>2017-01-04T13:51:43Z</time>
      </trkpt>
      <trkpt lat="43.43182" lon="6.05814">
        <ele>267.60000610352</ele>
        <time>2017-01-04T13:51:49Z</time>
      </trkpt>
      <trkpt lat="43.43182" lon="6.05813">
        <ele>267.60000610352</ele>
        <time>2017-01-04T13:52:17Z</time>
      </trkpt>
      <trkpt lat="43.43182" lon="6.05812">
        <ele>267.60000610352</ele>
        <time>2017-01-04T13:52:33Z</time>
      </trkpt>
      <trkpt lat="43.43182" lon="6.05811">
        <ele>267.60000610352</ele>
        <time>2017-01-04T13:52:53Z</time>
      </trkpt>
      <trkpt lat="43.43182" lon="6.05812">
        <ele>267.60000610352</ele>
        <time>2017-01-04T13:53:33Z</time>
      </trkpt>
      <trkpt lat="43.43181" lon="6.05813">
        <ele>267.60000610352</ele>
        <time>2017-01-04T13:53:43Z</time>
      </trkpt>
      <trkpt lat="43.4318" lon="6.05819">
        <ele>267.60000610352</ele>
        <time>2017-01-04T13:53:48Z</time>
      </trkpt>
      <trkpt lat="43.43177" lon="6.05824">
        <ele>267.60000610352</ele>
        <time>2017-01-04T13:53:53Z</time>
      </trkpt>
      <trkpt lat="43.43176" lon="6.05824">
        <ele>267.60000610352</ele>
        <time>2017-01-04T13:53:55Z</time>
      </trkpt>
      <trkpt lat="43.43176" lon="6.05825">
        <ele>267.79998779297</ele>
        <time>2017-01-04T13:54:03Z</time>
      </trkpt>
      <trkpt lat="43.43175" lon="6.05826">
        <ele>267.79998779297</ele>
        <time>2017-01-04T13:54:06Z</time>
      </trkpt>
      <trkpt lat="43.43176" lon="6.05826">
        <ele>267.79998779297</ele>
        <time>2017-01-04T13:54:13Z</time>
      </trkpt>
      <trkpt lat="43.43177" lon="6.05827">
        <ele>268</ele>
        <time>2017-01-04T13:54:23Z</time>
      </trkpt>
      <trkpt lat="43.4318" lon="6.05822">
        <ele>267.60000610352</ele>
        <time>2017-01-04T13:54:33Z</time>
      </trkpt>
      <trkpt lat="43.43181" lon="6.0582">
        <ele>267.60000610352</ele>
        <time>2017-01-04T13:54:34Z</time>
      </trkpt>
      <trkpt lat="43.43182" lon="6.05815">
        <ele>267.39999389648</ele>
        <time>2017-01-04T13:54:42Z</time>
      </trkpt>
      <trkpt lat="43.43182" lon="6.05815">
        <ele>267.39999389648</ele>
        <time>2017-01-04T13:54:43Z</time>
      </trkpt>
      <trkpt lat="43.43182" lon="6.05815">
        <ele>267.79998779297</ele>
        <time>2017-01-04T13:54:51Z</time>
      </trkpt>
      <trkpt lat="43.43182" lon="6.05815">
        <ele>268</ele>
        <time>2017-01-04T13:55:33Z</time>
      </trkpt>
      <trkpt lat="43.43182" lon="6.05815">
        <ele>267.60000610352</ele>
        <time>2017-01-04T13:55:43Z</time>
      </trkpt>
      <trkpt lat="43.43183" lon="6.05813">
        <ele>267.60000610352</ele>
        <time>2017-01-04T13:55:48Z</time>
      </trkpt>
      <trkpt lat="43.43185" lon="6.05809">
        <ele>267.39999389648</ele>
        <time>2017-01-04T13:55:51Z</time>
      </trkpt>
      <trkpt lat="43.43187" lon="6.05803">
        <ele>267</ele>
        <time>2017-01-04T13:55:53Z</time>
      </trkpt>
      <trkpt lat="43.43194" lon="6.05789">
        <ele>267.20001220703</ele>
        <time>2017-01-04T13:55:58Z</time>
      </trkpt>
      <trkpt lat="43.432" lon="6.05779">
        <ele>266.60000610352</ele>
        <time>2017-01-04T13:56:01Z</time>
      </trkpt>
      <trkpt lat="43.43205" lon="6.05772">
        <ele>266.39999389648</ele>
        <time>2017-01-04T13:56:03Z</time>
      </trkpt>
      <trkpt lat="43.43213" lon="6.0574">
        <ele>265.60000610352</ele>
        <time>2017-01-04T13:56:10Z</time>
      </trkpt>
      <trkpt lat="43.43214" lon="6.05736">
        <ele>265.60000610352</ele>
        <time>2017-01-04T13:56:11Z</time>
      </trkpt>
      <trkpt lat="43.43214" lon="6.05727">
        <ele>265.60000610352</ele>
        <time>2017-01-04T13:56:13Z</time>
      </trkpt>
      <trkpt lat="43.43216" lon="6.05703">
        <ele>265.20001220703</ele>
        <time>2017-01-04T13:56:18Z</time>
      </trkpt>
      <trkpt lat="43.43218" lon="6.05673">
        <ele>265</ele>
        <time>2017-01-04T13:56:23Z</time>
      </trkpt>
      <trkpt lat="43.43219" lon="6.05643">
        <ele>264.60000610352</ele>
        <time>2017-01-04T13:56:27Z</time>
      </trkpt>
      <trkpt lat="43.43222" lon="6.05619">
        <ele>264.20001220703</ele>
        <time>2017-01-04T13:56:30Z</time>
      </trkpt>
      <trkpt lat="43.43225" lon="6.05592">
        <ele>263.60000610352</ele>
        <time>2017-01-04T13:56:33Z</time>
      </trkpt>
      <trkpt lat="43.43226" lon="6.05583">
        <ele>263.60000610352</ele>
        <time>2017-01-04T13:56:34Z</time>
      </trkpt>
      <trkpt lat="43.4323" lon="6.05557">
        <ele>263.20001220703</ele>
        <time>2017-01-04T13:56:37Z</time>
      </trkpt>
      <trkpt lat="43.43238" lon="6.05525">
        <ele>262</ele>
        <time>2017-01-04T13:56:41Z</time>
      </trkpt>
      <trkpt lat="43.43242" lon="6.0551">
        <ele>261.39999389648</ele>
        <time>2017-01-04T13:56:43Z</time>
      </trkpt>
      <trkpt lat="43.43245" lon="6.05504">
        <ele>261</ele>
        <time>2017-01-04T13:56:44Z</time>
      </trkpt>
      <trkpt lat="43.43256" lon="6.05465">
        <ele>260.20001220703</ele>
        <time>2017-01-04T13:56:50Z</time>
      </trkpt>
      <trkpt lat="43.43265" lon="6.05443">
        <ele>260.20001220703</ele>
        <time>2017-01-04T13:56:53Z</time>
      </trkpt>
      <trkpt lat="43.43269" lon="6.05435">
        <ele>259.79998779297</ele>
        <time>2017-01-04T13:56:54Z</time>
      </trkpt>
      <trkpt lat="43.43274" lon="6.0542">
        <ele>258.60000610352</ele>
        <time>2017-01-04T13:56:56Z</time>
      </trkpt>
      <trkpt lat="43.4328" lon="6.05405">
        <ele>257.39999389648</ele>
        <time>2017-01-04T13:56:58Z</time>
      </trkpt>
      <trkpt lat="43.43289" lon="6.05385">
        <ele>256.20001220703</ele>
        <time>2017-01-04T13:57:01Z</time>
      </trkpt>
      <trkpt lat="43.43295" lon="6.05372">
        <ele>256.20001220703</ele>
        <time>2017-01-04T13:57:03Z</time>
      </trkpt>
      <trkpt lat="43.43303" lon="6.05353">
        <ele>257.20001220703</ele>
        <time>2017-01-04T13:57:06Z</time>
      </trkpt>
      <trkpt lat="43.43307" lon="6.05342">
        <ele>257.20001220703</ele>
        <time>2017-01-04T13:57:08Z</time>
      </trkpt>
      <trkpt lat="43.43321" lon="6.05311">
        <ele>257</ele>
        <time>2017-01-04T13:57:13Z</time>
      </trkpt>
      <trkpt lat="43.43342" lon="6.05252">
        <ele>256.39999389648</ele>
        <time>2017-01-04T13:57:21Z</time>
      </trkpt>
      <trkpt lat="43.43345" lon="6.05245">
        <ele>256.20001220703</ele>
        <time>2017-01-04T13:57:22Z</time>
      </trkpt>
      <trkpt lat="43.4335" lon="6.05231">
        <ele>256</ele>
        <time>2017-01-04T13:57:24Z</time>
      </trkpt>
      <trkpt lat="43.43371" lon="6.05177">
        <ele>256.60000610352</ele>
        <time>2017-01-04T13:57:34Z</time>
      </trkpt>
      <trkpt lat="43.43372" lon="6.05157">
        <ele>257.20001220703</ele>
        <time>2017-01-04T13:57:41Z</time>
      </trkpt>
      <trkpt lat="43.4337" lon="6.05153">
        <ele>258.20001220703</ele>
        <time>2017-01-04T13:57:43Z</time>
      </trkpt>
      <trkpt lat="43.43369" lon="6.0515">
        <ele>258.60000610352</ele>
        <time>2017-01-04T13:57:44Z</time>
      </trkpt>
      <trkpt lat="43.43357" lon="6.05139">
        <ele>259.20001220703</ele>
        <time>2017-01-04T13:57:51Z</time>
      </trkpt>
      <trkpt lat="43.43352" lon="6.05137">
        <ele>259.60000610352</ele>
        <time>2017-01-04T13:57:54Z</time>
      </trkpt>
      <trkpt lat="43.43336" lon="6.05127">
        <ele>260.39999389648</ele>
        <time>2017-01-04T13:58:03Z</time>
      </trkpt>
      <trkpt lat="43.43334" lon="6.05125">
        <ele>260.60000610352</ele>
        <time>2017-01-04T13:58:04Z</time>
      </trkpt>
      <trkpt lat="43.43324" lon="6.05116">
        <ele>261.39999389648</ele>
        <time>2017-01-04T13:58:11Z</time>
      </trkpt>
      <trkpt lat="43.43319" lon="6.0511">
        <ele>261.79998779297</ele>
        <time>2017-01-04T13:58:14Z</time>
      </trkpt>
      <trkpt lat="43.43307" lon="6.05096">
        <ele>262.60000610352</ele>
        <time>2017-01-04T13:58:21Z</time>
      </trkpt>
      <trkpt lat="43.43303" lon="6.05092">
        <ele>262.79998779297</ele>
        <time>2017-01-04T13:58:24Z</time>
      </trkpt>
      <trkpt lat="43.43298" lon="6.05089">
        <ele>263.60000610352</ele>
        <time>2017-01-04T13:58:27Z</time>
      </trkpt>
      <trkpt lat="43.43286" lon="6.0508">
        <ele>264.39999389648</ele>
        <time>2017-01-04T13:58:34Z</time>
      </trkpt>
      <trkpt lat="43.43283" lon="6.05079">
        <ele>264.79998779297</ele>
        <time>2017-01-04T13:58:36Z</time>
      </trkpt>
      <trkpt lat="43.43259" lon="6.05076">
        <ele>265.79998779297</ele>
        <time>2017-01-04T13:58:48Z</time>
      </trkpt>
      <trkpt lat="43.43249" lon="6.05075">
        <ele>267</ele>
        <time>2017-01-04T13:58:53Z</time>
      </trkpt>
      <trkpt lat="43.43247" lon="6.05075">
        <ele>267</ele>
        <time>2017-01-04T13:58:54Z</time>
      </trkpt>
      <trkpt lat="43.4323" lon="6.05076">
        <ele>268</ele>
        <time>2017-01-04T13:59:02Z</time>
      </trkpt>
      <trkpt lat="43.43227" lon="6.05077">
        <ele>268.60000610352</ele>
        <time>2017-01-04T13:59:04Z</time>
      </trkpt>
      <trkpt lat="43.43221" lon="6.05078">
        <ele>269</ele>
        <time>2017-01-04T13:59:07Z</time>
      </trkpt>
      <trkpt lat="43.43206" lon="6.05076">
        <ele>269.79998779297</ele>
        <time>2017-01-04T13:59:14Z</time>
      </trkpt>
      <trkpt lat="43.43191" lon="6.05072">
        <ele>270</ele>
        <time>2017-01-04T13:59:22Z</time>
      </trkpt>
      <trkpt lat="43.43176" lon="6.05067">
        <ele>271.20001220703</ele>
        <time>2017-01-04T13:59:30Z</time>
      </trkpt>
      <trkpt lat="43.43164" lon="6.05063">
        <ele>273.39999389648</ele>
        <time>2017-01-04T13:59:37Z</time>
      </trkpt>
      <trkpt lat="43.43145" lon="6.05047">
        <ele>274.39999389648</ele>
        <time>2017-01-04T13:59:48Z</time>
      </trkpt>
      <trkpt lat="43.43141" lon="6.05043">
        <ele>275.60000610352</ele>
        <time>2017-01-04T13:59:51Z</time>
      </trkpt>
      <trkpt lat="43.43136" lon="6.05036">
        <ele>276.39999389648</ele>
        <time>2017-01-04T13:59:54Z</time>
      </trkpt>
      <trkpt lat="43.43134" lon="6.05032">
        <ele>276.60000610352</ele>
        <time>2017-01-04T13:59:56Z</time>
      </trkpt>
      <trkpt lat="43.43127" lon="6.05021">
        <ele>277.39999389648</ele>
        <time>2017-01-04T14:00:02Z</time>
      </trkpt>
      <trkpt lat="43.43124" lon="6.05018">
        <ele>277.60000610352</ele>
        <time>2017-01-04T14:00:04Z</time>
      </trkpt>
      <trkpt lat="43.43121" lon="6.05015">
        <ele>277.60000610352</ele>
        <time>2017-01-04T14:00:06Z</time>
      </trkpt>
      <trkpt lat="43.43109" lon="6.05005">
        <ele>278</ele>
        <time>2017-01-04T14:00:14Z</time>
      </trkpt>
      <trkpt lat="43.43102" lon="6.04992">
        <ele>278.60000610352</ele>
        <time>2017-01-04T14:00:20Z</time>
      </trkpt>
      <trkpt lat="43.43098" lon="6.04984">
        <ele>279</ele>
        <time>2017-01-04T14:00:24Z</time>
      </trkpt>
      <trkpt lat="43.43093" lon="6.04972">
        <ele>279.79998779297</ele>
        <time>2017-01-04T14:00:30Z</time>
      </trkpt>
      <trkpt lat="43.43089" lon="6.04963">
        <ele>280.60000610352</ele>
        <time>2017-01-04T14:00:34Z</time>
      </trkpt>
      <trkpt lat="43.43082" lon="6.0495">
        <ele>280.79998779297</ele>
        <time>2017-01-04T14:00:40Z</time>
      </trkpt>
      <trkpt lat="43.43072" lon="6.04936">
        <ele>282</ele>
        <time>2017-01-04T14:00:47Z</time>
      </trkpt>
      <trkpt lat="43.43065" lon="6.04927">
        <ele>283</ele>
        <time>2017-01-04T14:00:52Z</time>
      </trkpt>
      <trkpt lat="43.43063" lon="6.04924">
        <ele>283.39999389648</ele>
        <time>2017-01-04T14:00:54Z</time>
      </trkpt>
      <trkpt lat="43.43058" lon="6.04917">
        <ele>284.20001220703</ele>
        <time>2017-01-04T14:00:58Z</time>
      </trkpt>
      <trkpt lat="43.43053" lon="6.04907">
        <ele>284.79998779297</ele>
        <time>2017-01-04T14:01:04Z</time>
      </trkpt>
      <trkpt lat="43.43049" lon="6.04896">
        <ele>285.20001220703</ele>
        <time>2017-01-04T14:01:09Z</time>
      </trkpt>
      <trkpt lat="43.43045" lon="6.04888">
        <ele>285.79998779297</ele>
        <time>2017-01-04T14:01:14Z</time>
      </trkpt>
      <trkpt lat="43.4304" lon="6.04882">
        <ele>286.39999389648</ele>
        <time>2017-01-04T14:01:17Z</time>
      </trkpt>
      <trkpt lat="43.43032" lon="6.04871">
        <ele>287.39999389648</ele>
        <time>2017-01-04T14:01:24Z</time>
      </trkpt>
      <trkpt lat="43.43029" lon="6.04864">
        <ele>288.20001220703</ele>
        <time>2017-01-04T14:01:28Z</time>
      </trkpt>
      <trkpt lat="43.43025" lon="6.04852">
        <ele>289.20001220703</ele>
        <time>2017-01-04T14:01:34Z</time>
      </trkpt>
      <trkpt lat="43.43024" lon="6.04848">
        <ele>289.39999389648</ele>
        <time>2017-01-04T14:01:36Z</time>
      </trkpt>
      <trkpt lat="43.43023" lon="6.04831">
        <ele>289.60000610352</ele>
        <time>2017-01-04T14:01:44Z</time>
      </trkpt>
      <trkpt lat="43.43024" lon="6.04818">
        <ele>290.60000610352</ele>
        <time>2017-01-04T14:01:50Z</time>
      </trkpt>
      <trkpt lat="43.43025" lon="6.04809">
        <ele>290.79998779297</ele>
        <time>2017-01-04T14:01:54Z</time>
      </trkpt>
      <trkpt lat="43.43026" lon="6.04794">
        <ele>291.60000610352</ele>
        <time>2017-01-04T14:02:00Z</time>
      </trkpt>
      <trkpt lat="43.43026" lon="6.04786">
        <ele>292.20001220703</ele>
        <time>2017-01-04T14:02:04Z</time>
      </trkpt>
      <trkpt lat="43.43027" lon="6.04777">
        <ele>292.60000610352</ele>
        <time>2017-01-04T14:02:08Z</time>
      </trkpt>
      <trkpt lat="43.43031" lon="6.04761">
        <ele>293</ele>
        <time>2017-01-04T14:02:14Z</time>
      </trkpt>
      <trkpt lat="43.43038" lon="6.04747">
        <ele>293.79998779297</ele>
        <time>2017-01-04T14:02:20Z</time>
      </trkpt>
      <trkpt lat="43.43044" lon="6.04737">
        <ele>294.79998779297</ele>
        <time>2017-01-04T14:02:25Z</time>
      </trkpt>
      <trkpt lat="43.43056" lon="6.04712">
        <ele>296</ele>
        <time>2017-01-04T14:02:36Z</time>
      </trkpt>
      <trkpt lat="43.43059" lon="6.047">
        <ele>297.20001220703</ele>
        <time>2017-01-04T14:02:41Z</time>
      </trkpt>
      <trkpt lat="43.43058" lon="6.04693">
        <ele>298</ele>
        <time>2017-01-04T14:02:44Z</time>
      </trkpt>
      <trkpt lat="43.43055" lon="6.04681">
        <ele>298.20001220703</ele>
        <time>2017-01-04T14:02:48Z</time>
      </trkpt>
      <trkpt lat="43.43054" lon="6.04664">
        <ele>298.39999389648</ele>
        <time>2017-01-04T14:02:54Z</time>
      </trkpt>
      <trkpt lat="43.43054" lon="6.04655">
        <ele>298.39999389648</ele>
        <time>2017-01-04T14:02:57Z</time>
      </trkpt>
      <trkpt lat="43.43049" lon="6.04632">
        <ele>298.79998779297</ele>
        <time>2017-01-04T14:03:04Z</time>
      </trkpt>
      <trkpt lat="43.43046" lon="6.04617">
        <ele>299.39999389648</ele>
        <time>2017-01-04T14:03:09Z</time>
      </trkpt>
      <trkpt lat="43.43044" lon="6.04601">
        <ele>299.39999389648</ele>
        <time>2017-01-04T14:03:14Z</time>
      </trkpt>
      <trkpt lat="43.43045" lon="6.04572">
        <ele>300.39999389648</ele>
        <time>2017-01-04T14:03:24Z</time>
      </trkpt>
      <trkpt lat="43.43052" lon="6.04542">
        <ele>301</ele>
        <time>2017-01-04T14:03:34Z</time>
      </trkpt>
      <trkpt lat="43.43058" lon="6.04509">
        <ele>302.39999389648</ele>
        <time>2017-01-04T14:03:44Z</time>
      </trkpt>
      <trkpt lat="43.43059" lon="6.04502">
        <ele>302.79998779297</ele>
        <time>2017-01-04T14:03:46Z</time>
      </trkpt>
      <trkpt lat="43.43066" lon="6.04472">
        <ele>303.79998779297</ele>
        <time>2017-01-04T14:03:55Z</time>
      </trkpt>
      <trkpt lat="43.43071" lon="6.04442">
        <ele>304.20001220703</ele>
        <time>2017-01-04T14:04:04Z</time>
      </trkpt>
      <trkpt lat="43.43074" lon="6.04436">
        <ele>305</ele>
        <time>2017-01-04T14:04:06Z</time>
      </trkpt>
      <trkpt lat="43.43078" lon="6.04422">
        <ele>305.79998779297</ele>
        <time>2017-01-04T14:04:11Z</time>
      </trkpt>
      <trkpt lat="43.43079" lon="6.04413">
        <ele>305.79998779297</ele>
        <time>2017-01-04T14:04:14Z</time>
      </trkpt>
      <trkpt lat="43.4308" lon="6.0441">
        <ele>306</ele>
        <time>2017-01-04T14:04:15Z</time>
      </trkpt>
      <trkpt lat="43.43084" lon="6.04398">
        <ele>306.39999389648</ele>
        <time>2017-01-04T14:04:19Z</time>
      </trkpt>
      <trkpt lat="43.4309" lon="6.04385">
        <ele>306.60000610352</ele>
        <time>2017-01-04T14:04:24Z</time>
      </trkpt>
      <trkpt lat="43.43094" lon="6.04379">
        <ele>307</ele>
        <time>2017-01-04T14:04:27Z</time>
      </trkpt>
      <trkpt lat="43.431" lon="6.04364">
        <ele>308.20001220703</ele>
        <time>2017-01-04T14:04:33Z</time>
      </trkpt>
      <trkpt lat="43.431" lon="6.04361">
        <ele>308.39999389648</ele>
        <time>2017-01-04T14:04:34Z</time>
      </trkpt>
      <trkpt lat="43.43102" lon="6.04344">
        <ele>309.20001220703</ele>
        <time>2017-01-04T14:04:40Z</time>
      </trkpt>
      <trkpt lat="43.43102" lon="6.04333">
        <ele>309.79998779297</ele>
        <time>2017-01-04T14:04:44Z</time>
      </trkpt>
      <trkpt lat="43.43102" lon="6.04321">
        <ele>310.20001220703</ele>
        <time>2017-01-04T14:04:48Z</time>
      </trkpt>
      <trkpt lat="43.43101" lon="6.04307">
        <ele>310.79998779297</ele>
        <time>2017-01-04T14:04:54Z</time>
      </trkpt>
      <trkpt lat="43.43097" lon="6.04274">
        <ele>311.60000610352</ele>
        <time>2017-01-04T14:05:05Z</time>
      </trkpt>
      <trkpt lat="43.4309" lon="6.04244">
        <ele>311.39999389648</ele>
        <time>2017-01-04T14:05:14Z</time>
      </trkpt>
      <trkpt lat="43.43077" lon="6.04214">
        <ele>312</ele>
        <time>2017-01-04T14:05:24Z</time>
      </trkpt>
      <trkpt lat="43.43073" lon="6.04205">
        <ele>312.79998779297</ele>
        <time>2017-01-04T14:05:27Z</time>
      </trkpt>
      <trkpt lat="43.43075" lon="6.04182">
        <ele>313.20001220703</ele>
        <time>2017-01-04T14:05:34Z</time>
      </trkpt>
      <trkpt lat="43.43074" lon="6.0415">
        <ele>313.79998779297</ele>
        <time>2017-01-04T14:05:44Z</time>
      </trkpt>
      <trkpt lat="43.4308" lon="6.04117">
        <ele>314</ele>
        <time>2017-01-04T14:05:54Z</time>
      </trkpt>
      <trkpt lat="43.43081" lon="6.04081">
        <ele>314.60000610352</ele>
        <time>2017-01-04T14:06:04Z</time>
      </trkpt>
      <trkpt lat="43.43079" lon="6.0406">
        <ele>315.20001220703</ele>
        <time>2017-01-04T14:06:12Z</time>
      </trkpt>
      <trkpt lat="43.43079" lon="6.04058">
        <ele>315.60000610352</ele>
        <time>2017-01-04T14:06:13Z</time>
      </trkpt>
      <trkpt lat="43.43079" lon="6.04057">
        <ele>315.79998779297</ele>
        <time>2017-01-04T14:06:14Z</time>
      </trkpt>
      <trkpt lat="43.43079" lon="6.04056">
        <ele>316.20001220703</ele>
        <time>2017-01-04T14:06:16Z</time>
      </trkpt>
      <trkpt lat="43.43079" lon="6.04057">
        <ele>316.60000610352</ele>
        <time>2017-01-04T14:06:19Z</time>
      </trkpt>
      <trkpt lat="43.4308" lon="6.04057">
        <ele>316.60000610352</ele>
        <time>2017-01-04T14:06:24Z</time>
      </trkpt>
      <trkpt lat="43.4308" lon="6.04057">
        <ele>316.60000610352</ele>
        <time>2017-01-04T14:06:28Z</time>
      </trkpt>
      <trkpt lat="43.43081" lon="6.04058">
        <ele>316.39999389648</ele>
        <time>2017-01-04T14:06:34Z</time>
      </trkpt>
      <trkpt lat="43.43081" lon="6.04059">
        <ele>316.60000610352</ele>
        <time>2017-01-04T14:06:40Z</time>
      </trkpt>
      <trkpt lat="43.43082" lon="6.0406">
        <ele>317.20001220703</ele>
        <time>2017-01-04T14:06:44Z</time>
      </trkpt>
      <trkpt lat="43.43082" lon="6.04059">
        <ele>316.79998779297</ele>
        <time>2017-01-04T14:07:01Z</time>
      </trkpt>
      <trkpt lat="43.43082" lon="6.04059">
        <ele>316.79998779297</ele>
        <time>2017-01-04T14:07:04Z</time>
      </trkpt>
      <trkpt lat="43.43087" lon="6.04061">
        <ele>316.60000610352</ele>
        <time>2017-01-04T14:07:14Z</time>
      </trkpt>
      <trkpt lat="43.43088" lon="6.04062">
        <ele>316.39999389648</ele>
        <time>2017-01-04T14:07:24Z</time>
      </trkpt>
      <trkpt lat="43.43088" lon="6.04062">
        <ele>316.60000610352</ele>
        <time>2017-01-04T14:07:31Z</time>
      </trkpt>
      <trkpt lat="43.43086" lon="6.04064">
        <ele>315.79998779297</ele>
        <time>2017-01-04T14:07:44Z</time>
      </trkpt>
      <trkpt lat="43.43086" lon="6.04063">
        <ele>316.20001220703</ele>
        <time>2017-01-04T14:07:52Z</time>
      </trkpt>
      <trkpt lat="43.43089" lon="6.04062">
        <ele>316.20001220703</ele>
        <time>2017-01-04T14:07:54Z</time>
      </trkpt>
      <trkpt lat="43.4309" lon="6.04062">
        <ele>316.20001220703</ele>
        <time>2017-01-04T14:07:55Z</time>
      </trkpt>
      <trkpt lat="43.43095" lon="6.04063">
        <ele>316</ele>
        <time>2017-01-04T14:07:58Z</time>
      </trkpt>
      <trkpt lat="43.43105" lon="6.04065">
        <ele>316.20001220703</ele>
        <time>2017-01-04T14:08:03Z</time>
      </trkpt>
      <trkpt lat="43.43106" lon="6.04065">
        <ele>316.60000610352</ele>
        <time>2017-01-04T14:08:04Z</time>
      </trkpt>
      <trkpt lat="43.4311" lon="6.04065">
        <ele>317.39999389648</ele>
        <time>2017-01-04T14:08:06Z</time>
      </trkpt>
      <trkpt lat="43.43112" lon="6.04065">
        <ele>318.39999389648</ele>
        <time>2017-01-04T14:08:08Z</time>
      </trkpt>
      <trkpt lat="43.43121" lon="6.04067">
        <ele>320.60000610352</ele>
        <time>2017-01-04T14:08:15Z</time>
      </trkpt>
      <trkpt lat="43.43124" lon="6.04067">
        <ele>321.20001220703</ele>
        <time>2017-01-04T14:08:17Z</time>
      </trkpt>
      <trkpt lat="43.43125" lon="6.04067">
        <ele>321.60000610352</ele>
        <time>2017-01-04T14:08:18Z</time>
      </trkpt>
      <trkpt lat="43.43129" lon="6.04066">
        <ele>322.79998779297</ele>
        <time>2017-01-04T14:08:21Z</time>
      </trkpt>
      <trkpt lat="43.43132" lon="6.04064">
        <ele>323.60000610352</ele>
        <time>2017-01-04T14:08:24Z</time>
      </trkpt>
      <trkpt lat="43.43133" lon="6.04063">
        <ele>323.79998779297</ele>
        <time>2017-01-04T14:08:25Z</time>
      </trkpt>
      <trkpt lat="43.43134" lon="6.04063">
        <ele>324.20001220703</ele>
        <time>2017-01-04T14:08:34Z</time>
      </trkpt>
      <trkpt lat="43.43134" lon="6.04064">
        <ele>323.79998779297</ele>
        <time>2017-01-04T14:08:40Z</time>
      </trkpt>
      <trkpt lat="43.43134" lon="6.04064">
        <ele>324</ele>
        <time>2017-01-04T14:08:44Z</time>
      </trkpt>
      <trkpt lat="43.43132" lon="6.04064">
        <ele>324.20001220703</ele>
        <time>2017-01-04T14:08:54Z</time>
      </trkpt>
      <trkpt lat="43.43132" lon="6.04063">
        <ele>325</ele>
        <time>2017-01-04T14:08:58Z</time>
      </trkpt>
      <trkpt lat="43.43132" lon="6.04062">
        <ele>325.20001220703</ele>
        <time>2017-01-04T14:09:04Z</time>
      </trkpt>
      <trkpt lat="43.4313" lon="6.04063">
        <ele>324.20001220703</ele>
        <time>2017-01-04T14:09:09Z</time>
      </trkpt>
      <trkpt lat="43.43124" lon="6.04064">
        <ele>323.79998779297</ele>
        <time>2017-01-04T14:09:13Z</time>
      </trkpt>
      <trkpt lat="43.43122" lon="6.04064">
        <ele>323.79998779297</ele>
        <time>2017-01-04T14:09:14Z</time>
      </trkpt>
      <trkpt lat="43.43109" lon="6.04062">
        <ele>322.79998779297</ele>
        <time>2017-01-04T14:09:18Z</time>
      </trkpt>
      <trkpt lat="43.43104" lon="6.04061">
        <ele>321.79998779297</ele>
        <time>2017-01-04T14:09:19Z</time>
      </trkpt>
      <trkpt lat="43.43098" lon="6.0406">
        <ele>320</ele>
        <time>2017-01-04T14:09:20Z</time>
      </trkpt>
      <trkpt lat="43.43093" lon="6.04059">
        <ele>318.60000610352</ele>
        <time>2017-01-04T14:09:21Z</time>
      </trkpt>
      <trkpt lat="43.43085" lon="6.04058">
        <ele>316.79998779297</ele>
        <time>2017-01-04T14:09:23Z</time>
      </trkpt>
      <trkpt lat="43.43085" lon="6.04058">
        <ele>316.39999389648</ele>
        <time>2017-01-04T14:09:24Z</time>
      </trkpt>
      <trkpt lat="43.43084" lon="6.04057">
        <ele>316.20001220703</ele>
        <time>2017-01-04T14:09:29Z</time>
      </trkpt>
      <trkpt lat="43.43084" lon="6.04057">
        <ele>316.39999389648</ele>
        <time>2017-01-04T14:09:32Z</time>
      </trkpt>
      <trkpt lat="43.43084" lon="6.04057">
        <ele>316.60000610352</ele>
        <time>2017-01-04T14:09:36Z</time>
      </trkpt>
      <trkpt lat="43.43084" lon="6.04057">
        <ele>316.39999389648</ele>
        <time>2017-01-04T14:09:54Z</time>
      </trkpt>
      <trkpt lat="43.43083" lon="6.04054">
        <ele>316.39999389648</ele>
        <time>2017-01-04T14:10:07Z</time>
      </trkpt>
      <trkpt lat="43.43081" lon="6.04052">
        <ele>316.60000610352</ele>
        <time>2017-01-04T14:10:13Z</time>
      </trkpt>
      <trkpt lat="43.4308" lon="6.04051">
        <ele>316.60000610352</ele>
        <time>2017-01-04T14:10:14Z</time>
      </trkpt>
      <trkpt lat="43.43079" lon="6.0405">
        <ele>316.60000610352</ele>
        <time>2017-01-04T14:10:17Z</time>
      </trkpt>
      <trkpt lat="43.43077" lon="6.04049">
        <ele>316.79998779297</ele>
        <time>2017-01-04T14:10:24Z</time>
      </trkpt>
      <trkpt lat="43.43077" lon="6.0405">
        <ele>316.79998779297</ele>
        <time>2017-01-04T14:10:34Z</time>
      </trkpt>
      <trkpt lat="43.43076" lon="6.0405">
        <ele>316.60000610352</ele>
        <time>2017-01-04T14:10:44Z</time>
      </trkpt>
      <trkpt lat="43.43076" lon="6.04051">
        <ele>316.60000610352</ele>
        <time>2017-01-04T14:10:53Z</time>
      </trkpt>
      <trkpt lat="43.43076" lon="6.04051">
        <ele>316.60000610352</ele>
        <time>2017-01-04T14:10:54Z</time>
      </trkpt>
      <trkpt lat="43.43076" lon="6.04051">
        <ele>316.79998779297</ele>
        <time>2017-01-04T14:11:03Z</time>
      </trkpt>
      <trkpt lat="43.43076" lon="6.0405">
        <ele>317</ele>
        <time>2017-01-04T14:11:24Z</time>
      </trkpt>
      <trkpt lat="43.43076" lon="6.0405">
        <ele>317</ele>
        <time>2017-01-04T14:11:34Z</time>
      </trkpt>
      <trkpt lat="43.43076" lon="6.04051">
        <ele>317</ele>
        <time>2017-01-04T14:11:52Z</time>
      </trkpt>
      <trkpt lat="43.43076" lon="6.04051">
        <ele>317</ele>
        <time>2017-01-04T14:12:00Z</time>
      </trkpt>
      <trkpt lat="43.43076" lon="6.04052">
        <ele>317</ele>
        <time>2017-01-04T14:12:04Z</time>
      </trkpt>
      <trkpt lat="43.43076" lon="6.04051">
        <ele>317</ele>
        <time>2017-01-04T14:12:14Z</time>
      </trkpt>
      <trkpt lat="43.43076" lon="6.04052">
        <ele>317</ele>
        <time>2017-01-04T14:12:24Z</time>
      </trkpt>
      <trkpt lat="43.43076" lon="6.04052">
        <ele>317</ele>
        <time>2017-01-04T14:12:34Z</time>
      </trkpt>
      <trkpt lat="43.43076" lon="6.04052">
        <ele>317</ele>
        <time>2017-01-04T14:12:44Z</time>
      </trkpt>
      <trkpt lat="43.43076" lon="6.04052">
        <ele>317</ele>
        <time>2017-01-04T14:12:54Z</time>
      </trkpt>
      <trkpt lat="43.43076" lon="6.04052">
        <ele>317</ele>
        <time>2017-01-04T14:13:04Z</time>
      </trkpt>
      <trkpt lat="43.43076" lon="6.04051">
        <ele>317</ele>
        <time>2017-01-04T14:13:14Z</time>
      </trkpt>
      <trkpt lat="43.43076" lon="6.04051">
        <ele>317</ele>
        <time>2017-01-04T14:13:24Z</time>
      </trkpt>
      <trkpt lat="43.43077" lon="6.04051">
        <ele>317</ele>
        <time>2017-01-04T14:13:34Z</time>
      </trkpt>
      <trkpt lat="43.43077" lon="6.04051">
        <ele>317</ele>
        <time>2017-01-04T14:13:44Z</time>
      </trkpt>
      <trkpt lat="43.43077" lon="6.04051">
        <ele>317</ele>
        <time>2017-01-04T14:13:54Z</time>
      </trkpt>
      <trkpt lat="43.43077" lon="6.04052">
        <ele>317</ele>
        <time>2017-01-04T14:14:03Z</time>
      </trkpt>
      <trkpt lat="43.43076" lon="6.04048">
        <ele>317</ele>
        <time>2017-01-04T14:14:07Z</time>
      </trkpt>
      <trkpt lat="43.43075" lon="6.04044">
        <ele>317</ele>
        <time>2017-01-04T14:14:10Z</time>
      </trkpt>
      <trkpt lat="43.43075" lon="6.04036">
        <ele>317.39999389648</ele>
        <time>2017-01-04T14:14:14Z</time>
      </trkpt>
      <trkpt lat="43.43073" lon="6.04019">
        <ele>317.20001220703</ele>
        <time>2017-01-04T14:14:22Z</time>
      </trkpt>
      <trkpt lat="43.43072" lon="6.04015">
        <ele>317.39999389648</ele>
        <time>2017-01-04T14:14:24Z</time>
      </trkpt>
      <trkpt lat="43.4307" lon="6.04012">
        <ele>317.60000610352</ele>
        <time>2017-01-04T14:14:26Z</time>
      </trkpt>
      <trkpt lat="43.43069" lon="6.0401">
        <ele>317.79998779297</ele>
        <time>2017-01-04T14:14:27Z</time>
      </trkpt>
      <trkpt lat="43.43068" lon="6.04003">
        <ele>318.39999389648</ele>
        <time>2017-01-04T14:14:30Z</time>
      </trkpt>
      <trkpt lat="43.43067" lon="6.03992">
        <ele>318.79998779297</ele>
        <time>2017-01-04T14:14:34Z</time>
      </trkpt>
      <trkpt lat="43.43068" lon="6.03987">
        <ele>319</ele>
        <time>2017-01-04T14:14:36Z</time>
      </trkpt>
      <trkpt lat="43.43073" lon="6.03965">
        <ele>319.39999389648</ele>
        <time>2017-01-04T14:14:44Z</time>
      </trkpt>
      <trkpt lat="43.43077" lon="6.03939">
        <ele>320.79998779297</ele>
        <time>2017-01-04T14:14:54Z</time>
      </trkpt>
      <trkpt lat="43.4308" lon="6.03924">
        <ele>321.20001220703</ele>
        <time>2017-01-04T14:15:00Z</time>
      </trkpt>
      <trkpt lat="43.43082" lon="6.03915">
        <ele>321.79998779297</ele>
        <time>2017-01-04T14:15:04Z</time>
      </trkpt>
      <trkpt lat="43.43083" lon="6.03908">
        <ele>322.39999389648</ele>
        <time>2017-01-04T14:15:07Z</time>
      </trkpt>
      <trkpt lat="43.43083" lon="6.03895">
        <ele>323.60000610352</ele>
        <time>2017-01-04T14:15:13Z</time>
      </trkpt>
      <trkpt lat="43.43083" lon="6.03893">
        <ele>323.79998779297</ele>
        <time>2017-01-04T14:15:14Z</time>
      </trkpt>
      <trkpt lat="43.43083" lon="6.03884">
        <ele>324.79998779297</ele>
        <time>2017-01-04T14:15:18Z</time>
      </trkpt>
      <trkpt lat="43.43083" lon="6.03869">
        <ele>324.39999389648</ele>
        <time>2017-01-04T14:15:24Z</time>
      </trkpt>
      <trkpt lat="43.43086" lon="6.03841">
        <ele>324.79998779297</ele>
        <time>2017-01-04T14:15:34Z</time>
      </trkpt>
      <trkpt lat="43.43088" lon="6.03826">
        <ele>324.60000610352</ele>
        <time>2017-01-04T14:15:39Z</time>
      </trkpt>
      <trkpt lat="43.43089" lon="6.03812">
        <ele>324.60000610352</ele>
        <time>2017-01-04T14:15:44Z</time>
      </trkpt>
      <trkpt lat="43.43092" lon="6.03779">
        <ele>324.79998779297</ele>
        <time>2017-01-04T14:15:54Z</time>
      </trkpt>
      <trkpt lat="43.43092" lon="6.03746">
        <ele>324.39999389648</ele>
        <time>2017-01-04T14:16:04Z</time>
      </trkpt>
      <trkpt lat="43.43094" lon="6.0371">
        <ele>325.79998779297</ele>
        <time>2017-01-04T14:16:14Z</time>
      </trkpt>
      <trkpt lat="43.43097" lon="6.03675">
        <ele>324.60000610352</ele>
        <time>2017-01-04T14:16:23Z</time>
      </trkpt>
      <trkpt lat="43.431" lon="6.03667">
        <ele>324.60000610352</ele>
        <time>2017-01-04T14:16:25Z</time>
      </trkpt>
      <trkpt lat="43.431" lon="6.0363">
        <ele>325.39999389648</ele>
        <time>2017-01-04T14:16:34Z</time>
      </trkpt>
      <trkpt lat="43.431" lon="6.03626">
        <ele>325.60000610352</ele>
        <time>2017-01-04T14:16:35Z</time>
      </trkpt>
      <trkpt lat="43.43105" lon="6.03593">
        <ele>326.20001220703</ele>
        <time>2017-01-04T14:16:44Z</time>
      </trkpt>
      <trkpt lat="43.43106" lon="6.03582">
        <ele>326.79998779297</ele>
        <time>2017-01-04T14:16:47Z</time>
      </trkpt>
      <trkpt lat="43.43106" lon="6.0357">
        <ele>327.79998779297</ele>
        <time>2017-01-04T14:16:50Z</time>
      </trkpt>
      <trkpt lat="43.43104" lon="6.03555">
        <ele>328.39999389648</ele>
        <time>2017-01-04T14:16:54Z</time>
      </trkpt>
      <trkpt lat="43.43106" lon="6.03519">
        <ele>329</ele>
        <time>2017-01-04T14:17:04Z</time>
      </trkpt>
      <trkpt lat="43.43107" lon="6.03505">
        <ele>330.20001220703</ele>
        <time>2017-01-04T14:17:08Z</time>
      </trkpt>
      <trkpt lat="43.43108" lon="6.03486">
        <ele>331.39999389648</ele>
        <time>2017-01-04T14:17:14Z</time>
      </trkpt>
      <trkpt lat="43.4311" lon="6.0347">
        <ele>332.39999389648</ele>
        <time>2017-01-04T14:17:19Z</time>
      </trkpt>
      <trkpt lat="43.43111" lon="6.03453">
        <ele>332.79998779297</ele>
        <time>2017-01-04T14:17:24Z</time>
      </trkpt>
      <trkpt lat="43.43113" lon="6.03429">
        <ele>332.79998779297</ele>
        <time>2017-01-04T14:17:31Z</time>
      </trkpt>
      <trkpt lat="43.43115" lon="6.03418">
        <ele>332.79998779297</ele>
        <time>2017-01-04T14:17:34Z</time>
      </trkpt>
      <trkpt lat="43.43117" lon="6.03384">
        <ele>332.60000610352</ele>
        <time>2017-01-04T14:17:44Z</time>
      </trkpt>
      <trkpt lat="43.43119" lon="6.03356">
        <ele>333.39999389648</ele>
        <time>2017-01-04T14:17:53Z</time>
      </trkpt>
      <trkpt lat="43.43119" lon="6.03353">
        <ele>333.60000610352</ele>
        <time>2017-01-04T14:17:54Z</time>
      </trkpt>
      <trkpt lat="43.43122" lon="6.03317">
        <ele>333.79998779297</ele>
        <time>2017-01-04T14:18:04Z</time>
      </trkpt>
      <trkpt lat="43.43123" lon="6.03302">
        <ele>334.20001220703</ele>
        <time>2017-01-04T14:18:08Z</time>
      </trkpt>
      <trkpt lat="43.43123" lon="6.03295">
        <ele>334.60000610352</ele>
        <time>2017-01-04T14:18:10Z</time>
      </trkpt>
      <trkpt lat="43.43123" lon="6.0328">
        <ele>334.79998779297</ele>
        <time>2017-01-04T14:18:14Z</time>
      </trkpt>
      <trkpt lat="43.43125" lon="6.0325">
        <ele>334.79998779297</ele>
        <time>2017-01-04T14:18:24Z</time>
      </trkpt>
      <trkpt lat="43.43126" lon="6.03242">
        <ele>335.60000610352</ele>
        <time>2017-01-04T14:18:27Z</time>
      </trkpt>
      <trkpt lat="43.43128" lon="6.03221">
        <ele>336</ele>
        <time>2017-01-04T14:18:34Z</time>
      </trkpt>
      <trkpt lat="43.43129" lon="6.03208">
        <ele>336.79998779297</ele>
        <time>2017-01-04T14:18:37Z</time>
      </trkpt>
      <trkpt lat="43.43129" lon="6.03197">
        <ele>337</ele>
        <time>2017-01-04T14:18:39Z</time>
      </trkpt>
      <trkpt lat="43.43129" lon="6.03178">
        <ele>335</ele>
        <time>2017-01-04T14:18:42Z</time>
      </trkpt>
      <trkpt lat="43.43129" lon="6.03171">
        <ele>333.60000610352</ele>
        <time>2017-01-04T14:18:43Z</time>
      </trkpt>
      <trkpt lat="43.43128" lon="6.03165">
        <ele>332.20001220703</ele>
        <time>2017-01-04T14:18:44Z</time>
      </trkpt>
      <trkpt lat="43.43127" lon="6.03161">
        <ele>331</ele>
        <time>2017-01-04T14:18:45Z</time>
      </trkpt>
      <trkpt lat="43.43123" lon="6.03158">
        <ele>329.79998779297</ele>
        <time>2017-01-04T14:18:47Z</time>
      </trkpt>
      <trkpt lat="43.43122" lon="6.03158">
        <ele>329.79998779297</ele>
        <time>2017-01-04T14:18:48Z</time>
      </trkpt>
      <trkpt lat="43.43121" lon="6.03158">
        <ele>330</ele>
        <time>2017-01-04T14:18:52Z</time>
      </trkpt>
      <trkpt lat="43.43121" lon="6.03158">
        <ele>330</ele>
        <time>2017-01-04T14:18:56Z</time>
      </trkpt>
      <trkpt lat="43.43121" lon="6.03159">
        <ele>330.20001220703</ele>
        <time>2017-01-04T14:19:08Z</time>
      </trkpt>
      <trkpt lat="43.43121" lon="6.03159">
        <ele>330.20001220703</ele>
        <time>2017-01-04T14:19:22Z</time>
      </trkpt>
      <trkpt lat="43.43121" lon="6.03159">
        <ele>329.60000610352</ele>
        <time>2017-01-04T14:19:30Z</time>
      </trkpt>
      <trkpt lat="43.43121" lon="6.03159">
        <ele>330</ele>
        <time>2017-01-04T14:19:44Z</time>
      </trkpt>
      <trkpt lat="43.4312" lon="6.03158">
        <ele>329.39999389648</ele>
        <time>2017-01-04T14:20:01Z</time>
      </trkpt>
      <trkpt lat="43.43119" lon="6.03157">
        <ele>329.79998779297</ele>
        <time>2017-01-04T14:20:04Z</time>
      </trkpt>
      <trkpt lat="43.43117" lon="6.03158">
        <ele>330.20001220703</ele>
        <time>2017-01-04T14:20:12Z</time>
      </trkpt>
      <trkpt lat="43.43117" lon="6.03158">
        <ele>330.39999389648</ele>
        <time>2017-01-04T14:20:14Z</time>
      </trkpt>
      <trkpt lat="43.43116" lon="6.03158">
        <ele>330.39999389648</ele>
        <time>2017-01-04T14:20:16Z</time>
      </trkpt>
      <trkpt lat="43.4311" lon="6.0316">
        <ele>330.60000610352</ele>
        <time>2017-01-04T14:20:22Z</time>
      </trkpt>
      <trkpt lat="43.43107" lon="6.03161">
        <ele>330.79998779297</ele>
        <time>2017-01-04T14:20:24Z</time>
      </trkpt>
      <trkpt lat="43.43104" lon="6.03161">
        <ele>331</ele>
        <time>2017-01-04T14:20:26Z</time>
      </trkpt>
      <trkpt lat="43.43097" lon="6.03164">
        <ele>331.20001220703</ele>
        <time>2017-01-04T14:20:31Z</time>
      </trkpt>
      <trkpt lat="43.43093" lon="6.03166">
        <ele>331.20001220703</ele>
        <time>2017-01-04T14:20:34Z</time>
      </trkpt>
      <trkpt lat="43.43081" lon="6.03169">
        <ele>331.60000610352</ele>
        <time>2017-01-04T14:20:40Z</time>
      </trkpt>
      <trkpt lat="43.43075" lon="6.03172">
        <ele>332</ele>
        <time>2017-01-04T14:20:43Z</time>
      </trkpt>
      <trkpt lat="43.43068" lon="6.03177">
        <ele>332.60000610352</ele>
        <time>2017-01-04T14:20:48Z</time>
      </trkpt>
      <trkpt lat="43.43066" lon="6.03178">
        <ele>333</ele>
        <time>2017-01-04T14:20:49Z</time>
      </trkpt>
      <trkpt lat="43.4306" lon="6.03177">
        <ele>334.39999389648</ele>
        <time>2017-01-04T14:20:53Z</time>
      </trkpt>
      <trkpt lat="43.43059" lon="6.03177">
        <ele>334.39999389648</ele>
        <time>2017-01-04T14:20:54Z</time>
      </trkpt>
      <trkpt lat="43.43058" lon="6.03177">
        <ele>334.60000610352</ele>
        <time>2017-01-04T14:20:55Z</time>
      </trkpt>
      <trkpt lat="43.4305" lon="6.03175">
        <ele>335.39999389648</ele>
        <time>2017-01-04T14:21:00Z</time>
      </trkpt>
      <trkpt lat="43.43046" lon="6.03175">
        <ele>336</ele>
        <time>2017-01-04T14:21:03Z</time>
      </trkpt>
      <trkpt lat="43.43044" lon="6.03175">
        <ele>336.60000610352</ele>
        <time>2017-01-04T14:21:05Z</time>
      </trkpt>
      <trkpt lat="43.43037" lon="6.03176">
        <ele>337</ele>
        <time>2017-01-04T14:21:11Z</time>
      </trkpt>
      <trkpt lat="43.43031" lon="6.03175">
        <ele>337.60000610352</ele>
        <time>2017-01-04T14:21:15Z</time>
      </trkpt>
      <trkpt lat="43.43018" lon="6.03174">
        <ele>338.39999389648</ele>
        <time>2017-01-04T14:21:24Z</time>
      </trkpt>
      <trkpt lat="43.43013" lon="6.03171">
        <ele>338.79998779297</ele>
        <time>2017-01-04T14:21:27Z</time>
      </trkpt>
      <trkpt lat="43.43003" lon="6.03163">
        <ele>339</ele>
        <time>2017-01-04T14:21:34Z</time>
      </trkpt>
      <trkpt lat="43.42998" lon="6.03162">
        <ele>340</ele>
        <time>2017-01-04T14:21:38Z</time>
      </trkpt>
      <trkpt lat="43.42991" lon="6.0316">
        <ele>340.79998779297</ele>
        <time>2017-01-04T14:21:44Z</time>
      </trkpt>
      <trkpt lat="43.42989" lon="6.03159">
        <ele>341</ele>
        <time>2017-01-04T14:21:46Z</time>
      </trkpt>
      <trkpt lat="43.42981" lon="6.03157">
        <ele>342.20001220703</ele>
        <time>2017-01-04T14:21:52Z</time>
      </trkpt>
      <trkpt lat="43.42977" lon="6.03156">
        <ele>342.39999389648</ele>
        <time>2017-01-04T14:21:54Z</time>
      </trkpt>
      <trkpt lat="43.42974" lon="6.03156">
        <ele>342.20001220703</ele>
        <time>2017-01-04T14:21:56Z</time>
      </trkpt>
      <trkpt lat="43.42965" lon="6.0315">
        <ele>342.79998779297</ele>
        <time>2017-01-04T14:22:04Z</time>
      </trkpt>
      <trkpt lat="43.42962" lon="6.03148">
        <ele>343.20001220703</ele>
        <time>2017-01-04T14:22:07Z</time>
      </trkpt>
      <trkpt lat="43.42952" lon="6.03143">
        <ele>343.79998779297</ele>
        <time>2017-01-04T14:22:14Z</time>
      </trkpt>
      <trkpt lat="43.42947" lon="6.0314">
        <ele>344.20001220703</ele>
        <time>2017-01-04T14:22:17Z</time>
      </trkpt>
      <trkpt lat="43.42937" lon="6.03134">
        <ele>345.20001220703</ele>
        <time>2017-01-04T14:22:24Z</time>
      </trkpt>
      <trkpt lat="43.42936" lon="6.03133">
        <ele>345.39999389648</ele>
        <time>2017-01-04T14:22:25Z</time>
      </trkpt>
      <trkpt lat="43.42928" lon="6.03129">
        <ele>346.60000610352</ele>
        <time>2017-01-04T14:22:31Z</time>
      </trkpt>
      <trkpt lat="43.42924" lon="6.03128">
        <ele>347</ele>
        <time>2017-01-04T14:22:34Z</time>
      </trkpt>
      <trkpt lat="43.42922" lon="6.03127">
        <ele>347.20001220703</ele>
        <time>2017-01-04T14:22:35Z</time>
      </trkpt>
      <trkpt lat="43.42917" lon="6.03126">
        <ele>347.79998779297</ele>
        <time>2017-01-04T14:22:39Z</time>
      </trkpt>
      <trkpt lat="43.42906" lon="6.03119">
        <ele>348.79998779297</ele>
        <time>2017-01-04T14:22:48Z</time>
      </trkpt>
      <trkpt lat="43.42898" lon="6.03116">
        <ele>349.20001220703</ele>
        <time>2017-01-04T14:22:54Z</time>
      </trkpt>
      <trkpt lat="43.42888" lon="6.03117">
        <ele>349.79998779297</ele>
        <time>2017-01-04T14:23:00Z</time>
      </trkpt>
      <trkpt lat="43.42881" lon="6.03118">
        <ele>350.20001220703</ele>
        <time>2017-01-04T14:23:04Z</time>
      </trkpt>
      <trkpt lat="43.42874" lon="6.0312">
        <ele>350.39999389648</ele>
        <time>2017-01-04T14:23:08Z</time>
      </trkpt>
      <trkpt lat="43.42868" lon="6.0312">
        <ele>350.79998779297</ele>
        <time>2017-01-04T14:23:11Z</time>
      </trkpt>
      <trkpt lat="43.42863" lon="6.03119">
        <ele>351.39999389648</ele>
        <time>2017-01-04T14:23:14Z</time>
      </trkpt>
      <trkpt lat="43.42852" lon="6.03118">
        <ele>351.20001220703</ele>
        <time>2017-01-04T14:23:22Z</time>
      </trkpt>
      <trkpt lat="43.42848" lon="6.03118">
        <ele>351.60000610352</ele>
        <time>2017-01-04T14:23:24Z</time>
      </trkpt>
      <trkpt lat="43.42844" lon="6.03119">
        <ele>352</ele>
        <time>2017-01-04T14:23:26Z</time>
      </trkpt>
      <trkpt lat="43.42833" lon="6.03128">
        <ele>352.39999389648</ele>
        <time>2017-01-04T14:23:34Z</time>
      </trkpt>
      <trkpt lat="43.42828" lon="6.03134">
        <ele>353</ele>
        <time>2017-01-04T14:23:38Z</time>
      </trkpt>
      <trkpt lat="43.42817" lon="6.03142">
        <ele>353.39999389648</ele>
        <time>2017-01-04T14:23:44Z</time>
      </trkpt>
      <trkpt lat="43.42809" lon="6.03147">
        <ele>354</ele>
        <time>2017-01-04T14:23:49Z</time>
      </trkpt>
      <trkpt lat="43.42802" lon="6.03151">
        <ele>354.79998779297</ele>
        <time>2017-01-04T14:23:54Z</time>
      </trkpt>
      <trkpt lat="43.42784" lon="6.03161">
        <ele>356.39999389648</ele>
        <time>2017-01-04T14:24:04Z</time>
      </trkpt>
      <trkpt lat="43.42773" lon="6.03166">
        <ele>357.39999389648</ele>
        <time>2017-01-04T14:24:10Z</time>
      </trkpt>
      <trkpt lat="43.42765" lon="6.03169">
        <ele>357.79998779297</ele>
        <time>2017-01-04T14:24:14Z</time>
      </trkpt>
      <trkpt lat="43.42753" lon="6.03174">
        <ele>358.39999389648</ele>
        <time>2017-01-04T14:24:21Z</time>
      </trkpt>
      <trkpt lat="43.42747" lon="6.03174">
        <ele>358.39999389648</ele>
        <time>2017-01-04T14:24:24Z</time>
      </trkpt>
      <trkpt lat="43.42744" lon="6.03173">
        <ele>358.39999389648</ele>
        <time>2017-01-04T14:24:26Z</time>
      </trkpt>
      <trkpt lat="43.42734" lon="6.03169">
        <ele>358.79998779297</ele>
        <time>2017-01-04T14:24:32Z</time>
      </trkpt>
      <trkpt lat="43.4273" lon="6.03171">
        <ele>359.60000610352</ele>
        <time>2017-01-04T14:24:35Z</time>
      </trkpt>
      <trkpt lat="43.42713" lon="6.03173">
        <ele>360.39999389648</ele>
        <time>2017-01-04T14:24:44Z</time>
      </trkpt>
      <trkpt lat="43.42709" lon="6.03172">
        <ele>360.60000610352</ele>
        <time>2017-01-04T14:24:46Z</time>
      </trkpt>
      <trkpt lat="43.42698" lon="6.03158">
        <ele>360.79998779297</ele>
        <time>2017-01-04T14:24:54Z</time>
      </trkpt>
      <trkpt lat="43.42685" lon="6.03144">
        <ele>361.79998779297</ele>
        <time>2017-01-04T14:25:02Z</time>
      </trkpt>
      <trkpt lat="43.42681" lon="6.03143">
        <ele>362</ele>
        <time>2017-01-04T14:25:04Z</time>
      </trkpt>
      <trkpt lat="43.42666" lon="6.03147">
        <ele>362.79998779297</ele>
        <time>2017-01-04T14:25:11Z</time>
      </trkpt>
      <trkpt lat="43.42661" lon="6.03151">
        <ele>363</ele>
        <time>2017-01-04T14:25:14Z</time>
      </trkpt>
      <trkpt lat="43.42655" lon="6.03158">
        <ele>363.60000610352</ele>
        <time>2017-01-04T14:25:18Z</time>
      </trkpt>
      <trkpt lat="43.42655" lon="6.0316">
        <ele>363.79998779297</ele>
        <time>2017-01-04T14:25:19Z</time>
      </trkpt>
      <trkpt lat="43.42653" lon="6.03173">
        <ele>364.79998779297</ele>
        <time>2017-01-04T14:25:24Z</time>
      </trkpt>
      <trkpt lat="43.42652" lon="6.03175">
        <ele>364.79998779297</ele>
        <time>2017-01-04T14:25:25Z</time>
      </trkpt>
      <trkpt lat="43.42626" lon="6.0318">
        <ele>365.79998779297</ele>
        <time>2017-01-04T14:25:40Z</time>
      </trkpt>
      <trkpt lat="43.42619" lon="6.03181">
        <ele>366.60000610352</ele>
        <time>2017-01-04T14:25:44Z</time>
      </trkpt>
      <trkpt lat="43.42611" lon="6.03184">
        <ele>367</ele>
        <time>2017-01-04T14:25:48Z</time>
      </trkpt>
      <trkpt lat="43.426" lon="6.03183">
        <ele>368.20001220703</ele>
        <time>2017-01-04T14:25:54Z</time>
      </trkpt>
      <trkpt lat="43.42594" lon="6.03183">
        <ele>369</ele>
        <time>2017-01-04T14:25:57Z</time>
      </trkpt>
      <trkpt lat="43.4258" lon="6.03185">
        <ele>369.39999389648</ele>
        <time>2017-01-04T14:26:04Z</time>
      </trkpt>
      <trkpt lat="43.42562" lon="6.03201">
        <ele>370.60000610352</ele>
        <time>2017-01-04T14:26:14Z</time>
      </trkpt>
      <trkpt lat="43.42547" lon="6.03209">
        <ele>371.20001220703</ele>
        <time>2017-01-04T14:26:22Z</time>
      </trkpt>
      <trkpt lat="43.42543" lon="6.03212">
        <ele>371.60000610352</ele>
        <time>2017-01-04T14:26:24Z</time>
      </trkpt>
      <trkpt lat="43.4254" lon="6.03215">
        <ele>372.20001220703</ele>
        <time>2017-01-04T14:26:26Z</time>
      </trkpt>
      <trkpt lat="43.42534" lon="6.03219">
        <ele>372.79998779297</ele>
        <time>2017-01-04T14:26:30Z</time>
      </trkpt>
      <trkpt lat="43.42532" lon="6.03223">
        <ele>373.20001220703</ele>
        <time>2017-01-04T14:26:32Z</time>
      </trkpt>
      <trkpt lat="43.42529" lon="6.03226">
        <ele>373.60000610352</ele>
        <time>2017-01-04T14:26:34Z</time>
      </trkpt>
      <trkpt lat="43.42521" lon="6.03234">
        <ele>374.39999389648</ele>
        <time>2017-01-04T14:26:40Z</time>
      </trkpt>
      <trkpt lat="43.42515" lon="6.03241">
        <ele>375</ele>
        <time>2017-01-04T14:26:44Z</time>
      </trkpt>
      <trkpt lat="43.42512" lon="6.03244">
        <ele>375.39999389648</ele>
        <time>2017-01-04T14:26:47Z</time>
      </trkpt>
      <trkpt lat="43.42509" lon="6.03246">
        <ele>375.60000610352</ele>
        <time>2017-01-04T14:26:50Z</time>
      </trkpt>
      <trkpt lat="43.42507" lon="6.03249">
        <ele>376</ele>
        <time>2017-01-04T14:26:53Z</time>
      </trkpt>
      <trkpt lat="43.42507" lon="6.0325">
        <ele>376.20001220703</ele>
        <time>2017-01-04T14:26:54Z</time>
      </trkpt>
      <trkpt lat="43.42507" lon="6.0325">
        <ele>376.39999389648</ele>
        <time>2017-01-04T14:26:56Z</time>
      </trkpt>
      <trkpt lat="43.42507" lon="6.03251">
        <ele>376.79998779297</ele>
        <time>2017-01-04T14:26:59Z</time>
      </trkpt>
      <trkpt lat="43.42507" lon="6.03252">
        <ele>376.79998779297</ele>
        <time>2017-01-04T14:27:02Z</time>
      </trkpt>
      <trkpt lat="43.42507" lon="6.03252">
        <ele>376.60000610352</ele>
        <time>2017-01-04T14:27:04Z</time>
      </trkpt>
      <trkpt lat="43.42507" lon="6.03252">
        <ele>376.79998779297</ele>
        <time>2017-01-04T14:27:18Z</time>
      </trkpt>
      <trkpt lat="43.42507" lon="6.03252">
        <ele>376.60000610352</ele>
        <time>2017-01-04T14:27:32Z</time>
      </trkpt>
      <trkpt lat="43.42507" lon="6.03251">
        <ele>376.20001220703</ele>
        <time>2017-01-04T14:27:54Z</time>
      </trkpt>
      <trkpt lat="43.42507" lon="6.03251">
        <ele>376.60000610352</ele>
        <time>2017-01-04T14:28:14Z</time>
      </trkpt>
      <trkpt lat="43.42507" lon="6.03251">
        <ele>376.39999389648</ele>
        <time>2017-01-04T14:28:27Z</time>
      </trkpt>
      <trkpt lat="43.42507" lon="6.03251">
        <ele>376.60000610352</ele>
        <time>2017-01-04T14:28:44Z</time>
      </trkpt>
      <trkpt lat="43.42507" lon="6.03251">
        <ele>375.79998779297</ele>
        <time>2017-01-04T14:29:25Z</time>
      </trkpt>
      <trkpt lat="43.42507" lon="6.03251">
        <ele>375.39999389648</ele>
        <time>2017-01-04T14:29:47Z</time>
      </trkpt>
      <trkpt lat="43.42507" lon="6.03252">
        <ele>376.60000610352</ele>
        <time>2017-01-04T14:29:55Z</time>
      </trkpt>
      <trkpt lat="43.42507" lon="6.03252">
        <ele>376</ele>
        <time>2017-01-04T14:30:04Z</time>
      </trkpt>
      <trkpt lat="43.42507" lon="6.03252">
        <ele>375.79998779297</ele>
        <time>2017-01-04T14:30:05Z</time>
      </trkpt>
      <trkpt lat="43.42506" lon="6.03254">
        <ele>375.60000610352</ele>
        <time>2017-01-04T14:30:08Z</time>
      </trkpt>
      <trkpt lat="43.42502" lon="6.0326">
        <ele>376</ele>
        <time>2017-01-04T14:30:11Z</time>
      </trkpt>
      <trkpt lat="43.42498" lon="6.03263">
        <ele>376.20001220703</ele>
        <time>2017-01-04T14:30:13Z</time>
      </trkpt>
      <trkpt lat="43.42495" lon="6.03266">
        <ele>376.39999389648</ele>
        <time>2017-01-04T14:30:15Z</time>
      </trkpt>
      <trkpt lat="43.42485" lon="6.03285">
        <ele>378.79998779297</ele>
        <time>2017-01-04T14:30:23Z</time>
      </trkpt>
      <trkpt lat="43.42482" lon="6.03288">
        <ele>378.60000610352</ele>
        <time>2017-01-04T14:30:25Z</time>
      </trkpt>
      <trkpt lat="43.42477" lon="6.03293">
        <ele>379.20001220703</ele>
        <time>2017-01-04T14:30:28Z</time>
      </trkpt>
      <trkpt lat="43.42475" lon="6.03296">
        <ele>379.79998779297</ele>
        <time>2017-01-04T14:30:30Z</time>
      </trkpt>
      <trkpt lat="43.42468" lon="6.03302">
        <ele>381.20001220703</ele>
        <time>2017-01-04T14:30:35Z</time>
      </trkpt>
      <trkpt lat="43.42464" lon="6.03306">
        <ele>382.20001220703</ele>
        <time>2017-01-04T14:30:39Z</time>
      </trkpt>
      <trkpt lat="43.42459" lon="6.0331">
        <ele>383.39999389648</ele>
        <time>2017-01-04T14:30:43Z</time>
      </trkpt>
      <trkpt lat="43.42457" lon="6.03311">
        <ele>383.60000610352</ele>
        <time>2017-01-04T14:30:45Z</time>
      </trkpt>
      <trkpt lat="43.42452" lon="6.03313">
        <ele>384.60000610352</ele>
        <time>2017-01-04T14:30:49Z</time>
      </trkpt>
      <trkpt lat="43.42447" lon="6.03313">
        <ele>385.79998779297</ele>
        <time>2017-01-04T14:30:53Z</time>
      </trkpt>
      <trkpt lat="43.42442" lon="6.03313">
        <ele>386.79998779297</ele>
        <time>2017-01-04T14:30:58Z</time>
      </trkpt>
      <trkpt lat="43.42439" lon="6.03313">
        <ele>388</ele>
        <time>2017-01-04T14:31:01Z</time>
      </trkpt>
      <trkpt lat="43.42435" lon="6.03314">
        <ele>389</ele>
        <time>2017-01-04T14:31:05Z</time>
      </trkpt>
      <trkpt lat="43.42429" lon="6.03315">
        <ele>390</ele>
        <time>2017-01-04T14:31:11Z</time>
      </trkpt>
      <trkpt lat="43.42427" lon="6.03317">
        <ele>390.39999389648</ele>
        <time>2017-01-04T14:31:13Z</time>
      </trkpt>
      <trkpt lat="43.42426" lon="6.03318">
        <ele>390.79998779297</ele>
        <time>2017-01-04T14:31:15Z</time>
      </trkpt>
      <trkpt lat="43.42424" lon="6.03319">
        <ele>391</ele>
        <time>2017-01-04T14:31:17Z</time>
      </trkpt>
      <trkpt lat="43.42423" lon="6.03318">
        <ele>391.20001220703</ele>
        <time>2017-01-04T14:31:18Z</time>
      </trkpt>
      <trkpt lat="43.42416" lon="6.03319">
        <ele>392.20001220703</ele>
        <time>2017-01-04T14:31:24Z</time>
      </trkpt>
      <trkpt lat="43.42412" lon="6.0332">
        <ele>393.39999389648</ele>
        <time>2017-01-04T14:31:28Z</time>
      </trkpt>
      <trkpt lat="43.42406" lon="6.03321">
        <ele>394.39999389648</ele>
        <time>2017-01-04T14:31:34Z</time>
      </trkpt>
      <trkpt lat="43.42397" lon="6.03322">
        <ele>395.39999389648</ele>
        <time>2017-01-04T14:31:42Z</time>
      </trkpt>
      <trkpt lat="43.42394" lon="6.03323">
        <ele>395.79998779297</ele>
        <time>2017-01-04T14:31:45Z</time>
      </trkpt>
      <trkpt lat="43.42387" lon="6.03328">
        <ele>396.39999389648</ele>
        <time>2017-01-04T14:31:53Z</time>
      </trkpt>
      <trkpt lat="43.42385" lon="6.0333">
        <ele>396.79998779297</ele>
        <time>2017-01-04T14:31:55Z</time>
      </trkpt>
      <trkpt lat="43.42384" lon="6.0333">
        <ele>397</ele>
        <time>2017-01-04T14:31:57Z</time>
      </trkpt>
      <trkpt lat="43.42383" lon="6.0333">
        <ele>397.20001220703</ele>
        <time>2017-01-04T14:32:02Z</time>
      </trkpt>
      <trkpt lat="43.42383" lon="6.0333">
        <ele>397.20001220703</ele>
        <time>2017-01-04T14:32:05Z</time>
      </trkpt>
      <trkpt lat="43.42383" lon="6.0333">
        <ele>396.79998779297</ele>
        <time>2017-01-04T14:32:10Z</time>
      </trkpt>
      <trkpt lat="43.42383" lon="6.0333">
        <ele>396.60000610352</ele>
        <time>2017-01-04T14:32:13Z</time>
      </trkpt>
      <trkpt lat="43.42383" lon="6.03331">
        <ele>396.79998779297</ele>
        <time>2017-01-04T14:32:35Z</time>
      </trkpt>
      <trkpt lat="43.42383" lon="6.03331">
        <ele>396.79998779297</ele>
        <time>2017-01-04T14:32:51Z</time>
      </trkpt>
      <trkpt lat="43.42383" lon="6.03331">
        <ele>396.60000610352</ele>
        <time>2017-01-04T14:33:15Z</time>
      </trkpt>
      <trkpt lat="43.42383" lon="6.03332">
        <ele>396.60000610352</ele>
        <time>2017-01-04T14:33:24Z</time>
      </trkpt>
      <trkpt lat="43.42383" lon="6.03332">
        <ele>396.60000610352</ele>
        <time>2017-01-04T14:33:25Z</time>
      </trkpt>
      <trkpt lat="43.42383" lon="6.03332">
        <ele>396.60000610352</ele>
        <time>2017-01-04T14:33:31Z</time>
      </trkpt>
      <trkpt lat="43.42383" lon="6.03331">
        <ele>396.60000610352</ele>
        <time>2017-01-04T14:33:51Z</time>
      </trkpt>
      <trkpt lat="43.42383" lon="6.03331">
        <ele>396.60000610352</ele>
        <time>2017-01-04T14:33:59Z</time>
      </trkpt>
      <trkpt lat="43.42383" lon="6.03331">
        <ele>396.60000610352</ele>
        <time>2017-01-04T14:34:09Z</time>
      </trkpt>
      <trkpt lat="43.42383" lon="6.03331">
        <ele>396.60000610352</ele>
        <time>2017-01-04T14:34:11Z</time>
      </trkpt>
      <trkpt lat="43.42382" lon="6.0333">
        <ele>396.60000610352</ele>
        <time>2017-01-04T14:34:14Z</time>
      </trkpt>
      <trkpt lat="43.42382" lon="6.0333">
        <ele>396.60000610352</ele>
        <time>2017-01-04T14:34:17Z</time>
      </trkpt>
      <trkpt lat="43.42382" lon="6.03331">
        <ele>396.60000610352</ele>
        <time>2017-01-04T14:34:35Z</time>
      </trkpt>
      <trkpt lat="43.42382" lon="6.0333">
        <ele>396.60000610352</ele>
        <time>2017-01-04T14:34:44Z</time>
      </trkpt>
      <trkpt lat="43.42381" lon="6.03329">
        <ele>396.60000610352</ele>
        <time>2017-01-04T14:34:45Z</time>
      </trkpt>
      <trkpt lat="43.42377" lon="6.03314">
        <ele>397</ele>
        <time>2017-01-04T14:34:52Z</time>
      </trkpt>
      <trkpt lat="43.42377" lon="6.03308">
        <ele>396.79998779297</ele>
        <time>2017-01-04T14:34:55Z</time>
      </trkpt>
      <trkpt lat="43.42375" lon="6.03294">
        <ele>396.79998779297</ele>
        <time>2017-01-04T14:35:02Z</time>
      </trkpt>
      <trkpt lat="43.42373" lon="6.03286">
        <ele>396.60000610352</ele>
        <time>2017-01-04T14:35:05Z</time>
      </trkpt>
      <trkpt lat="43.42365" lon="6.03248">
        <ele>396</ele>
        <time>2017-01-04T14:35:15Z</time>
      </trkpt>
      <trkpt lat="43.42366" lon="6.03217">
        <ele>396</ele>
        <time>2017-01-04T14:35:23Z</time>
      </trkpt>
      <trkpt lat="43.42367" lon="6.0321">
        <ele>396.20001220703</ele>
        <time>2017-01-04T14:35:25Z</time>
      </trkpt>
      <trkpt lat="43.42368" lon="6.03167">
        <ele>397.79998779297</ele>
        <time>2017-01-04T14:35:36Z</time>
      </trkpt>
      <trkpt lat="43.42371" lon="6.03138">
        <ele>398.60000610352</ele>
        <time>2017-01-04T14:35:44Z</time>
      </trkpt>
      <trkpt lat="43.42372" lon="6.0311">
        <ele>399.79998779297</ele>
        <time>2017-01-04T14:35:52Z</time>
      </trkpt>
      <trkpt lat="43.42374" lon="6.031">
        <ele>400</ele>
        <time>2017-01-04T14:35:55Z</time>
      </trkpt>
      <trkpt lat="43.42377" lon="6.03079">
        <ele>401.60000610352</ele>
        <time>2017-01-04T14:36:02Z</time>
      </trkpt>
      <trkpt lat="43.42378" lon="6.03071">
        <ele>402.20001220703</ele>
        <time>2017-01-04T14:36:05Z</time>
      </trkpt>
      <trkpt lat="43.42379" lon="6.03058">
        <ele>403.60000610352</ele>
        <time>2017-01-04T14:36:10Z</time>
      </trkpt>
      <trkpt lat="43.4238" lon="6.03054">
        <ele>404.20001220703</ele>
        <time>2017-01-04T14:36:12Z</time>
      </trkpt>
      <trkpt lat="43.42381" lon="6.03047">
        <ele>404.60000610352</ele>
        <time>2017-01-04T14:36:15Z</time>
      </trkpt>
      <trkpt lat="43.42382" lon="6.03034">
        <ele>405.79998779297</ele>
        <time>2017-01-04T14:36:21Z</time>
      </trkpt>
      <trkpt lat="43.42381" lon="6.03027">
        <ele>406.20001220703</ele>
        <time>2017-01-04T14:36:25Z</time>
      </trkpt>
      <trkpt lat="43.42381" lon="6.03022">
        <ele>407</ele>
        <time>2017-01-04T14:36:28Z</time>
      </trkpt>
      <trkpt lat="43.42379" lon="6.03008">
        <ele>407.60000610352</ele>
        <time>2017-01-04T14:36:35Z</time>
      </trkpt>
      <trkpt lat="43.42375" lon="6.02991">
        <ele>409</ele>
        <time>2017-01-04T14:36:45Z</time>
      </trkpt>
      <trkpt lat="43.42375" lon="6.02973">
        <ele>410.79998779297</ele>
        <time>2017-01-04T14:36:55Z</time>
      </trkpt>
      <trkpt lat="43.42376" lon="6.02966">
        <ele>411.20001220703</ele>
        <time>2017-01-04T14:36:59Z</time>
      </trkpt>
      <trkpt lat="43.42376" lon="6.02954">
        <ele>411.60000610352</ele>
        <time>2017-01-04T14:37:05Z</time>
      </trkpt>
      <trkpt lat="43.42378" lon="6.02945">
        <ele>412.20001220703</ele>
        <time>2017-01-04T14:37:10Z</time>
      </trkpt>
      <trkpt lat="43.42379" lon="6.02936">
        <ele>412.20001220703</ele>
        <time>2017-01-04T14:37:15Z</time>
      </trkpt>
      <trkpt lat="43.42381" lon="6.02927">
        <ele>412.39999389648</ele>
        <time>2017-01-04T14:37:19Z</time>
      </trkpt>
      <trkpt lat="43.42383" lon="6.02919">
        <ele>412.39999389648</ele>
        <time>2017-01-04T14:37:23Z</time>
      </trkpt>
      <trkpt lat="43.42387" lon="6.02906">
        <ele>412.20001220703</ele>
        <time>2017-01-04T14:37:29Z</time>
      </trkpt>
      <trkpt lat="43.42391" lon="6.02892">
        <ele>412.39999389648</ele>
        <time>2017-01-04T14:37:35Z</time>
      </trkpt>
      <trkpt lat="43.42396" lon="6.02883">
        <ele>412.20001220703</ele>
        <time>2017-01-04T14:37:40Z</time>
      </trkpt>
      <trkpt lat="43.42398" lon="6.02877">
        <ele>412.20001220703</ele>
        <time>2017-01-04T14:37:43Z</time>
      </trkpt>
      <trkpt lat="43.424" lon="6.02872">
        <ele>412.39999389648</ele>
        <time>2017-01-04T14:37:45Z</time>
      </trkpt>
      <trkpt lat="43.42402" lon="6.02868">
        <ele>412.39999389648</ele>
        <time>2017-01-04T14:37:47Z</time>
      </trkpt>
      <trkpt lat="43.42404" lon="6.02863">
        <ele>412.20001220703</ele>
        <time>2017-01-04T14:37:49Z</time>
      </trkpt>
      <trkpt lat="43.42405" lon="6.0286">
        <ele>412.20001220703</ele>
        <time>2017-01-04T14:37:50Z</time>
      </trkpt>
      <trkpt lat="43.42411" lon="6.02845">
        <ele>411.79998779297</ele>
        <time>2017-01-04T14:37:55Z</time>
      </trkpt>
      <trkpt lat="43.42415" lon="6.02835">
        <ele>411</ele>
        <time>2017-01-04T14:37:58Z</time>
      </trkpt>
      <trkpt lat="43.42421" lon="6.02824">
        <ele>410.39999389648</ele>
        <time>2017-01-04T14:38:01Z</time>
      </trkpt>
      <trkpt lat="43.42422" lon="6.0282">
        <ele>409.79998779297</ele>
        <time>2017-01-04T14:38:02Z</time>
      </trkpt>
      <trkpt lat="43.42424" lon="6.02812">
        <ele>409.39999389648</ele>
        <time>2017-01-04T14:38:04Z</time>
      </trkpt>
      <trkpt lat="43.42431" lon="6.02792">
        <ele>409.20001220703</ele>
        <time>2017-01-04T14:38:09Z</time>
      </trkpt>
      <trkpt lat="43.4243" lon="6.02768">
        <ele>408.79998779297</ele>
        <time>2017-01-04T14:38:14Z</time>
      </trkpt>
      <trkpt lat="43.4243" lon="6.02764">
        <ele>408.39999389648</ele>
        <time>2017-01-04T14:38:15Z</time>
      </trkpt>
      <trkpt lat="43.42435" lon="6.02752">
        <ele>407.39999389648</ele>
        <time>2017-01-04T14:38:18Z</time>
      </trkpt>
      <trkpt lat="43.4244" lon="6.02721">
        <ele>406.79998779297</ele>
        <time>2017-01-04T14:38:24Z</time>
      </trkpt>
      <trkpt lat="43.42439" lon="6.02715">
        <ele>406.79998779297</ele>
        <time>2017-01-04T14:38:25Z</time>
      </trkpt>
      <trkpt lat="43.42439" lon="6.02703">
        <ele>406.20001220703</ele>
        <time>2017-01-04T14:38:27Z</time>
      </trkpt>
      <trkpt lat="43.42439" lon="6.02698">
        <ele>406</ele>
        <time>2017-01-04T14:38:28Z</time>
      </trkpt>
      <trkpt lat="43.4244" lon="6.02682">
        <ele>405</ele>
        <time>2017-01-04T14:38:31Z</time>
      </trkpt>
      <trkpt lat="43.42441" lon="6.0267">
        <ele>404.60000610352</ele>
        <time>2017-01-04T14:38:35Z</time>
      </trkpt>
      <trkpt lat="43.4244" lon="6.02669">
        <ele>404.79998779297</ele>
        <time>2017-01-04T14:38:38Z</time>
      </trkpt>
      <trkpt lat="43.42441" lon="6.02669">
        <ele>405.20001220703</ele>
        <time>2017-01-04T14:38:44Z</time>
      </trkpt>
      <trkpt lat="43.42441" lon="6.0267">
        <ele>406.20001220703</ele>
        <time>2017-01-04T14:39:11Z</time>
      </trkpt>
      <trkpt lat="43.42441" lon="6.0267">
        <ele>406.39999389648</ele>
        <time>2017-01-04T14:39:25Z</time>
      </trkpt>
      <trkpt lat="43.42441" lon="6.0267">
        <ele>406.39999389648</ele>
        <time>2017-01-04T14:39:35Z</time>
      </trkpt>
      <trkpt lat="43.42441" lon="6.0267">
        <ele>406.20001220703</ele>
        <time>2017-01-04T14:39:39Z</time>
      </trkpt>
      <trkpt lat="43.42442" lon="6.0267">
        <ele>406</ele>
        <time>2017-01-04T14:39:43Z</time>
      </trkpt>
      <trkpt lat="43.42443" lon="6.02669">
        <ele>406</ele>
        <time>2017-01-04T14:39:45Z</time>
      </trkpt>
      <trkpt lat="43.42445" lon="6.02667">
        <ele>406</ele>
        <time>2017-01-04T14:39:47Z</time>
      </trkpt>
      <trkpt lat="43.42452" lon="6.02646">
        <ele>405.20001220703</ele>
        <time>2017-01-04T14:39:55Z</time>
      </trkpt>
      <trkpt lat="43.42458" lon="6.02631">
        <ele>405.20001220703</ele>
        <time>2017-01-04T14:40:00Z</time>
      </trkpt>
      <trkpt lat="43.42467" lon="6.02616">
        <ele>405.20001220703</ele>
        <time>2017-01-04T14:40:05Z</time>
      </trkpt>
      <trkpt lat="43.42492" lon="6.02596">
        <ele>405.20001220703</ele>
        <time>2017-01-04T14:40:15Z</time>
      </trkpt>
      <trkpt lat="43.42514" lon="6.02569">
        <ele>404.20001220703</ele>
        <time>2017-01-04T14:40:25Z</time>
      </trkpt>
      <trkpt lat="43.42514" lon="6.02564">
        <ele>404.20001220703</ele>
        <time>2017-01-04T14:40:28Z</time>
      </trkpt>
      <trkpt lat="43.42524" lon="6.02553">
        <ele>404</ele>
        <time>2017-01-04T14:40:33Z</time>
      </trkpt>
      <trkpt lat="43.42528" lon="6.02546">
        <ele>403.60000610352</ele>
        <time>2017-01-04T14:40:35Z</time>
      </trkpt>
      <trkpt lat="43.42536" lon="6.02526">
        <ele>403.60000610352</ele>
        <time>2017-01-04T14:40:40Z</time>
      </trkpt>
      <trkpt lat="43.42547" lon="6.02514">
        <ele>403.60000610352</ele>
        <time>2017-01-04T14:40:44Z</time>
      </trkpt>
      <trkpt lat="43.4255" lon="6.0251">
        <ele>403.79998779297</ele>
        <time>2017-01-04T14:40:45Z</time>
      </trkpt>
      <trkpt lat="43.42556" lon="6.02478">
        <ele>404.79998779297</ele>
        <time>2017-01-04T14:40:53Z</time>
      </trkpt>
      <trkpt lat="43.42559" lon="6.02472">
        <ele>405.20001220703</ele>
        <time>2017-01-04T14:40:55Z</time>
      </trkpt>
      <trkpt lat="43.42562" lon="6.02456">
        <ele>405.60000610352</ele>
        <time>2017-01-04T14:40:59Z</time>
      </trkpt>
      <trkpt lat="43.42566" lon="6.02427">
        <ele>404.20001220703</ele>
        <time>2017-01-04T14:41:05Z</time>
      </trkpt>
      <trkpt lat="43.42565" lon="6.02422">
        <ele>404</ele>
        <time>2017-01-04T14:41:06Z</time>
      </trkpt>
      <trkpt lat="43.42574" lon="6.02392">
        <ele>402.60000610352</ele>
        <time>2017-01-04T14:41:12Z</time>
      </trkpt>
      <trkpt lat="43.42583" lon="6.02379">
        <ele>401.79998779297</ele>
        <time>2017-01-04T14:41:15Z</time>
      </trkpt>
      <trkpt lat="43.4259" lon="6.02371">
        <ele>401.39999389648</ele>
        <time>2017-01-04T14:41:17Z</time>
      </trkpt>
      <trkpt lat="43.42593" lon="6.02367">
        <ele>401.20001220703</ele>
        <time>2017-01-04T14:41:18Z</time>
      </trkpt>
      <trkpt lat="43.42615" lon="6.02347">
        <ele>401.60000610352</ele>
        <time>2017-01-04T14:41:25Z</time>
      </trkpt>
      <trkpt lat="43.42617" lon="6.02338">
        <ele>402</ele>
        <time>2017-01-04T14:41:27Z</time>
      </trkpt>
      <trkpt lat="43.42618" lon="6.02335">
        <ele>402.39999389648</ele>
        <time>2017-01-04T14:41:28Z</time>
      </trkpt>
      <trkpt lat="43.42623" lon="6.02323">
        <ele>403.39999389648</ele>
        <time>2017-01-04T14:41:31Z</time>
      </trkpt>
      <trkpt lat="43.42628" lon="6.02312">
        <ele>404.20001220703</ele>
        <time>2017-01-04T14:41:34Z</time>
      </trkpt>
      <trkpt lat="43.42632" lon="6.02304">
        <ele>404.79998779297</ele>
        <time>2017-01-04T14:41:36Z</time>
      </trkpt>
      <trkpt lat="43.42633" lon="6.02299">
        <ele>405</ele>
        <time>2017-01-04T14:41:37Z</time>
      </trkpt>
      <trkpt lat="43.42631" lon="6.02283">
        <ele>405.79998779297</ele>
        <time>2017-01-04T14:41:41Z</time>
      </trkpt>
      <trkpt lat="43.4263" lon="6.0226">
        <ele>407.20001220703</ele>
        <time>2017-01-04T14:41:47Z</time>
      </trkpt>
      <trkpt lat="43.42632" lon="6.02246">
        <ele>407.79998779297</ele>
        <time>2017-01-04T14:41:51Z</time>
      </trkpt>
      <trkpt lat="43.42636" lon="6.02231">
        <ele>406.39999389648</ele>
        <time>2017-01-04T14:41:55Z</time>
      </trkpt>
      <trkpt lat="43.4264" lon="6.02225">
        <ele>406.20001220703</ele>
        <time>2017-01-04T14:41:57Z</time>
      </trkpt>
      <trkpt lat="43.42651" lon="6.02216">
        <ele>406.20001220703</ele>
        <time>2017-01-04T14:42:00Z</time>
      </trkpt>
      <trkpt lat="43.42668" lon="6.02199">
        <ele>405</ele>
        <time>2017-01-04T14:42:04Z</time>
      </trkpt>
      <trkpt lat="43.42672" lon="6.02195">
        <ele>404.39999389648</ele>
        <time>2017-01-04T14:42:05Z</time>
      </trkpt>
      <trkpt lat="43.42677" lon="6.02192">
        <ele>404.20001220703</ele>
        <time>2017-01-04T14:42:06Z</time>
      </trkpt>
      <trkpt lat="43.42681" lon="6.0219">
        <ele>403.60000610352</ele>
        <time>2017-01-04T14:42:07Z</time>
      </trkpt>
      <trkpt lat="43.42689" lon="6.02185">
        <ele>402.39999389648</ele>
        <time>2017-01-04T14:42:09Z</time>
      </trkpt>
      <trkpt lat="43.42696" lon="6.02177">
        <ele>401.20001220703</ele>
        <time>2017-01-04T14:42:11Z</time>
      </trkpt>
      <trkpt lat="43.42703" lon="6.02166">
        <ele>399.79998779297</ele>
        <time>2017-01-04T14:42:13Z</time>
      </trkpt>
      <trkpt lat="43.4271" lon="6.02157">
        <ele>398.60000610352</ele>
        <time>2017-01-04T14:42:15Z</time>
      </trkpt>
      <trkpt lat="43.42715" lon="6.02153">
        <ele>398.79998779297</ele>
        <time>2017-01-04T14:42:21Z</time>
      </trkpt>
      <trkpt lat="43.42715" lon="6.02153">
        <ele>398.79998779297</ele>
        <time>2017-01-04T14:42:24Z</time>
      </trkpt>
      <trkpt lat="43.42715" lon="6.02153">
        <ele>398.79998779297</ele>
        <time>2017-01-04T14:42:25Z</time>
      </trkpt>
      <trkpt lat="43.42715" lon="6.02153">
        <ele>398.60000610352</ele>
        <time>2017-01-04T14:42:29Z</time>
      </trkpt>
      <trkpt lat="43.42715" lon="6.02154">
        <ele>399.20001220703</ele>
        <time>2017-01-04T14:42:39Z</time>
      </trkpt>
      <trkpt lat="43.42715" lon="6.02154">
        <ele>399.20001220703</ele>
        <time>2017-01-04T14:42:45Z</time>
      </trkpt>
      <trkpt lat="43.42715" lon="6.02155">
        <ele>399.39999389648</ele>
        <time>2017-01-04T14:42:53Z</time>
      </trkpt>
      <trkpt lat="43.42715" lon="6.02155">
        <ele>399.79998779297</ele>
        <time>2017-01-04T14:42:59Z</time>
      </trkpt>
      <trkpt lat="43.42715" lon="6.02155">
        <ele>399.60000610352</ele>
        <time>2017-01-04T14:43:05Z</time>
      </trkpt>
      <trkpt lat="43.42714" lon="6.02155">
        <ele>399.39999389648</ele>
        <time>2017-01-04T14:43:11Z</time>
      </trkpt>
      <trkpt lat="43.42715" lon="6.02156">
        <ele>399.20001220703</ele>
        <time>2017-01-04T14:43:15Z</time>
      </trkpt>
      <trkpt lat="43.42715" lon="6.02156">
        <ele>398.60000610352</ele>
        <time>2017-01-04T14:43:18Z</time>
      </trkpt>
      <trkpt lat="43.42715" lon="6.02156">
        <ele>398.79998779297</ele>
        <time>2017-01-04T14:43:25Z</time>
      </trkpt>
      <trkpt lat="43.42716" lon="6.02156">
        <ele>398.79998779297</ele>
        <time>2017-01-04T14:43:35Z</time>
      </trkpt>
      <trkpt lat="43.42716" lon="6.02156">
        <ele>398.79998779297</ele>
        <time>2017-01-04T14:43:55Z</time>
      </trkpt>
      <trkpt lat="43.42716" lon="6.02156">
        <ele>398.79998779297</ele>
        <time>2017-01-04T14:43:59Z</time>
      </trkpt>
      <trkpt lat="43.42716" lon="6.02156">
        <ele>398.79998779297</ele>
        <time>2017-01-04T14:44:05Z</time>
      </trkpt>
      <trkpt lat="43.42717" lon="6.02158">
        <ele>398.79998779297</ele>
        <time>2017-01-04T14:44:08Z</time>
      </trkpt>
      <trkpt lat="43.4272" lon="6.02163">
        <ele>399</ele>
        <time>2017-01-04T14:44:11Z</time>
      </trkpt>
      <trkpt lat="43.42721" lon="6.02166">
        <ele>399.79998779297</ele>
        <time>2017-01-04T14:44:12Z</time>
      </trkpt>
      <trkpt lat="43.42722" lon="6.02169">
        <ele>397.20001220703</ele>
        <time>2017-01-04T14:44:13Z</time>
      </trkpt>
      <trkpt lat="43.42727" lon="6.02177">
        <ele>397.79998779297</ele>
        <time>2017-01-04T14:44:15Z</time>
      </trkpt>
      <trkpt lat="43.42734" lon="6.02182">
        <ele>397.79998779297</ele>
        <time>2017-01-04T14:44:17Z</time>
      </trkpt>
      <trkpt lat="43.42742" lon="6.02186">
        <ele>396.60000610352</ele>
        <time>2017-01-04T14:44:19Z</time>
      </trkpt>
      <trkpt lat="43.4275" lon="6.02191">
        <ele>395.39999389648</ele>
        <time>2017-01-04T14:44:21Z</time>
      </trkpt>
      <trkpt lat="43.42754" lon="6.02194">
        <ele>394.39999389648</ele>
        <time>2017-01-04T14:44:22Z</time>
      </trkpt>
      <trkpt lat="43.42757" lon="6.02197">
        <ele>393.20001220703</ele>
        <time>2017-01-04T14:44:23Z</time>
      </trkpt>
      <trkpt lat="43.42763" lon="6.02204">
        <ele>392.20001220703</ele>
        <time>2017-01-04T14:44:25Z</time>
      </trkpt>
      <trkpt lat="43.42766" lon="6.02209">
        <ele>392</ele>
        <time>2017-01-04T14:44:26Z</time>
      </trkpt>
      <trkpt lat="43.42771" lon="6.0222">
        <ele>391.39999389648</ele>
        <time>2017-01-04T14:44:28Z</time>
      </trkpt>
      <trkpt lat="43.42775" lon="6.02232">
        <ele>390.79998779297</ele>
        <time>2017-01-04T14:44:30Z</time>
      </trkpt>
      <trkpt lat="43.42781" lon="6.02243">
        <ele>389.79998779297</ele>
        <time>2017-01-04T14:44:32Z</time>
      </trkpt>
      <trkpt lat="43.42791" lon="6.02258">
        <ele>389</ele>
        <time>2017-01-04T14:44:35Z</time>
      </trkpt>
      <trkpt lat="43.42794" lon="6.02262">
        <ele>388.60000610352</ele>
        <time>2017-01-04T14:44:36Z</time>
      </trkpt>
      <trkpt lat="43.42795" lon="6.02265">
        <ele>388.20001220703</ele>
        <time>2017-01-04T14:44:37Z</time>
      </trkpt>
      <trkpt lat="43.42789" lon="6.02278">
        <ele>387.39999389648</ele>
        <time>2017-01-04T14:44:40Z</time>
      </trkpt>
      <trkpt lat="43.42787" lon="6.02288">
        <ele>387</ele>
        <time>2017-01-04T14:44:42Z</time>
      </trkpt>
      <trkpt lat="43.42791" lon="6.02295">
        <ele>386.79998779297</ele>
        <time>2017-01-04T14:44:44Z</time>
      </trkpt>
      <trkpt lat="43.42797" lon="6.02296">
        <ele>386.39999389648</ele>
        <time>2017-01-04T14:44:46Z</time>
      </trkpt>
      <trkpt lat="43.42805" lon="6.02299">
        <ele>385.79998779297</ele>
        <time>2017-01-04T14:44:48Z</time>
      </trkpt>
      <trkpt lat="43.42809" lon="6.02307">
        <ele>385.20001220703</ele>
        <time>2017-01-04T14:44:50Z</time>
      </trkpt>
      <trkpt lat="43.42805" lon="6.02323">
        <ele>384.79998779297</ele>
        <time>2017-01-04T14:44:53Z</time>
      </trkpt>
      <trkpt lat="43.42801" lon="6.02333">
        <ele>384.20001220703</ele>
        <time>2017-01-04T14:44:55Z</time>
      </trkpt>
      <trkpt lat="43.42798" lon="6.02338">
        <ele>383.60000610352</ele>
        <time>2017-01-04T14:44:56Z</time>
      </trkpt>
      <trkpt lat="43.42795" lon="6.02343">
        <ele>382.79998779297</ele>
        <time>2017-01-04T14:44:57Z</time>
      </trkpt>
      <trkpt lat="43.42792" lon="6.02349">
        <ele>382.20001220703</ele>
        <time>2017-01-04T14:44:58Z</time>
      </trkpt>
      <trkpt lat="43.42789" lon="6.02354">
        <ele>382</ele>
        <time>2017-01-04T14:44:59Z</time>
      </trkpt>
      <trkpt lat="43.42793" lon="6.02376">
        <ele>381.20001220703</ele>
        <time>2017-01-04T14:45:04Z</time>
      </trkpt>
      <trkpt lat="43.42794" lon="6.0238">
        <ele>381</ele>
        <time>2017-01-04T14:45:05Z</time>
      </trkpt>
      <trkpt lat="43.42799" lon="6.02394">
        <ele>380.39999389648</ele>
        <time>2017-01-04T14:45:08Z</time>
      </trkpt>
      <trkpt lat="43.42805" lon="6.0241">
        <ele>379.79998779297</ele>
        <time>2017-01-04T14:45:11Z</time>
      </trkpt>
      <trkpt lat="43.42804" lon="6.0243">
        <ele>378.39999389648</ele>
        <time>2017-01-04T14:45:14Z</time>
      </trkpt>
      <trkpt lat="43.42803" lon="6.02437">
        <ele>377.60000610352</ele>
        <time>2017-01-04T14:45:15Z</time>
      </trkpt>
      <trkpt lat="43.42802" lon="6.02444">
        <ele>376.79998779297</ele>
        <time>2017-01-04T14:45:16Z</time>
      </trkpt>
      <trkpt lat="43.42804" lon="6.02456">
        <ele>375.39999389648</ele>
        <time>2017-01-04T14:45:18Z</time>
      </trkpt>
      <trkpt lat="43.42807" lon="6.02466">
        <ele>373.79998779297</ele>
        <time>2017-01-04T14:45:20Z</time>
      </trkpt>
      <trkpt lat="43.42805" lon="6.02475">
        <ele>372.20001220703</ele>
        <time>2017-01-04T14:45:22Z</time>
      </trkpt>
      <trkpt lat="43.42801" lon="6.02491">
        <ele>371</ele>
        <time>2017-01-04T14:45:25Z</time>
      </trkpt>
      <trkpt lat="43.42797" lon="6.02511">
        <ele>370.39999389648</ele>
        <time>2017-01-04T14:45:29Z</time>
      </trkpt>
      <trkpt lat="43.42802" lon="6.02519">
        <ele>370.20001220703</ele>
        <time>2017-01-04T14:45:31Z</time>
      </trkpt>
      <trkpt lat="43.42806" lon="6.02522">
        <ele>369.79998779297</ele>
        <time>2017-01-04T14:45:32Z</time>
      </trkpt>
      <trkpt lat="43.42817" lon="6.02523">
        <ele>369.20001220703</ele>
        <time>2017-01-04T14:45:35Z</time>
      </trkpt>
      <trkpt lat="43.42825" lon="6.02522">
        <ele>368.79998779297</ele>
        <time>2017-01-04T14:45:37Z</time>
      </trkpt>
      <trkpt lat="43.42842" lon="6.02537">
        <ele>367.79998779297</ele>
        <time>2017-01-04T14:45:42Z</time>
      </trkpt>
      <trkpt lat="43.42849" lon="6.02547">
        <ele>367.79998779297</ele>
        <time>2017-01-04T14:45:44Z</time>
      </trkpt>
      <trkpt lat="43.42853" lon="6.02551">
        <ele>367.60000610352</ele>
        <time>2017-01-04T14:45:45Z</time>
      </trkpt>
      <trkpt lat="43.4286" lon="6.02556">
        <ele>367.20001220703</ele>
        <time>2017-01-04T14:45:47Z</time>
      </trkpt>
      <trkpt lat="43.42866" lon="6.02566">
        <ele>366.60000610352</ele>
        <time>2017-01-04T14:45:49Z</time>
      </trkpt>
      <trkpt lat="43.42877" lon="6.0258">
        <ele>365.39999389648</ele>
        <time>2017-01-04T14:45:52Z</time>
      </trkpt>
      <trkpt lat="43.42886" lon="6.02595">
        <ele>364.39999389648</ele>
        <time>2017-01-04T14:45:55Z</time>
      </trkpt>
      <trkpt lat="43.42889" lon="6.02599">
        <ele>363.79998779297</ele>
        <time>2017-01-04T14:45:56Z</time>
      </trkpt>
      <trkpt lat="43.42892" lon="6.02607">
        <ele>362.79998779297</ele>
        <time>2017-01-04T14:45:58Z</time>
      </trkpt>
      <trkpt lat="43.42897" lon="6.02628">
        <ele>361.39999389648</ele>
        <time>2017-01-04T14:46:02Z</time>
      </trkpt>
      <trkpt lat="43.42901" lon="6.02642">
        <ele>360.20001220703</ele>
        <time>2017-01-04T14:46:05Z</time>
      </trkpt>
      <trkpt lat="43.42902" lon="6.02652">
        <ele>359.60000610352</ele>
        <time>2017-01-04T14:46:07Z</time>
      </trkpt>
      <trkpt lat="43.42905" lon="6.02663">
        <ele>359.39999389648</ele>
        <time>2017-01-04T14:46:09Z</time>
      </trkpt>
      <trkpt lat="43.42919" lon="6.02676">
        <ele>359</ele>
        <time>2017-01-04T14:46:14Z</time>
      </trkpt>
      <trkpt lat="43.42922" lon="6.02679">
        <ele>358.60000610352</ele>
        <time>2017-01-04T14:46:15Z</time>
      </trkpt>
      <trkpt lat="43.42926" lon="6.02693">
        <ele>357.79998779297</ele>
        <time>2017-01-04T14:46:18Z</time>
      </trkpt>
      <trkpt lat="43.42927" lon="6.02712">
        <ele>356.39999389648</ele>
        <time>2017-01-04T14:46:21Z</time>
      </trkpt>
      <trkpt lat="43.42932" lon="6.02725">
        <ele>355</ele>
        <time>2017-01-04T14:46:24Z</time>
      </trkpt>
      <trkpt lat="43.42935" lon="6.02727">
        <ele>354.79998779297</ele>
        <time>2017-01-04T14:46:25Z</time>
      </trkpt>
      <trkpt lat="43.42938" lon="6.02731">
        <ele>354.60000610352</ele>
        <time>2017-01-04T14:46:26Z</time>
      </trkpt>
      <trkpt lat="43.42952" lon="6.0275">
        <ele>353.79998779297</ele>
        <time>2017-01-04T14:46:30Z</time>
      </trkpt>
      <trkpt lat="43.42955" lon="6.02756">
        <ele>353.39999389648</ele>
        <time>2017-01-04T14:46:31Z</time>
      </trkpt>
      <trkpt lat="43.42963" lon="6.02768">
        <ele>352.60000610352</ele>
        <time>2017-01-04T14:46:33Z</time>
      </trkpt>
      <trkpt lat="43.42971" lon="6.02778">
        <ele>351.60000610352</ele>
        <time>2017-01-04T14:46:35Z</time>
      </trkpt>
      <trkpt lat="43.42975" lon="6.02784">
        <ele>351.20001220703</ele>
        <time>2017-01-04T14:46:36Z</time>
      </trkpt>
      <trkpt lat="43.42987" lon="6.02812">
        <ele>350.20001220703</ele>
        <time>2017-01-04T14:46:41Z</time>
      </trkpt>
      <trkpt lat="43.42989" lon="6.0283">
        <ele>349.20001220703</ele>
        <time>2017-01-04T14:46:44Z</time>
      </trkpt>
      <trkpt lat="43.42991" lon="6.02835">
        <ele>348.60000610352</ele>
        <time>2017-01-04T14:46:45Z</time>
      </trkpt>
      <trkpt lat="43.42994" lon="6.02845">
        <ele>347.79998779297</ele>
        <time>2017-01-04T14:46:47Z</time>
      </trkpt>
      <trkpt lat="43.42995" lon="6.02851">
        <ele>347.60000610352</ele>
        <time>2017-01-04T14:46:48Z</time>
      </trkpt>
      <trkpt lat="43.42998" lon="6.02857">
        <ele>347.20001220703</ele>
        <time>2017-01-04T14:46:49Z</time>
      </trkpt>
      <trkpt lat="43.43003" lon="6.02865">
        <ele>346.60000610352</ele>
        <time>2017-01-04T14:46:51Z</time>
      </trkpt>
      <trkpt lat="43.43011" lon="6.02868">
        <ele>346.39999389648</ele>
        <time>2017-01-04T14:46:54Z</time>
      </trkpt>
      <trkpt lat="43.43015" lon="6.02869">
        <ele>346.20001220703</ele>
        <time>2017-01-04T14:46:55Z</time>
      </trkpt>
      <trkpt lat="43.43019" lon="6.02871">
        <ele>346</ele>
        <time>2017-01-04T14:46:56Z</time>
      </trkpt>
      <trkpt lat="43.43027" lon="6.02877">
        <ele>345.60000610352</ele>
        <time>2017-01-04T14:46:58Z</time>
      </trkpt>
      <trkpt lat="43.43031" lon="6.02881">
        <ele>345.20001220703</ele>
        <time>2017-01-04T14:46:59Z</time>
      </trkpt>
      <trkpt lat="43.4304" lon="6.02886">
        <ele>344</ele>
        <time>2017-01-04T14:47:03Z</time>
      </trkpt>
      <trkpt lat="43.4304" lon="6.02886">
        <ele>343.39999389648</ele>
        <time>2017-01-04T14:47:05Z</time>
      </trkpt>
      <trkpt lat="43.43043" lon="6.02887">
        <ele>342.20001220703</ele>
        <time>2017-01-04T14:47:15Z</time>
      </trkpt>
      <trkpt lat="43.43043" lon="6.02886">
        <ele>342</ele>
        <time>2017-01-04T14:47:18Z</time>
      </trkpt>
      <trkpt lat="43.43043" lon="6.02885">
        <ele>342.39999389648</ele>
        <time>2017-01-04T14:47:25Z</time>
      </trkpt>
      <trkpt lat="43.43043" lon="6.02882">
        <ele>342.60000610352</ele>
        <time>2017-01-04T14:47:35Z</time>
      </trkpt>
      <trkpt lat="43.43044" lon="6.02881">
        <ele>342.39999389648</ele>
        <time>2017-01-04T14:47:43Z</time>
      </trkpt>
      <trkpt lat="43.43044" lon="6.02881">
        <ele>342.39999389648</ele>
        <time>2017-01-04T14:47:45Z</time>
      </trkpt>
      <trkpt lat="43.43045" lon="6.02879">
        <ele>342.79998779297</ele>
        <time>2017-01-04T14:48:15Z</time>
      </trkpt>
      <trkpt lat="43.43043" lon="6.02877">
        <ele>342.79998779297</ele>
        <time>2017-01-04T14:48:24Z</time>
      </trkpt>
      <trkpt lat="43.43043" lon="6.02877">
        <ele>342.79998779297</ele>
        <time>2017-01-04T14:48:25Z</time>
      </trkpt>
      <trkpt lat="43.43041" lon="6.02877">
        <ele>342.79998779297</ele>
        <time>2017-01-04T14:48:35Z</time>
      </trkpt>
      <trkpt lat="43.43041" lon="6.02877">
        <ele>342.79998779297</ele>
        <time>2017-01-04T14:48:43Z</time>
      </trkpt>
      <trkpt lat="43.43041" lon="6.02877">
        <ele>342.79998779297</ele>
        <time>2017-01-04T14:48:45Z</time>
      </trkpt>
      <trkpt lat="43.43042" lon="6.02878">
        <ele>342.79998779297</ele>
        <time>2017-01-04T14:48:55Z</time>
      </trkpt>
      <trkpt lat="43.43042" lon="6.02879">
        <ele>342.79998779297</ele>
        <time>2017-01-04T14:49:05Z</time>
      </trkpt>
      <trkpt lat="43.43042" lon="6.02881">
        <ele>342.79998779297</ele>
        <time>2017-01-04T14:49:15Z</time>
      </trkpt>
      <trkpt lat="43.43043" lon="6.02881">
        <ele>342.79998779297</ele>
        <time>2017-01-04T14:49:25Z</time>
      </trkpt>
      <trkpt lat="43.43043" lon="6.02881">
        <ele>342.79998779297</ele>
        <time>2017-01-04T14:49:35Z</time>
      </trkpt>
      <trkpt lat="43.43044" lon="6.02881">
        <ele>342.79998779297</ele>
        <time>2017-01-04T14:49:45Z</time>
      </trkpt>
      <trkpt lat="43.4304" lon="6.02883">
        <ele>342.79998779297</ele>
        <time>2017-01-04T14:49:55Z</time>
      </trkpt>
      <trkpt lat="43.43043" lon="6.02887">
        <ele>342.79998779297</ele>
        <time>2017-01-04T14:50:05Z</time>
      </trkpt>
      <trkpt lat="43.43046" lon="6.02894">
        <ele>343.20001220703</ele>
        <time>2017-01-04T14:50:11Z</time>
      </trkpt>
      <trkpt lat="43.4305" lon="6.029">
        <ele>341.79998779297</ele>
        <time>2017-01-04T14:50:13Z</time>
      </trkpt>
      <trkpt lat="43.43055" lon="6.02905">
        <ele>342</ele>
        <time>2017-01-04T14:50:15Z</time>
      </trkpt>
      <trkpt lat="43.43082" lon="6.02944">
        <ele>342.39999389648</ele>
        <time>2017-01-04T14:50:25Z</time>
      </trkpt>
      <trkpt lat="43.43095" lon="6.02965">
        <ele>340.39999389648</ele>
        <time>2017-01-04T14:50:30Z</time>
      </trkpt>
      <trkpt lat="43.43108" lon="6.02988">
        <ele>340.39999389648</ele>
        <time>2017-01-04T14:50:35Z</time>
      </trkpt>
      <trkpt lat="43.43114" lon="6.03002">
        <ele>339.20001220703</ele>
        <time>2017-01-04T14:50:38Z</time>
      </trkpt>
      <trkpt lat="43.43121" lon="6.03018">
        <ele>337.79998779297</ele>
        <time>2017-01-04T14:50:41Z</time>
      </trkpt>
      <trkpt lat="43.4313" lon="6.03036">
        <ele>337.20001220703</ele>
        <time>2017-01-04T14:50:45Z</time>
      </trkpt>
      <trkpt lat="43.43133" lon="6.03045">
        <ele>336.79998779297</ele>
        <time>2017-01-04T14:50:47Z</time>
      </trkpt>
      <trkpt lat="43.43137" lon="6.03067">
        <ele>335.79998779297</ele>
        <time>2017-01-04T14:50:51Z</time>
      </trkpt>
      <trkpt lat="43.43137" lon="6.03073">
        <ele>335.20001220703</ele>
        <time>2017-01-04T14:50:52Z</time>
      </trkpt>
      <trkpt lat="43.43136" lon="6.0308">
        <ele>334.60000610352</ele>
        <time>2017-01-04T14:50:53Z</time>
      </trkpt>
      <trkpt lat="43.43135" lon="6.03086">
        <ele>333.79998779297</ele>
        <time>2017-01-04T14:50:54Z</time>
      </trkpt>
      <trkpt lat="43.43135" lon="6.03093">
        <ele>333.39999389648</ele>
        <time>2017-01-04T14:50:55Z</time>
      </trkpt>
      <trkpt lat="43.43133" lon="6.03128">
        <ele>331.79998779297</ele>
        <time>2017-01-04T14:51:01Z</time>
      </trkpt>
      <trkpt lat="43.43132" lon="6.03134">
        <ele>331.79998779297</ele>
        <time>2017-01-04T14:51:02Z</time>
      </trkpt>
      <trkpt lat="43.43132" lon="6.03152">
        <ele>331.39999389648</ele>
        <time>2017-01-04T14:51:05Z</time>
      </trkpt>
      <trkpt lat="43.43131" lon="6.03169">
        <ele>331.20001220703</ele>
        <time>2017-01-04T14:51:08Z</time>
      </trkpt>
      <trkpt lat="43.43132" lon="6.03187">
        <ele>331.79998779297</ele>
        <time>2017-01-04T14:51:13Z</time>
      </trkpt>
      <trkpt lat="43.43132" lon="6.03192">
        <ele>332.60000610352</ele>
        <time>2017-01-04T14:51:15Z</time>
      </trkpt>
      <trkpt lat="43.43131" lon="6.03196">
        <ele>333.60000610352</ele>
        <time>2017-01-04T14:51:17Z</time>
      </trkpt>
      <trkpt lat="43.43131" lon="6.03198">
        <ele>334</ele>
        <time>2017-01-04T14:51:18Z</time>
      </trkpt>
      <trkpt lat="43.4313" lon="6.03203">
        <ele>335.39999389648</ele>
        <time>2017-01-04T14:51:21Z</time>
      </trkpt>
      <trkpt lat="43.4313" lon="6.03209">
        <ele>337.20001220703</ele>
        <time>2017-01-04T14:51:25Z</time>
      </trkpt>
      <trkpt lat="43.4313" lon="6.03217">
        <ele>337.79998779297</ele>
        <time>2017-01-04T14:51:30Z</time>
      </trkpt>
      <trkpt lat="43.4313" lon="6.03226">
        <ele>338.79998779297</ele>
        <time>2017-01-04T14:51:35Z</time>
      </trkpt>
      <trkpt lat="43.43129" lon="6.03234">
        <ele>339.60000610352</ele>
        <time>2017-01-04T14:51:40Z</time>
      </trkpt>
      <trkpt lat="43.43129" lon="6.03235">
        <ele>339.60000610352</ele>
        <time>2017-01-04T14:51:44Z</time>
      </trkpt>
      <trkpt lat="43.43129" lon="6.03235">
        <ele>339.60000610352</ele>
        <time>2017-01-04T14:51:45Z</time>
      </trkpt>
      <trkpt lat="43.43129" lon="6.03234">
        <ele>339.60000610352</ele>
        <time>2017-01-04T14:51:54Z</time>
      </trkpt>
      <trkpt lat="43.43128" lon="6.03233">
        <ele>339.20001220703</ele>
        <time>2017-01-04T14:52:05Z</time>
      </trkpt>
      <trkpt lat="43.43128" lon="6.03233">
        <ele>339.60000610352</ele>
        <time>2017-01-04T14:52:09Z</time>
      </trkpt>
      <trkpt lat="43.43127" lon="6.03233">
        <ele>339.79998779297</ele>
        <time>2017-01-04T14:52:13Z</time>
      </trkpt>
      <trkpt lat="43.43127" lon="6.03233">
        <ele>339.79998779297</ele>
        <time>2017-01-04T14:52:15Z</time>
      </trkpt>
      <trkpt lat="43.43128" lon="6.03233">
        <ele>339.60000610352</ele>
        <time>2017-01-04T14:52:18Z</time>
      </trkpt>
      <trkpt lat="43.43128" lon="6.03234">
        <ele>339.60000610352</ele>
        <time>2017-01-04T14:52:24Z</time>
      </trkpt>
      <trkpt lat="43.43128" lon="6.03235">
        <ele>339.39999389648</ele>
        <time>2017-01-04T14:52:40Z</time>
      </trkpt>
      <trkpt lat="43.43128" lon="6.03235">
        <ele>339</ele>
        <time>2017-01-04T14:53:05Z</time>
      </trkpt>
      <trkpt lat="43.43128" lon="6.03235">
        <ele>339</ele>
        <time>2017-01-04T14:53:15Z</time>
      </trkpt>
      <trkpt lat="43.43128" lon="6.03235">
        <ele>339</ele>
        <time>2017-01-04T14:53:35Z</time>
      </trkpt>
      <trkpt lat="43.43128" lon="6.03234">
        <ele>339</ele>
        <time>2017-01-04T14:53:45Z</time>
      </trkpt>
      <trkpt lat="43.43127" lon="6.03234">
        <ele>339</ele>
        <time>2017-01-04T14:53:59Z</time>
      </trkpt>
      <trkpt lat="43.43127" lon="6.03235">
        <ele>339</ele>
        <time>2017-01-04T14:54:05Z</time>
      </trkpt>
      <trkpt lat="43.43128" lon="6.03235">
        <ele>339</ele>
        <time>2017-01-04T14:54:14Z</time>
      </trkpt>
      <trkpt lat="43.43128" lon="6.03235">
        <ele>339</ele>
        <time>2017-01-04T14:54:15Z</time>
      </trkpt>
      <trkpt lat="43.43127" lon="6.03237">
        <ele>339</ele>
        <time>2017-01-04T14:54:22Z</time>
      </trkpt>
      <trkpt lat="43.43127" lon="6.03241">
        <ele>339</ele>
        <time>2017-01-04T14:54:24Z</time>
      </trkpt>
      <trkpt lat="43.43127" lon="6.03244">
        <ele>339.20001220703</ele>
        <time>2017-01-04T14:54:25Z</time>
      </trkpt>
      <trkpt lat="43.43126" lon="6.0325">
        <ele>340</ele>
        <time>2017-01-04T14:54:27Z</time>
      </trkpt>
      <trkpt lat="43.43125" lon="6.0327">
        <ele>339.39999389648</ele>
        <time>2017-01-04T14:54:33Z</time>
      </trkpt>
      <trkpt lat="43.43124" lon="6.03279">
        <ele>339.39999389648</ele>
        <time>2017-01-04T14:54:35Z</time>
      </trkpt>
      <trkpt lat="43.43124" lon="6.03306">
        <ele>338.79998779297</ele>
        <time>2017-01-04T14:54:40Z</time>
      </trkpt>
      <trkpt lat="43.43122" lon="6.03336">
        <ele>338.79998779297</ele>
        <time>2017-01-04T14:54:45Z</time>
      </trkpt>
      <trkpt lat="43.43119" lon="6.03366">
        <ele>337</ele>
        <time>2017-01-04T14:54:50Z</time>
      </trkpt>
      <trkpt lat="43.43119" lon="6.03372">
        <ele>335.79998779297</ele>
        <time>2017-01-04T14:54:51Z</time>
      </trkpt>
      <trkpt lat="43.43118" lon="6.03395">
        <ele>334.79998779297</ele>
        <time>2017-01-04T14:54:54Z</time>
      </trkpt>
      <trkpt lat="43.43118" lon="6.03403">
        <ele>334.60000610352</ele>
        <time>2017-01-04T14:54:55Z</time>
      </trkpt>
      <trkpt lat="43.43115" lon="6.0342">
        <ele>334.79998779297</ele>
        <time>2017-01-04T14:54:57Z</time>
      </trkpt>
      <trkpt lat="43.43114" lon="6.03438">
        <ele>335</ele>
        <time>2017-01-04T14:54:59Z</time>
      </trkpt>
      <trkpt lat="43.43112" lon="6.03456">
        <ele>334.79998779297</ele>
        <time>2017-01-04T14:55:01Z</time>
      </trkpt>
      <trkpt lat="43.4311" lon="6.03475">
        <ele>334.60000610352</ele>
        <time>2017-01-04T14:55:03Z</time>
      </trkpt>
      <trkpt lat="43.43108" lon="6.03494">
        <ele>334</ele>
        <time>2017-01-04T14:55:05Z</time>
      </trkpt>
      <trkpt lat="43.43106" lon="6.03551">
        <ele>332.60000610352</ele>
        <time>2017-01-04T14:55:11Z</time>
      </trkpt>
      <trkpt lat="43.43106" lon="6.03561">
        <ele>332.39999389648</ele>
        <time>2017-01-04T14:55:12Z</time>
      </trkpt>
      <trkpt lat="43.43108" lon="6.03578">
        <ele>331.60000610352</ele>
        <time>2017-01-04T14:55:14Z</time>
      </trkpt>
      <trkpt lat="43.43108" lon="6.03587">
        <ele>331.39999389648</ele>
        <time>2017-01-04T14:55:15Z</time>
      </trkpt>
      <trkpt lat="43.43107" lon="6.03595">
        <ele>331.39999389648</ele>
        <time>2017-01-04T14:55:16Z</time>
      </trkpt>
      <trkpt lat="43.43106" lon="6.03604">
        <ele>331.20001220703</ele>
        <time>2017-01-04T14:55:17Z</time>
      </trkpt>
      <trkpt lat="43.43102" lon="6.03622">
        <ele>330.60000610352</ele>
        <time>2017-01-04T14:55:19Z</time>
      </trkpt>
      <trkpt lat="43.431" lon="6.03643">
        <ele>330</ele>
        <time>2017-01-04T14:55:21Z</time>
      </trkpt>
      <trkpt lat="43.43098" lon="6.03662">
        <ele>329.39999389648</ele>
        <time>2017-01-04T14:55:23Z</time>
      </trkpt>
      <trkpt lat="43.43098" lon="6.0368">
        <ele>329.20001220703</ele>
        <time>2017-01-04T14:55:25Z</time>
      </trkpt>
      <trkpt lat="43.43097" lon="6.03717">
        <ele>329.20001220703</ele>
        <time>2017-01-04T14:55:30Z</time>
      </trkpt>
      <trkpt lat="43.43098" lon="6.03723">
        <ele>329</ele>
        <time>2017-01-04T14:55:31Z</time>
      </trkpt>
      <trkpt lat="43.43099" lon="6.03725">
        <ele>328.79998779297</ele>
        <time>2017-01-04T14:55:32Z</time>
      </trkpt>
      <trkpt lat="43.43105" lon="6.03727">
        <ele>328.60000610352</ele>
        <time>2017-01-04T14:55:35Z</time>
      </trkpt>
      <trkpt lat="43.43108" lon="6.03727">
        <ele>328.60000610352</ele>
        <time>2017-01-04T14:55:36Z</time>
      </trkpt>
      <trkpt lat="43.43114" lon="6.03734">
        <ele>327.79998779297</ele>
        <time>2017-01-04T14:55:39Z</time>
      </trkpt>
      <trkpt lat="43.43118" lon="6.03742">
        <ele>326.60000610352</ele>
        <time>2017-01-04T14:55:43Z</time>
      </trkpt>
      <trkpt lat="43.4312" lon="6.03744">
        <ele>326.39999389648</ele>
        <time>2017-01-04T14:55:44Z</time>
      </trkpt>
      <trkpt lat="43.43122" lon="6.03744">
        <ele>326.20001220703</ele>
        <time>2017-01-04T14:55:45Z</time>
      </trkpt>
      <trkpt lat="43.43128" lon="6.03752">
        <ele>326.20001220703</ele>
        <time>2017-01-04T14:55:49Z</time>
      </trkpt>
      <trkpt lat="43.43125" lon="6.03764">
        <ele>326.20001220703</ele>
        <time>2017-01-04T14:55:54Z</time>
      </trkpt>
      <trkpt lat="43.43126" lon="6.03767">
        <ele>326.20001220703</ele>
        <time>2017-01-04T14:55:55Z</time>
      </trkpt>
      <trkpt lat="43.43136" lon="6.03791">
        <ele>326</ele>
        <time>2017-01-04T14:56:04Z</time>
      </trkpt>
      <trkpt lat="43.43137" lon="6.0381">
        <ele>325.60000610352</ele>
        <time>2017-01-04T14:56:09Z</time>
      </trkpt>
      <trkpt lat="43.43142" lon="6.03834">
        <ele>325.20001220703</ele>
        <time>2017-01-04T14:56:15Z</time>
      </trkpt>
      <trkpt lat="43.43145" lon="6.0385">
        <ele>324.60000610352</ele>
        <time>2017-01-04T14:56:19Z</time>
      </trkpt>
      <trkpt lat="43.43144" lon="6.03867">
        <ele>324.20001220703</ele>
        <time>2017-01-04T14:56:23Z</time>
      </trkpt>
      <trkpt lat="43.43144" lon="6.03875">
        <ele>323.79998779297</ele>
        <time>2017-01-04T14:56:25Z</time>
      </trkpt>
      <trkpt lat="43.43144" lon="6.03886">
        <ele>323.39999389648</ele>
        <time>2017-01-04T14:56:28Z</time>
      </trkpt>
      <trkpt lat="43.43141" lon="6.03894">
        <ele>323</ele>
        <time>2017-01-04T14:56:31Z</time>
      </trkpt>
      <trkpt lat="43.43143" lon="6.03906">
        <ele>322.79998779297</ele>
        <time>2017-01-04T14:56:35Z</time>
      </trkpt>
      <trkpt lat="43.43141" lon="6.03918">
        <ele>322.60000610352</ele>
        <time>2017-01-04T14:56:40Z</time>
      </trkpt>
      <trkpt lat="43.43138" lon="6.03923">
        <ele>322.39999389648</ele>
        <time>2017-01-04T14:56:42Z</time>
      </trkpt>
      <trkpt lat="43.43132" lon="6.03932">
        <ele>321.79998779297</ele>
        <time>2017-01-04T14:56:45Z</time>
      </trkpt>
      <trkpt lat="43.43122" lon="6.0396">
        <ele>321.20001220703</ele>
        <time>2017-01-04T14:56:53Z</time>
      </trkpt>
      <trkpt lat="43.43119" lon="6.03966">
        <ele>321.20001220703</ele>
        <time>2017-01-04T14:56:55Z</time>
      </trkpt>
      <trkpt lat="43.43111" lon="6.03979">
        <ele>320.39999389648</ele>
        <time>2017-01-04T14:57:01Z</time>
      </trkpt>
      <trkpt lat="43.43111" lon="6.03979">
        <ele>320.39999389648</ele>
        <time>2017-01-04T14:57:02Z</time>
      </trkpt>
      <trkpt lat="43.43111" lon="6.03979">
        <ele>320.20001220703</ele>
        <time>2017-01-04T14:57:04Z</time>
      </trkpt>
      <trkpt lat="43.4311" lon="6.03979">
        <ele>320.20001220703</ele>
        <time>2017-01-04T14:57:05Z</time>
      </trkpt>
      <trkpt lat="43.43108" lon="6.03981">
        <ele>320</ele>
        <time>2017-01-04T14:57:09Z</time>
      </trkpt>
      <trkpt lat="43.43107" lon="6.03987">
        <ele>320.79998779297</ele>
        <time>2017-01-04T14:57:15Z</time>
      </trkpt>
      <trkpt lat="43.43106" lon="6.03987">
        <ele>320.39999389648</ele>
        <time>2017-01-04T14:57:25Z</time>
      </trkpt>
      <trkpt lat="43.43105" lon="6.03987">
        <ele>320.39999389648</ele>
        <time>2017-01-04T14:57:26Z</time>
      </trkpt>
      <trkpt lat="43.43102" lon="6.03994">
        <ele>320.20001220703</ele>
        <time>2017-01-04T14:57:29Z</time>
      </trkpt>
      <trkpt lat="43.43096" lon="6.04008">
        <ele>319.79998779297</ele>
        <time>2017-01-04T14:57:35Z</time>
      </trkpt>
      <trkpt lat="43.43084" lon="6.04022">
        <ele>319.79998779297</ele>
        <time>2017-01-04T14:57:42Z</time>
      </trkpt>
      <trkpt lat="43.43082" lon="6.04024">
        <ele>319.79998779297</ele>
        <time>2017-01-04T14:57:45Z</time>
      </trkpt>
      <trkpt lat="43.43081" lon="6.04027">
        <ele>320</ele>
        <time>2017-01-04T14:57:50Z</time>
      </trkpt>
      <trkpt lat="43.43081" lon="6.04028">
        <ele>320.39999389648</ele>
        <time>2017-01-04T14:58:02Z</time>
      </trkpt>
      <trkpt lat="43.43081" lon="6.04028">
        <ele>320.39999389648</ele>
        <time>2017-01-04T14:58:05Z</time>
      </trkpt>
      <trkpt lat="43.43081" lon="6.04029">
        <ele>320.39999389648</ele>
        <time>2017-01-04T14:58:15Z</time>
      </trkpt>
      <trkpt lat="43.43081" lon="6.04029">
        <ele>320.39999389648</ele>
        <time>2017-01-04T14:58:25Z</time>
      </trkpt>
      <trkpt lat="43.43081" lon="6.04029">
        <ele>319.79998779297</ele>
        <time>2017-01-04T14:58:35Z</time>
      </trkpt>
      <trkpt lat="43.43081" lon="6.04029">
        <ele>320.20001220703</ele>
        <time>2017-01-04T14:58:45Z</time>
      </trkpt>
      <trkpt lat="43.43079" lon="6.04028">
        <ele>319.79998779297</ele>
        <time>2017-01-04T14:59:05Z</time>
      </trkpt>
      <trkpt lat="43.43076" lon="6.04019">
        <ele>319.79998779297</ele>
        <time>2017-01-04T14:59:10Z</time>
      </trkpt>
      <trkpt lat="43.43071" lon="6.04015">
        <ele>320</ele>
        <time>2017-01-04T14:59:13Z</time>
      </trkpt>
      <trkpt lat="43.43067" lon="6.04017">
        <ele>320.20001220703</ele>
        <time>2017-01-04T14:59:15Z</time>
      </trkpt>
      <trkpt lat="43.43057" lon="6.04054">
        <ele>320.39999389648</ele>
        <time>2017-01-04T14:59:25Z</time>
      </trkpt>
      <trkpt lat="43.43052" lon="6.04075">
        <ele>320.20001220703</ele>
        <time>2017-01-04T14:59:35Z</time>
      </trkpt>
      <trkpt lat="43.43048" lon="6.04096">
        <ele>320</ele>
        <time>2017-01-04T14:59:41Z</time>
      </trkpt>
      <trkpt lat="43.43045" lon="6.04112">
        <ele>320</ele>
        <time>2017-01-04T14:59:45Z</time>
      </trkpt>
      <trkpt lat="43.43042" lon="6.0413">
        <ele>319.39999389648</ele>
        <time>2017-01-04T14:59:49Z</time>
      </trkpt>
      <trkpt lat="43.4304" lon="6.04139">
        <ele>319</ele>
        <time>2017-01-04T14:59:51Z</time>
      </trkpt>
      <trkpt lat="43.43036" lon="6.04156">
        <ele>318.79998779297</ele>
        <time>2017-01-04T14:59:55Z</time>
      </trkpt>
      <trkpt lat="43.43028" lon="6.04198">
        <ele>319</ele>
        <time>2017-01-04T15:00:05Z</time>
      </trkpt>
      <trkpt lat="43.43019" lon="6.04237">
        <ele>319.60000610352</ele>
        <time>2017-01-04T15:00:15Z</time>
      </trkpt>
      <trkpt lat="43.4301" lon="6.04279">
        <ele>319.79998779297</ele>
        <time>2017-01-04T15:00:25Z</time>
      </trkpt>
      <trkpt lat="43.43006" lon="6.04321">
        <ele>318.20001220703</ele>
        <time>2017-01-04T15:00:32Z</time>
      </trkpt>
      <trkpt lat="43.43005" lon="6.04328">
        <ele>317.60000610352</ele>
        <time>2017-01-04T15:00:33Z</time>
      </trkpt>
      <trkpt lat="43.43003" lon="6.0434">
        <ele>317</ele>
        <time>2017-01-04T15:00:35Z</time>
      </trkpt>
      <trkpt lat="43.43003" lon="6.0435">
        <ele>316.60000610352</ele>
        <time>2017-01-04T15:00:37Z</time>
      </trkpt>
      <trkpt lat="43.43002" lon="6.04368">
        <ele>317.60000610352</ele>
        <time>2017-01-04T15:00:41Z</time>
      </trkpt>
      <trkpt lat="43.43002" lon="6.04382">
        <ele>318.39999389648</ele>
        <time>2017-01-04T15:00:44Z</time>
      </trkpt>
      <trkpt lat="43.43001" lon="6.04387">
        <ele>318.60000610352</ele>
        <time>2017-01-04T15:00:45Z</time>
      </trkpt>
      <trkpt lat="43.42999" lon="6.04396">
        <ele>319</ele>
        <time>2017-01-04T15:00:47Z</time>
      </trkpt>
      <trkpt lat="43.42996" lon="6.04404">
        <ele>319.20001220703</ele>
        <time>2017-01-04T15:00:49Z</time>
      </trkpt>
      <trkpt lat="43.42995" lon="6.04411">
        <ele>320</ele>
        <time>2017-01-04T15:00:51Z</time>
      </trkpt>
      <trkpt lat="43.42993" lon="6.04422">
        <ele>320.39999389648</ele>
        <time>2017-01-04T15:00:55Z</time>
      </trkpt>
      <trkpt lat="43.42989" lon="6.04447">
        <ele>320.39999389648</ele>
        <time>2017-01-04T15:01:05Z</time>
      </trkpt>
      <trkpt lat="43.42979" lon="6.04484">
        <ele>320.20001220703</ele>
        <time>2017-01-04T15:01:14Z</time>
      </trkpt>
      <trkpt lat="43.42978" lon="6.04491">
        <ele>319.60000610352</ele>
        <time>2017-01-04T15:01:15Z</time>
      </trkpt>
      <trkpt lat="43.42977" lon="6.04505">
        <ele>318.60000610352</ele>
        <time>2017-01-04T15:01:17Z</time>
      </trkpt>
      <trkpt lat="43.42976" lon="6.04518">
        <ele>317.20001220703</ele>
        <time>2017-01-04T15:01:19Z</time>
      </trkpt>
      <trkpt lat="43.42977" lon="6.0453">
        <ele>315.39999389648</ele>
        <time>2017-01-04T15:01:21Z</time>
      </trkpt>
      <trkpt lat="43.42978" lon="6.04543">
        <ele>313.39999389648</ele>
        <time>2017-01-04T15:01:23Z</time>
      </trkpt>
      <trkpt lat="43.42978" lon="6.04549">
        <ele>312.39999389648</ele>
        <time>2017-01-04T15:01:24Z</time>
      </trkpt>
      <trkpt lat="43.42978" lon="6.04554">
        <ele>311.60000610352</ele>
        <time>2017-01-04T15:01:25Z</time>
      </trkpt>
      <trkpt lat="43.42978" lon="6.04558">
        <ele>311.20001220703</ele>
        <time>2017-01-04T15:01:26Z</time>
      </trkpt>
      <trkpt lat="43.42978" lon="6.04574">
        <ele>310.39999389648</ele>
        <time>2017-01-04T15:01:30Z</time>
      </trkpt>
      <trkpt lat="43.42975" lon="6.04588">
        <ele>312.39999389648</ele>
        <time>2017-01-04T15:01:34Z</time>
      </trkpt>
      <trkpt lat="43.42973" lon="6.04602">
        <ele>313.20001220703</ele>
        <time>2017-01-04T15:01:38Z</time>
      </trkpt>
      <trkpt lat="43.42972" lon="6.04611">
        <ele>312.79998779297</ele>
        <time>2017-01-04T15:01:41Z</time>
      </trkpt>
      <trkpt lat="43.42971" lon="6.04619">
        <ele>313.60000610352</ele>
        <time>2017-01-04T15:01:44Z</time>
      </trkpt>
      <trkpt lat="43.42971" lon="6.04621">
        <ele>313.79998779297</ele>
        <time>2017-01-04T15:01:45Z</time>
      </trkpt>
      <trkpt lat="43.42968" lon="6.04643">
        <ele>314</ele>
        <time>2017-01-04T15:01:52Z</time>
      </trkpt>
      <trkpt lat="43.42967" lon="6.04651">
        <ele>313.79998779297</ele>
        <time>2017-01-04T15:01:55Z</time>
      </trkpt>
      <trkpt lat="43.42963" lon="6.04673">
        <ele>314.39999389648</ele>
        <time>2017-01-04T15:02:01Z</time>
      </trkpt>
      <trkpt lat="43.42963" lon="6.04686">
        <ele>314.20001220703</ele>
        <time>2017-01-04T15:02:05Z</time>
      </trkpt>
      <trkpt lat="43.42958" lon="6.04719">
        <ele>314.20001220703</ele>
        <time>2017-01-04T15:02:15Z</time>
      </trkpt>
      <trkpt lat="43.42952" lon="6.04769">
        <ele>313.79998779297</ele>
        <time>2017-01-04T15:02:25Z</time>
      </trkpt>
      <trkpt lat="43.42952" lon="6.04793">
        <ele>312.20001220703</ele>
        <time>2017-01-04T15:02:29Z</time>
      </trkpt>
      <trkpt lat="43.42947" lon="6.04826">
        <ele>311</ele>
        <time>2017-01-04T15:02:34Z</time>
      </trkpt>
      <trkpt lat="43.42947" lon="6.04833">
        <ele>310.79998779297</ele>
        <time>2017-01-04T15:02:35Z</time>
      </trkpt>
      <trkpt lat="43.42942" lon="6.04856">
        <ele>310.60000610352</ele>
        <time>2017-01-04T15:02:39Z</time>
      </trkpt>
      <trkpt lat="43.42938" lon="6.0487">
        <ele>311.60000610352</ele>
        <time>2017-01-04T15:02:42Z</time>
      </trkpt>
      <trkpt lat="43.42936" lon="6.04881">
        <ele>312.60000610352</ele>
        <time>2017-01-04T15:02:45Z</time>
      </trkpt>
      <trkpt lat="43.42934" lon="6.04889">
        <ele>314</ele>
        <time>2017-01-04T15:02:48Z</time>
      </trkpt>
      <trkpt lat="43.42934" lon="6.04897">
        <ele>315.20001220703</ele>
        <time>2017-01-04T15:02:51Z</time>
      </trkpt>
      <trkpt lat="43.42934" lon="6.04905">
        <ele>316.39999389648</ele>
        <time>2017-01-04T15:02:55Z</time>
      </trkpt>
      <trkpt lat="43.42933" lon="6.04911">
        <ele>317.39999389648</ele>
        <time>2017-01-04T15:02:59Z</time>
      </trkpt>
      <trkpt lat="43.42934" lon="6.04916">
        <ele>317.60000610352</ele>
        <time>2017-01-04T15:03:02Z</time>
      </trkpt>
      <trkpt lat="43.42933" lon="6.0492">
        <ele>317.60000610352</ele>
        <time>2017-01-04T15:03:05Z</time>
      </trkpt>
      <trkpt lat="43.42933" lon="6.0492">
        <ele>317.79998779297</ele>
        <time>2017-01-04T15:03:07Z</time>
      </trkpt>
      <trkpt lat="43.42933" lon="6.0492">
        <ele>318.20001220703</ele>
        <time>2017-01-04T15:03:12Z</time>
      </trkpt>
      <trkpt lat="43.42933" lon="6.0492">
        <ele>318.39999389648</ele>
        <time>2017-01-04T15:03:15Z</time>
      </trkpt>
      <trkpt lat="43.42933" lon="6.04919">
        <ele>318.39999389648</ele>
        <time>2017-01-04T15:03:20Z</time>
      </trkpt>
      <trkpt lat="43.42933" lon="6.04919">
        <ele>318.39999389648</ele>
        <time>2017-01-04T15:03:23Z</time>
      </trkpt>
      <trkpt lat="43.42933" lon="6.04919">
        <ele>318.60000610352</ele>
        <time>2017-01-04T15:03:25Z</time>
      </trkpt>
      <trkpt lat="43.42933" lon="6.0492">
        <ele>318.20001220703</ele>
        <time>2017-01-04T15:03:41Z</time>
      </trkpt>
      <trkpt lat="43.42933" lon="6.04919">
        <ele>318.20001220703</ele>
        <time>2017-01-04T15:03:43Z</time>
      </trkpt>
      <trkpt lat="43.42933" lon="6.04919">
        <ele>318.20001220703</ele>
        <time>2017-01-04T15:03:45Z</time>
      </trkpt>
      <trkpt lat="43.42933" lon="6.04919">
        <ele>318.20001220703</ele>
        <time>2017-01-04T15:03:50Z</time>
      </trkpt>
      <trkpt lat="43.42933" lon="6.04919">
        <ele>318.20001220703</ele>
        <time>2017-01-04T15:03:55Z</time>
      </trkpt>
      <trkpt lat="43.42933" lon="6.04918">
        <ele>318.20001220703</ele>
        <time>2017-01-04T15:04:05Z</time>
      </trkpt>
      <trkpt lat="43.42933" lon="6.04918">
        <ele>318.20001220703</ele>
        <time>2017-01-04T15:04:08Z</time>
      </trkpt>
      <trkpt lat="43.42933" lon="6.04918">
        <ele>318.39999389648</ele>
        <time>2017-01-04T15:04:11Z</time>
      </trkpt>
      <trkpt lat="43.42933" lon="6.04918">
        <ele>318.39999389648</ele>
        <time>2017-01-04T15:04:15Z</time>
      </trkpt>
      <trkpt lat="43.42933" lon="6.04919">
        <ele>318.39999389648</ele>
        <time>2017-01-04T15:04:17Z</time>
      </trkpt>
      <trkpt lat="43.42933" lon="6.0492">
        <ele>318.39999389648</ele>
        <time>2017-01-04T15:04:35Z</time>
      </trkpt>
      <trkpt lat="43.42933" lon="6.04921">
        <ele>318.39999389648</ele>
        <time>2017-01-04T15:04:43Z</time>
      </trkpt>
      <trkpt lat="43.42933" lon="6.04924">
        <ele>318.20001220703</ele>
        <time>2017-01-04T15:04:45Z</time>
      </trkpt>
      <trkpt lat="43.42933" lon="6.04926">
        <ele>317.79998779297</ele>
        <time>2017-01-04T15:04:46Z</time>
      </trkpt>
      <trkpt lat="43.42933" lon="6.04936">
        <ele>318</ele>
        <time>2017-01-04T15:04:50Z</time>
      </trkpt>
      <trkpt lat="43.42931" lon="6.04951">
        <ele>318.60000610352</ele>
        <time>2017-01-04T15:04:55Z</time>
      </trkpt>
      <trkpt lat="43.42927" lon="6.04984">
        <ele>318.39999389648</ele>
        <time>2017-01-04T15:05:05Z</time>
      </trkpt>
      <trkpt lat="43.42923" lon="6.05017">
        <ele>319.20001220703</ele>
        <time>2017-01-04T15:05:15Z</time>
      </trkpt>
      <trkpt lat="43.42922" lon="6.05024">
        <ele>319.60000610352</ele>
        <time>2017-01-04T15:05:17Z</time>
      </trkpt>
      <trkpt lat="43.4292" lon="6.0505">
        <ele>320.20001220703</ele>
        <time>2017-01-04T15:05:25Z</time>
      </trkpt>
      <trkpt lat="43.42915" lon="6.05087">
        <ele>320.20001220703</ele>
        <time>2017-01-04T15:05:35Z</time>
      </trkpt>
      <trkpt lat="43.42914" lon="6.05102">
        <ele>320.60000610352</ele>
        <time>2017-01-04T15:05:39Z</time>
      </trkpt>
      <trkpt lat="43.4291" lon="6.05134">
        <ele>321.79998779297</ele>
        <time>2017-01-04T15:05:48Z</time>
      </trkpt>
      <trkpt lat="43.42907" lon="6.05161">
        <ele>322.79998779297</ele>
        <time>2017-01-04T15:05:56Z</time>
      </trkpt>
      <trkpt lat="43.42904" lon="6.05188">
        <ele>324</ele>
        <time>2017-01-04T15:06:04Z</time>
      </trkpt>
      <trkpt lat="43.42898" lon="6.0523">
        <ele>324.20001220703</ele>
        <time>2017-01-04T15:06:15Z</time>
      </trkpt>
      <trkpt lat="43.42895" lon="6.05261">
        <ele>325</ele>
        <time>2017-01-04T15:06:23Z</time>
      </trkpt>
      <trkpt lat="43.42894" lon="6.05269">
        <ele>325.20001220703</ele>
        <time>2017-01-04T15:06:25Z</time>
      </trkpt>
      <trkpt lat="43.42889" lon="6.05312">
        <ele>325.20001220703</ele>
        <time>2017-01-04T15:06:35Z</time>
      </trkpt>
      <trkpt lat="43.42887" lon="6.05332">
        <ele>325.60000610352</ele>
        <time>2017-01-04T15:06:39Z</time>
      </trkpt>
      <trkpt lat="43.42881" lon="6.05361">
        <ele>324.39999389648</ele>
        <time>2017-01-04T15:06:44Z</time>
      </trkpt>
      <trkpt lat="43.4288" lon="6.05367">
        <ele>324</ele>
        <time>2017-01-04T15:06:45Z</time>
      </trkpt>
      <trkpt lat="43.42879" lon="6.05387">
        <ele>322.60000610352</ele>
        <time>2017-01-04T15:06:48Z</time>
      </trkpt>
      <trkpt lat="43.42879" lon="6.05411">
        <ele>321.60000610352</ele>
        <time>2017-01-04T15:06:51Z</time>
      </trkpt>
      <trkpt lat="43.42875" lon="6.05433">
        <ele>320.39999389648</ele>
        <time>2017-01-04T15:06:54Z</time>
      </trkpt>
      <trkpt lat="43.42869" lon="6.05483">
        <ele>319.39999389648</ele>
        <time>2017-01-04T15:07:01Z</time>
      </trkpt>
      <trkpt lat="43.42867" lon="6.0551">
        <ele>318.79998779297</ele>
        <time>2017-01-04T15:07:05Z</time>
      </trkpt>
      <trkpt lat="43.42864" lon="6.05528">
        <ele>319</ele>
        <time>2017-01-04T15:07:08Z</time>
      </trkpt>
      <trkpt lat="43.42856" lon="6.05574">
        <ele>319.20001220703</ele>
        <time>2017-01-04T15:07:15Z</time>
      </trkpt>
      <trkpt lat="43.42855" lon="6.05586">
        <ele>319.20001220703</ele>
        <time>2017-01-04T15:07:17Z</time>
      </trkpt>
      <trkpt lat="43.42852" lon="6.05612">
        <ele>319.79998779297</ele>
        <time>2017-01-04T15:07:21Z</time>
      </trkpt>
      <trkpt lat="43.42849" lon="6.0564">
        <ele>319.60000610352</ele>
        <time>2017-01-04T15:07:25Z</time>
      </trkpt>
      <trkpt lat="43.42848" lon="6.05654">
        <ele>319.60000610352</ele>
        <time>2017-01-04T15:07:27Z</time>
      </trkpt>
      <trkpt lat="43.42845" lon="6.05678">
        <ele>320</ele>
        <time>2017-01-04T15:07:31Z</time>
      </trkpt>
      <trkpt lat="43.42844" lon="6.05684">
        <ele>320.39999389648</ele>
        <time>2017-01-04T15:07:32Z</time>
      </trkpt>
      <trkpt lat="43.42842" lon="6.05701">
        <ele>321</ele>
        <time>2017-01-04T15:07:35Z</time>
      </trkpt>
      <trkpt lat="43.42841" lon="6.05717">
        <ele>320.79998779297</ele>
        <time>2017-01-04T15:07:38Z</time>
      </trkpt>
      <trkpt lat="43.4283" lon="6.05732">
        <ele>320.79998779297</ele>
        <time>2017-01-04T15:07:45Z</time>
      </trkpt>
      <trkpt lat="43.4283" lon="6.05732">
        <ele>320.60000610352</ele>
        <time>2017-01-04T15:07:52Z</time>
      </trkpt>
      <trkpt lat="43.4283" lon="6.05732">
        <ele>320.39999389648</ele>
        <time>2017-01-04T15:07:55Z</time>
      </trkpt>
      <trkpt lat="43.4283" lon="6.05732">
        <ele>320.39999389648</ele>
        <time>2017-01-04T15:07:59Z</time>
      </trkpt>
      <trkpt lat="43.4283" lon="6.05732">
        <ele>320.39999389648</ele>
        <time>2017-01-04T15:08:04Z</time>
      </trkpt>
      <trkpt lat="43.42829" lon="6.05732">
        <ele>320.39999389648</ele>
        <time>2017-01-04T15:08:15Z</time>
      </trkpt>
      <trkpt lat="43.42828" lon="6.05732">
        <ele>320.39999389648</ele>
        <time>2017-01-04T15:08:19Z</time>
      </trkpt>
      <trkpt lat="43.42826" lon="6.05733">
        <ele>320.20001220703</ele>
        <time>2017-01-04T15:08:21Z</time>
      </trkpt>
      <trkpt lat="43.42822" lon="6.05734">
        <ele>320.20001220703</ele>
        <time>2017-01-04T15:08:23Z</time>
      </trkpt>
      <trkpt lat="43.42817" lon="6.05735">
        <ele>320</ele>
        <time>2017-01-04T15:08:25Z</time>
      </trkpt>
      <trkpt lat="43.42812" lon="6.05736">
        <ele>320</ele>
        <time>2017-01-04T15:08:27Z</time>
      </trkpt>
      <trkpt lat="43.42795" lon="6.05741">
        <ele>320.39999389648</ele>
        <time>2017-01-04T15:08:35Z</time>
      </trkpt>
      <trkpt lat="43.42791" lon="6.05737">
        <ele>320</ele>
        <time>2017-01-04T15:08:37Z</time>
      </trkpt>
      <trkpt lat="43.42776" lon="6.0573">
        <ele>319.39999389648</ele>
        <time>2017-01-04T15:08:44Z</time>
      </trkpt>
      <trkpt lat="43.42773" lon="6.05729">
        <ele>319.39999389648</ele>
        <time>2017-01-04T15:08:45Z</time>
      </trkpt>
      <trkpt lat="43.42749" lon="6.0574">
        <ele>318.39999389648</ele>
        <time>2017-01-04T15:08:55Z</time>
      </trkpt>
      <trkpt lat="43.42743" lon="6.05739">
        <ele>318.39999389648</ele>
        <time>2017-01-04T15:08:57Z</time>
      </trkpt>
      <trkpt lat="43.42735" lon="6.05739">
        <ele>318</ele>
        <time>2017-01-04T15:09:00Z</time>
      </trkpt>
      <trkpt lat="43.42725" lon="6.05738">
        <ele>318.20001220703</ele>
        <time>2017-01-04T15:09:05Z</time>
      </trkpt>
      <trkpt lat="43.42698" lon="6.05736">
        <ele>317.39999389648</ele>
        <time>2017-01-04T15:09:14Z</time>
      </trkpt>
      <trkpt lat="43.42696" lon="6.05734">
        <ele>317.39999389648</ele>
        <time>2017-01-04T15:09:15Z</time>
      </trkpt>
      <trkpt lat="43.42695" lon="6.05731">
        <ele>317.39999389648</ele>
        <time>2017-01-04T15:09:16Z</time>
      </trkpt>
      <trkpt lat="43.42696" lon="6.05727">
        <ele>317.20001220703</ele>
        <time>2017-01-04T15:09:17Z</time>
      </trkpt>
      <trkpt lat="43.42699" lon="6.05714">
        <ele>316</ele>
        <time>2017-01-04T15:09:21Z</time>
      </trkpt>
      <trkpt lat="43.42701" lon="6.05705">
        <ele>315.20001220703</ele>
        <time>2017-01-04T15:09:25Z</time>
      </trkpt>
      <trkpt lat="43.42702" lon="6.057">
        <ele>315</ele>
        <time>2017-01-04T15:09:27Z</time>
      </trkpt>
      <trkpt lat="43.42705" lon="6.05687">
        <ele>313.79998779297</ele>
        <time>2017-01-04T15:09:31Z</time>
      </trkpt>
      <trkpt lat="43.42713" lon="6.05678">
        <ele>312.39999389648</ele>
        <time>2017-01-04T15:09:34Z</time>
      </trkpt>
      <trkpt lat="43.42715" lon="6.05676">
        <ele>311.60000610352</ele>
        <time>2017-01-04T15:09:35Z</time>
      </trkpt>
      <trkpt lat="43.42717" lon="6.05674">
        <ele>311</ele>
        <time>2017-01-04T15:09:36Z</time>
      </trkpt>
      <trkpt lat="43.42729" lon="6.05648">
        <ele>310</ele>
        <time>2017-01-04T15:09:44Z</time>
      </trkpt>
      <trkpt lat="43.42732" lon="6.05645">
        <ele>309.60000610352</ele>
        <time>2017-01-04T15:09:45Z</time>
      </trkpt>
      <trkpt lat="43.42739" lon="6.05636">
        <ele>309</ele>
        <time>2017-01-04T15:09:47Z</time>
      </trkpt>
      <trkpt lat="43.42746" lon="6.05627">
        <ele>308.20001220703</ele>
        <time>2017-01-04T15:09:49Z</time>
      </trkpt>
      <trkpt lat="43.4275" lon="6.05616">
        <ele>308</ele>
        <time>2017-01-04T15:09:51Z</time>
      </trkpt>
      <trkpt lat="43.42752" lon="6.05603">
        <ele>308</ele>
        <time>2017-01-04T15:09:53Z</time>
      </trkpt>
      <trkpt lat="43.42752" lon="6.05596">
        <ele>307.39999389648</ele>
        <time>2017-01-04T15:09:54Z</time>
      </trkpt>
      <trkpt lat="43.42747" lon="6.05577">
        <ele>304.39999389648</ele>
        <time>2017-01-04T15:09:57Z</time>
      </trkpt>
      <trkpt lat="43.42739" lon="6.05569">
        <ele>302.79998779297</ele>
        <time>2017-01-04T15:09:59Z</time>
      </trkpt>
      <trkpt lat="43.42736" lon="6.05563">
        <ele>302.39999389648</ele>
        <time>2017-01-04T15:10:00Z</time>
      </trkpt>
      <trkpt lat="43.42732" lon="6.05551">
        <ele>301.20001220703</ele>
        <time>2017-01-04T15:10:02Z</time>
      </trkpt>
      <trkpt lat="43.42728" lon="6.05538">
        <ele>300.20001220703</ele>
        <time>2017-01-04T15:10:04Z</time>
      </trkpt>
      <trkpt lat="43.42726" lon="6.05531">
        <ele>299.79998779297</ele>
        <time>2017-01-04T15:10:05Z</time>
      </trkpt>
      <trkpt lat="43.42725" lon="6.05524">
        <ele>299.60000610352</ele>
        <time>2017-01-04T15:10:06Z</time>
      </trkpt>
      <trkpt lat="43.42724" lon="6.0551">
        <ele>298.79998779297</ele>
        <time>2017-01-04T15:10:08Z</time>
      </trkpt>
      <trkpt lat="43.42723" lon="6.05495">
        <ele>297.60000610352</ele>
        <time>2017-01-04T15:10:10Z</time>
      </trkpt>
      <trkpt lat="43.42721" lon="6.05472">
        <ele>296.39999389648</ele>
        <time>2017-01-04T15:10:13Z</time>
      </trkpt>
      <trkpt lat="43.42724" lon="6.05458">
        <ele>295.60000610352</ele>
        <time>2017-01-04T15:10:15Z</time>
      </trkpt>
      <trkpt lat="43.4273" lon="6.05445">
        <ele>295.20001220703</ele>
        <time>2017-01-04T15:10:17Z</time>
      </trkpt>
      <trkpt lat="43.4273" lon="6.05432">
        <ele>294.79998779297</ele>
        <time>2017-01-04T15:10:19Z</time>
      </trkpt>
      <trkpt lat="43.42728" lon="6.05425">
        <ele>294.39999389648</ele>
        <time>2017-01-04T15:10:20Z</time>
      </trkpt>
      <trkpt lat="43.42725" lon="6.05412">
        <ele>293</ele>
        <time>2017-01-04T15:10:22Z</time>
      </trkpt>
      <trkpt lat="43.4272" lon="6.05396">
        <ele>292.39999389648</ele>
        <time>2017-01-04T15:10:25Z</time>
      </trkpt>
      <trkpt lat="43.42719" lon="6.05392">
        <ele>291.79998779297</ele>
        <time>2017-01-04T15:10:26Z</time>
      </trkpt>
      <trkpt lat="43.42716" lon="6.05373">
        <ele>291.79998779297</ele>
        <time>2017-01-04T15:10:30Z</time>
      </trkpt>
      <trkpt lat="43.42717" lon="6.05361">
        <ele>291</ele>
        <time>2017-01-04T15:10:32Z</time>
      </trkpt>
      <trkpt lat="43.42719" lon="6.05355">
        <ele>290.79998779297</ele>
        <time>2017-01-04T15:10:33Z</time>
      </trkpt>
      <trkpt lat="43.42717" lon="6.05345">
        <ele>289.79998779297</ele>
        <time>2017-01-04T15:10:35Z</time>
      </trkpt>
      <trkpt lat="43.42715" lon="6.05341">
        <ele>289.79998779297</ele>
        <time>2017-01-04T15:10:36Z</time>
      </trkpt>
      <trkpt lat="43.42713" lon="6.05338">
        <ele>289.60000610352</ele>
        <time>2017-01-04T15:10:37Z</time>
      </trkpt>
      <trkpt lat="43.42699" lon="6.0534">
        <ele>289</ele>
        <time>2017-01-04T15:10:41Z</time>
      </trkpt>
      <trkpt lat="43.42691" lon="6.05339">
        <ele>288.20001220703</ele>
        <time>2017-01-04T15:10:43Z</time>
      </trkpt>
      <trkpt lat="43.42687" lon="6.05338">
        <ele>287.79998779297</ele>
        <time>2017-01-04T15:10:44Z</time>
      </trkpt>
      <trkpt lat="43.42683" lon="6.05337">
        <ele>287.39999389648</ele>
        <time>2017-01-04T15:10:45Z</time>
      </trkpt>
      <trkpt lat="43.42679" lon="6.05335">
        <ele>286.79998779297</ele>
        <time>2017-01-04T15:10:46Z</time>
      </trkpt>
      <trkpt lat="43.42672" lon="6.05329">
        <ele>285.60000610352</ele>
        <time>2017-01-04T15:10:49Z</time>
      </trkpt>
      <trkpt lat="43.42659" lon="6.05308">
        <ele>284.60000610352</ele>
        <time>2017-01-04T15:10:54Z</time>
      </trkpt>
      <trkpt lat="43.42657" lon="6.05304">
        <ele>284.60000610352</ele>
        <time>2017-01-04T15:10:55Z</time>
      </trkpt>
      <trkpt lat="43.42652" lon="6.05294">
        <ele>284.20001220703</ele>
        <time>2017-01-04T15:10:57Z</time>
      </trkpt>
      <trkpt lat="43.42646" lon="6.05285">
        <ele>283.60000610352</ele>
        <time>2017-01-04T15:10:59Z</time>
      </trkpt>
      <trkpt lat="43.42638" lon="6.05276">
        <ele>283</ele>
        <time>2017-01-04T15:11:01Z</time>
      </trkpt>
      <trkpt lat="43.42634" lon="6.05268">
        <ele>282.39999389648</ele>
        <time>2017-01-04T15:11:03Z</time>
      </trkpt>
      <trkpt lat="43.42632" lon="6.05264">
        <ele>282</ele>
        <time>2017-01-04T15:11:05Z</time>
      </trkpt>
      <trkpt lat="43.42627" lon="6.05262">
        <ele>281.79998779297</ele>
        <time>2017-01-04T15:11:12Z</time>
      </trkpt>
      <trkpt lat="43.42624" lon="6.05259">
        <ele>281.60000610352</ele>
        <time>2017-01-04T15:11:14Z</time>
      </trkpt>
      <trkpt lat="43.42623" lon="6.05258">
        <ele>281.39999389648</ele>
        <time>2017-01-04T15:11:15Z</time>
      </trkpt>
      <trkpt lat="43.4262" lon="6.05256">
        <ele>281.20001220703</ele>
        <time>2017-01-04T15:11:17Z</time>
      </trkpt>
      <trkpt lat="43.42608" lon="6.05248">
        <ele>280</ele>
        <time>2017-01-04T15:11:22Z</time>
      </trkpt>
      <trkpt lat="43.42605" lon="6.05245">
        <ele>279.60000610352</ele>
        <time>2017-01-04T15:11:24Z</time>
      </trkpt>
      <trkpt lat="43.42605" lon="6.05244">
        <ele>279.60000610352</ele>
        <time>2017-01-04T15:11:25Z</time>
      </trkpt>
      <trkpt lat="43.42604" lon="6.05244">
        <ele>279.60000610352</ele>
        <time>2017-01-04T15:11:35Z</time>
      </trkpt>
      <trkpt lat="43.42604" lon="6.05244">
        <ele>279.60000610352</ele>
        <time>2017-01-04T15:11:41Z</time>
      </trkpt>
      <trkpt lat="43.42604" lon="6.05244">
        <ele>279.60000610352</ele>
        <time>2017-01-04T15:11:44Z</time>
      </trkpt>
      <trkpt lat="43.42604" lon="6.05245">
        <ele>279.60000610352</ele>
        <time>2017-01-04T15:11:55Z</time>
      </trkpt>
      <trkpt lat="43.42603" lon="6.05244">
        <ele>279.60000610352</ele>
        <time>2017-01-04T15:12:05Z</time>
      </trkpt>
      <trkpt lat="43.42603" lon="6.05245">
        <ele>279.60000610352</ele>
        <time>2017-01-04T15:12:09Z</time>
      </trkpt>
      <trkpt lat="43.42603" lon="6.05244">
        <ele>279.60000610352</ele>
        <time>2017-01-04T15:12:15Z</time>
      </trkpt>
      <trkpt lat="43.42603" lon="6.05243">
        <ele>279.60000610352</ele>
        <time>2017-01-04T15:12:25Z</time>
      </trkpt>
      <trkpt lat="43.426" lon="6.05239">
        <ele>279.60000610352</ele>
        <time>2017-01-04T15:12:45Z</time>
      </trkpt>
      <trkpt lat="43.426" lon="6.05239">
        <ele>279.79998779297</ele>
        <time>2017-01-04T15:12:51Z</time>
      </trkpt>
      <trkpt lat="43.426" lon="6.05239">
        <ele>279.79998779297</ele>
        <time>2017-01-04T15:12:55Z</time>
      </trkpt>
      <trkpt lat="43.42599" lon="6.0524">
        <ele>279.60000610352</ele>
        <time>2017-01-04T15:13:05Z</time>
      </trkpt>
      <trkpt lat="43.42596" lon="6.05239">
        <ele>279.60000610352</ele>
        <time>2017-01-04T15:13:07Z</time>
      </trkpt>
      <trkpt lat="43.42582" lon="6.05226">
        <ele>279.39999389648</ele>
        <time>2017-01-04T15:13:15Z</time>
      </trkpt>
      <trkpt lat="43.42572" lon="6.05221">
        <ele>278.79998779297</ele>
        <time>2017-01-04T15:13:18Z</time>
      </trkpt>
      <trkpt lat="43.42559" lon="6.05217">
        <ele>278.39999389648</ele>
        <time>2017-01-04T15:13:21Z</time>
      </trkpt>
      <trkpt lat="43.42543" lon="6.0522">
        <ele>278.39999389648</ele>
        <time>2017-01-04T15:13:25Z</time>
      </trkpt>
      <trkpt lat="43.42538" lon="6.05223">
        <ele>278.39999389648</ele>
        <time>2017-01-04T15:13:26Z</time>
      </trkpt>
      <trkpt lat="43.42527" lon="6.05226">
        <ele>277.39999389648</ele>
        <time>2017-01-04T15:13:28Z</time>
      </trkpt>
      <trkpt lat="43.42517" lon="6.05226">
        <ele>276.39999389648</ele>
        <time>2017-01-04T15:13:30Z</time>
      </trkpt>
      <trkpt lat="43.42503" lon="6.05226">
        <ele>275.20001220703</ele>
        <time>2017-01-04T15:13:33Z</time>
      </trkpt>
      <trkpt lat="43.42494" lon="6.05224">
        <ele>274.60000610352</ele>
        <time>2017-01-04T15:13:35Z</time>
      </trkpt>
      <trkpt lat="43.4248" lon="6.05218">
        <ele>274.60000610352</ele>
        <time>2017-01-04T15:13:38Z</time>
      </trkpt>
      <trkpt lat="43.42476" lon="6.05217">
        <ele>275</ele>
        <time>2017-01-04T15:13:39Z</time>
      </trkpt>
      <trkpt lat="43.42464" lon="6.05214">
        <ele>275.39999389648</ele>
        <time>2017-01-04T15:13:42Z</time>
      </trkpt>
      <trkpt lat="43.42457" lon="6.05213">
        <ele>275.60000610352</ele>
        <time>2017-01-04T15:13:44Z</time>
      </trkpt>
      <trkpt lat="43.42453" lon="6.05215">
        <ele>275.39999389648</ele>
        <time>2017-01-04T15:13:45Z</time>
      </trkpt>
      <trkpt lat="43.42436" lon="6.05222">
        <ele>273.60000610352</ele>
        <time>2017-01-04T15:13:48Z</time>
      </trkpt>
      <trkpt lat="43.42425" lon="6.05224">
        <ele>272</ele>
        <time>2017-01-04T15:13:50Z</time>
      </trkpt>
      <trkpt lat="43.42402" lon="6.05223">
        <ele>271.39999389648</ele>
        <time>2017-01-04T15:13:55Z</time>
      </trkpt>
      <trkpt lat="43.42379" lon="6.05228">
        <ele>271</ele>
        <time>2017-01-04T15:14:01Z</time>
      </trkpt>
      <trkpt lat="43.42368" lon="6.05228">
        <ele>270.39999389648</ele>
        <time>2017-01-04T15:14:04Z</time>
      </trkpt>
      <trkpt lat="43.42363" lon="6.05229">
        <ele>270</ele>
        <time>2017-01-04T15:14:05Z</time>
      </trkpt>
      <trkpt lat="43.42358" lon="6.0523">
        <ele>269.60000610352</ele>
        <time>2017-01-04T15:14:06Z</time>
      </trkpt>
      <trkpt lat="43.42344" lon="6.05233">
        <ele>268.79998779297</ele>
        <time>2017-01-04T15:14:09Z</time>
      </trkpt>
      <trkpt lat="43.42338" lon="6.05232">
        <ele>268.39999389648</ele>
        <time>2017-01-04T15:14:10Z</time>
      </trkpt>
      <trkpt lat="43.42321" lon="6.05227">
        <ele>267.79998779297</ele>
        <time>2017-01-04T15:14:13Z</time>
      </trkpt>
      <trkpt lat="43.42307" lon="6.05224">
        <ele>267.20001220703</ele>
        <time>2017-01-04T15:14:15Z</time>
      </trkpt>
      <trkpt lat="43.42292" lon="6.05219">
        <ele>265.39999389648</ele>
        <time>2017-01-04T15:14:17Z</time>
      </trkpt>
      <trkpt lat="43.42284" lon="6.05216">
        <ele>264.39999389648</ele>
        <time>2017-01-04T15:14:18Z</time>
      </trkpt>
      <trkpt lat="43.4227" lon="6.05213">
        <ele>263</ele>
        <time>2017-01-04T15:14:20Z</time>
      </trkpt>
      <trkpt lat="43.42242" lon="6.05213">
        <ele>262.20001220703</ele>
        <time>2017-01-04T15:14:24Z</time>
      </trkpt>
      <trkpt lat="43.42236" lon="6.05211">
        <ele>262</ele>
        <time>2017-01-04T15:14:25Z</time>
      </trkpt>
      <trkpt lat="43.4223" lon="6.05208">
        <ele>261.60000610352</ele>
        <time>2017-01-04T15:14:26Z</time>
      </trkpt>
      <trkpt lat="43.42221" lon="6.05199">
        <ele>260.79998779297</ele>
        <time>2017-01-04T15:14:28Z</time>
      </trkpt>
      <trkpt lat="43.42216" lon="6.05194">
        <ele>260.60000610352</ele>
        <time>2017-01-04T15:14:29Z</time>
      </trkpt>
      <trkpt lat="43.42206" lon="6.05187">
        <ele>259.79998779297</ele>
        <time>2017-01-04T15:14:31Z</time>
      </trkpt>
      <trkpt lat="43.42184" lon="6.05172">
        <ele>258.20001220703</ele>
        <time>2017-01-04T15:14:35Z</time>
      </trkpt>
      <trkpt lat="43.42178" lon="6.05168">
        <ele>257.79998779297</ele>
        <time>2017-01-04T15:14:36Z</time>
      </trkpt>
      <trkpt lat="43.42167" lon="6.05162">
        <ele>257</ele>
        <time>2017-01-04T15:14:38Z</time>
      </trkpt>
      <trkpt lat="43.42148" lon="6.05147">
        <ele>256.39999389648</ele>
        <time>2017-01-04T15:14:42Z</time>
      </trkpt>
      <trkpt lat="43.42137" lon="6.05132">
        <ele>256.79998779297</ele>
        <time>2017-01-04T15:14:45Z</time>
      </trkpt>
      <trkpt lat="43.42119" lon="6.05114">
        <ele>256</ele>
        <time>2017-01-04T15:14:52Z</time>
      </trkpt>
      <trkpt lat="43.42118" lon="6.05114">
        <ele>256</ele>
        <time>2017-01-04T15:14:55Z</time>
      </trkpt>
      <trkpt lat="43.42118" lon="6.05114">
        <ele>256.20001220703</ele>
        <time>2017-01-04T15:15:01Z</time>
      </trkpt>
      <trkpt lat="43.42118" lon="6.05114">
        <ele>256.39999389648</ele>
        <time>2017-01-04T15:15:05Z</time>
      </trkpt>
      <trkpt lat="43.42118" lon="6.05115">
        <ele>256.20001220703</ele>
        <time>2017-01-04T15:15:11Z</time>
      </trkpt>
      <trkpt lat="43.42118" lon="6.05115">
        <ele>256.20001220703</ele>
        <time>2017-01-04T15:15:15Z</time>
      </trkpt>
      <trkpt lat="43.42118" lon="6.05114">
        <ele>256.20001220703</ele>
        <time>2017-01-04T15:15:18Z</time>
      </trkpt>
      <trkpt lat="43.42113" lon="6.05114">
        <ele>256.20001220703</ele>
        <time>2017-01-04T15:15:21Z</time>
      </trkpt>
      <trkpt lat="43.42106" lon="6.05114">
        <ele>256</ele>
        <time>2017-01-04T15:15:23Z</time>
      </trkpt>
      <trkpt lat="43.42097" lon="6.05113">
        <ele>255.60000610352</ele>
        <time>2017-01-04T15:15:25Z</time>
      </trkpt>
      <trkpt lat="43.42086" lon="6.05112">
        <ele>255</ele>
        <time>2017-01-04T15:15:27Z</time>
      </trkpt>
      <trkpt lat="43.42068" lon="6.0511">
        <ele>253.80000305176</ele>
        <time>2017-01-04T15:15:30Z</time>
      </trkpt>
      <trkpt lat="43.42049" lon="6.05112">
        <ele>252.60000610352</ele>
        <time>2017-01-04T15:15:33Z</time>
      </trkpt>
      <trkpt lat="43.42037" lon="6.05118">
        <ele>251.80000305176</ele>
        <time>2017-01-04T15:15:35Z</time>
      </trkpt>
      <trkpt lat="43.42022" lon="6.05122">
        <ele>251.39999389648</ele>
        <time>2017-01-04T15:15:37Z</time>
      </trkpt>
      <trkpt lat="43.42001" lon="6.05127">
        <ele>250.80000305176</ele>
        <time>2017-01-04T15:15:40Z</time>
      </trkpt>
      <trkpt lat="43.41964" lon="6.05134">
        <ele>249.80000305176</ele>
        <time>2017-01-04T15:15:45Z</time>
      </trkpt>
      <trkpt lat="43.41957" lon="6.05137">
        <ele>249.39999389648</ele>
        <time>2017-01-04T15:15:46Z</time>
      </trkpt>
      <trkpt lat="43.41936" lon="6.05148">
        <ele>248</ele>
        <time>2017-01-04T15:15:49Z</time>
      </trkpt>
      <trkpt lat="43.41921" lon="6.05155">
        <ele>247</ele>
        <time>2017-01-04T15:15:51Z</time>
      </trkpt>
      <trkpt lat="43.41899" lon="6.05164">
        <ele>245.80000305176</ele>
        <time>2017-01-04T15:15:54Z</time>
      </trkpt>
      <trkpt lat="43.41893" lon="6.0517">
        <ele>245.39999389648</ele>
        <time>2017-01-04T15:15:55Z</time>
      </trkpt>
      <trkpt lat="43.41874" lon="6.05168">
        <ele>244.60000610352</ele>
        <time>2017-01-04T15:15:57Z</time>
      </trkpt>
      <trkpt lat="43.4185" lon="6.0518">
        <ele>243.39999389648</ele>
        <time>2017-01-04T15:16:00Z</time>
      </trkpt>
      <trkpt lat="43.41813" lon="6.05181">
        <ele>240.39999389648</ele>
        <time>2017-01-04T15:16:04Z</time>
      </trkpt>
      <trkpt lat="43.41804" lon="6.0518">
        <ele>240</ele>
        <time>2017-01-04T15:16:05Z</time>
      </trkpt>
      <trkpt lat="43.41786" lon="6.05178">
        <ele>239.19999694824</ele>
        <time>2017-01-04T15:16:07Z</time>
      </trkpt>
      <trkpt lat="43.41762" lon="6.05175">
        <ele>238</ele>
        <time>2017-01-04T15:16:10Z</time>
      </trkpt>
      <trkpt lat="43.41748" lon="6.05173">
        <ele>237</ele>
        <time>2017-01-04T15:16:12Z</time>
      </trkpt>
      <trkpt lat="43.41742" lon="6.0517">
        <ele>236.39999389648</ele>
        <time>2017-01-04T15:16:13Z</time>
      </trkpt>
      <trkpt lat="43.41734" lon="6.05161">
        <ele>235.80000305176</ele>
        <time>2017-01-04T15:16:15Z</time>
      </trkpt>
      <trkpt lat="43.41735" lon="6.05113">
        <ele>235.80000305176</ele>
        <time>2017-01-04T15:16:22Z</time>
      </trkpt>
      <trkpt lat="43.41729" lon="6.05104">
        <ele>235.60000610352</ele>
        <time>2017-01-04T15:16:24Z</time>
      </trkpt>
      <trkpt lat="43.41724" lon="6.05105">
        <ele>235.39999389648</ele>
        <time>2017-01-04T15:16:25Z</time>
      </trkpt>
      <trkpt lat="43.41718" lon="6.05108">
        <ele>235</ele>
        <time>2017-01-04T15:16:26Z</time>
      </trkpt>
      <trkpt lat="43.41713" lon="6.05111">
        <ele>234.60000610352</ele>
        <time>2017-01-04T15:16:27Z</time>
      </trkpt>
      <trkpt lat="43.41701" lon="6.0512">
        <ele>233.39999389648</ele>
        <time>2017-01-04T15:16:29Z</time>
      </trkpt>
      <trkpt lat="43.41689" lon="6.0513">
        <ele>232</ele>
        <time>2017-01-04T15:16:31Z</time>
      </trkpt>
      <trkpt lat="43.41667" lon="6.05158">
        <ele>231</ele>
        <time>2017-01-04T15:16:35Z</time>
      </trkpt>
      <trkpt lat="43.4166" lon="6.05162">
        <ele>230.80000305176</ele>
        <time>2017-01-04T15:16:36Z</time>
      </trkpt>
      <trkpt lat="43.41652" lon="6.05164">
        <ele>230.60000610352</ele>
        <time>2017-01-04T15:16:37Z</time>
      </trkpt>
      <trkpt lat="43.41634" lon="6.05164">
        <ele>229.60000610352</ele>
        <time>2017-01-04T15:16:39Z</time>
      </trkpt>
      <trkpt lat="43.41616" lon="6.05162">
        <ele>228</ele>
        <time>2017-01-04T15:16:41Z</time>
      </trkpt>
      <trkpt lat="43.41598" lon="6.0516">
        <ele>226</ele>
        <time>2017-01-04T15:16:43Z</time>
      </trkpt>
      <trkpt lat="43.41579" lon="6.05157">
        <ele>224</ele>
        <time>2017-01-04T15:16:45Z</time>
      </trkpt>
      <trkpt lat="43.4156" lon="6.05154">
        <ele>222.19999694824</ele>
        <time>2017-01-04T15:16:47Z</time>
      </trkpt>
      <trkpt lat="43.41542" lon="6.05152">
        <ele>221.19999694824</ele>
        <time>2017-01-04T15:16:49Z</time>
      </trkpt>
      <trkpt lat="43.41517" lon="6.05154">
        <ele>220</ele>
        <time>2017-01-04T15:16:52Z</time>
      </trkpt>
      <trkpt lat="43.415" lon="6.05158">
        <ele>219.60000610352</ele>
        <time>2017-01-04T15:16:55Z</time>
      </trkpt>
      <trkpt lat="43.41493" lon="6.05164">
        <ele>220</ele>
        <time>2017-01-04T15:16:59Z</time>
      </trkpt>
      <trkpt lat="43.41493" lon="6.05168">
        <ele>220.39999389648</ele>
        <time>2017-01-04T15:17:05Z</time>
      </trkpt>
      <trkpt lat="43.41493" lon="6.05172">
        <ele>220.39999389648</ele>
        <time>2017-01-04T15:17:10Z</time>
      </trkpt>
      <trkpt lat="43.41493" lon="6.05177">
        <ele>220.39999389648</ele>
        <time>2017-01-04T15:17:12Z</time>
      </trkpt>
      <trkpt lat="43.41494" lon="6.05181">
        <ele>220.39999389648</ele>
        <time>2017-01-04T15:17:13Z</time>
      </trkpt>
      <trkpt lat="43.41497" lon="6.05186">
        <ele>220.39999389648</ele>
        <time>2017-01-04T15:17:15Z</time>
      </trkpt>
      <trkpt lat="43.41511" lon="6.05217">
        <ele>221</ele>
        <time>2017-01-04T15:17:23Z</time>
      </trkpt>
      <trkpt lat="43.41515" lon="6.05226">
        <ele>221.19999694824</ele>
        <time>2017-01-04T15:17:25Z</time>
      </trkpt>
      <trkpt lat="43.41527" lon="6.05252">
        <ele>221.39999389648</ele>
        <time>2017-01-04T15:17:31Z</time>
      </trkpt>
      <trkpt lat="43.41534" lon="6.0527">
        <ele>221.60000610352</ele>
        <time>2017-01-04T15:17:35Z</time>
      </trkpt>
      <trkpt lat="43.41539" lon="6.05284">
        <ele>222</ele>
        <time>2017-01-04T15:17:38Z</time>
      </trkpt>
      <trkpt lat="43.41542" lon="6.05294">
        <ele>222.19999694824</ele>
        <time>2017-01-04T15:17:40Z</time>
      </trkpt>
      <trkpt lat="43.41549" lon="6.0532">
        <ele>223</ele>
        <time>2017-01-04T15:17:45Z</time>
      </trkpt>
      <trkpt lat="43.41568" lon="6.05368">
        <ele>223.80000305176</ele>
        <time>2017-01-04T15:17:55Z</time>
      </trkpt>
      <trkpt lat="43.41585" lon="6.0542">
        <ele>224</ele>
        <time>2017-01-04T15:18:05Z</time>
      </trkpt>
      <trkpt lat="43.41592" lon="6.05442">
        <ele>224.19999694824</ele>
        <time>2017-01-04T15:18:09Z</time>
      </trkpt>
      <trkpt lat="43.41618" lon="6.05532">
        <ele>224.19999694824</ele>
        <time>2017-01-04T15:18:25Z</time>
      </trkpt>
      <trkpt lat="43.4163" lon="6.05591">
        <ele>224.80000305176</ele>
        <time>2017-01-04T15:18:35Z</time>
      </trkpt>
      <trkpt lat="43.41638" lon="6.05646">
        <ele>225.39999389648</ele>
        <time>2017-01-04T15:18:44Z</time>
      </trkpt>
      <trkpt lat="43.41644" lon="6.05712">
        <ele>226</ele>
        <time>2017-01-04T15:18:55Z</time>
      </trkpt>
      <trkpt lat="43.41644" lon="6.05724">
        <ele>226.39999389648</ele>
        <time>2017-01-04T15:18:57Z</time>
      </trkpt>
      <trkpt lat="43.41645" lon="6.05775">
        <ele>226.80000305176</ele>
        <time>2017-01-04T15:19:05Z</time>
      </trkpt>
      <trkpt lat="43.41643" lon="6.05828">
        <ele>226.39999389648</ele>
        <time>2017-01-04T15:19:13Z</time>
      </trkpt>
      <trkpt lat="43.41641" lon="6.05856">
        <ele>226.19999694824</ele>
        <time>2017-01-04T15:19:17Z</time>
      </trkpt>
      <trkpt lat="43.41638" lon="6.05891">
        <ele>225.80000305176</ele>
        <time>2017-01-04T15:19:22Z</time>
      </trkpt>
      <trkpt lat="43.41636" lon="6.05914">
        <ele>225.39999389648</ele>
        <time>2017-01-04T15:19:25Z</time>
      </trkpt>
      <trkpt lat="43.41635" lon="6.05921">
        <ele>225.39999389648</ele>
        <time>2017-01-04T15:19:26Z</time>
      </trkpt>
      <trkpt lat="43.4163" lon="6.05953">
        <ele>225</ele>
        <time>2017-01-04T15:19:30Z</time>
      </trkpt>
      <trkpt lat="43.41628" lon="6.05969">
        <ele>224.60000610352</ele>
        <time>2017-01-04T15:19:32Z</time>
      </trkpt>
      <trkpt lat="43.41626" lon="6.05985">
        <ele>224.19999694824</ele>
        <time>2017-01-04T15:19:34Z</time>
      </trkpt>
      <trkpt lat="43.41624" lon="6.05993">
        <ele>224</ele>
        <time>2017-01-04T15:19:35Z</time>
      </trkpt>
      <trkpt lat="43.41619" lon="6.0603">
        <ele>223.19999694824</ele>
        <time>2017-01-04T15:19:39Z</time>
      </trkpt>
      <trkpt lat="43.41618" lon="6.0604">
        <ele>223</ele>
        <time>2017-01-04T15:19:40Z</time>
      </trkpt>
      <trkpt lat="43.41615" lon="6.06068">
        <ele>221.60000610352</ele>
        <time>2017-01-04T15:19:43Z</time>
      </trkpt>
      <trkpt lat="43.41615" lon="6.06086">
        <ele>221</ele>
        <time>2017-01-04T15:19:45Z</time>
      </trkpt>
      <trkpt lat="43.41616" lon="6.06095">
        <ele>220.80000305176</ele>
        <time>2017-01-04T15:19:46Z</time>
      </trkpt>
      <trkpt lat="43.41618" lon="6.06102">
        <ele>220.39999389648</ele>
        <time>2017-01-04T15:19:47Z</time>
      </trkpt>
      <trkpt lat="43.4162" lon="6.0611">
        <ele>220.19999694824</ele>
        <time>2017-01-04T15:19:48Z</time>
      </trkpt>
      <trkpt lat="43.41626" lon="6.06123">
        <ele>220</ele>
        <time>2017-01-04T15:19:50Z</time>
      </trkpt>
      <trkpt lat="43.41626" lon="6.06135">
        <ele>220.19999694824</ele>
        <time>2017-01-04T15:19:52Z</time>
      </trkpt>
      <trkpt lat="43.41616" lon="6.06149">
        <ele>220.60000610352</ele>
        <time>2017-01-04T15:19:55Z</time>
      </trkpt>
      <trkpt lat="43.41605" lon="6.06164">
        <ele>220.60000610352</ele>
        <time>2017-01-04T15:19:58Z</time>
      </trkpt>
      <trkpt lat="43.416" lon="6.06176">
        <ele>220.60000610352</ele>
        <time>2017-01-04T15:20:00Z</time>
      </trkpt>
      <trkpt lat="43.41598" lon="6.06189">
        <ele>220.80000305176</ele>
        <time>2017-01-04T15:20:02Z</time>
      </trkpt>
      <trkpt lat="43.41601" lon="6.062">
        <ele>221.19999694824</ele>
        <time>2017-01-04T15:20:04Z</time>
      </trkpt>
      <trkpt lat="43.41603" lon="6.06205">
        <ele>221.39999389648</ele>
        <time>2017-01-04T15:20:05Z</time>
      </trkpt>
      <trkpt lat="43.41607" lon="6.06214">
        <ele>222.19999694824</ele>
        <time>2017-01-04T15:20:07Z</time>
      </trkpt>
      <trkpt lat="43.41604" lon="6.06236">
        <ele>222.80000305176</ele>
        <time>2017-01-04T15:20:15Z</time>
      </trkpt>
      <trkpt lat="43.41601" lon="6.06247">
        <ele>223.19999694824</ele>
        <time>2017-01-04T15:20:25Z</time>
      </trkpt>
      <trkpt lat="43.41599" lon="6.06255">
        <ele>223.19999694824</ele>
        <time>2017-01-04T15:20:28Z</time>
      </trkpt>
      <trkpt lat="43.41585" lon="6.06271">
        <ele>222.39999389648</ele>
        <time>2017-01-04T15:20:33Z</time>
      </trkpt>
      <trkpt lat="43.41583" lon="6.06283">
        <ele>222.19999694824</ele>
        <time>2017-01-04T15:20:35Z</time>
      </trkpt>
      <trkpt lat="43.41584" lon="6.06297">
        <ele>221.80000305176</ele>
        <time>2017-01-04T15:20:37Z</time>
      </trkpt>
      <trkpt lat="43.41584" lon="6.06304">
        <ele>221.60000610352</ele>
        <time>2017-01-04T15:20:38Z</time>
      </trkpt>
      <trkpt lat="43.41579" lon="6.06317">
        <ele>221.19999694824</ele>
        <time>2017-01-04T15:20:40Z</time>
      </trkpt>
      <trkpt lat="43.41572" lon="6.06329">
        <ele>220.60000610352</ele>
        <time>2017-01-04T15:20:42Z</time>
      </trkpt>
      <trkpt lat="43.41563" lon="6.06344">
        <ele>219.80000305176</ele>
        <time>2017-01-04T15:20:44Z</time>
      </trkpt>
      <trkpt lat="43.41559" lon="6.06352">
        <ele>219.39999389648</ele>
        <time>2017-01-04T15:20:45Z</time>
      </trkpt>
      <trkpt lat="43.41556" lon="6.06362">
        <ele>218.80000305176</ele>
        <time>2017-01-04T15:20:46Z</time>
      </trkpt>
      <trkpt lat="43.41554" lon="6.06372">
        <ele>218.19999694824</ele>
        <time>2017-01-04T15:20:47Z</time>
      </trkpt>
      <trkpt lat="43.41545" lon="6.06418">
        <ele>217</ele>
        <time>2017-01-04T15:20:51Z</time>
      </trkpt>
      <trkpt lat="43.41543" lon="6.06438">
        <ele>215.60000610352</ele>
        <time>2017-01-04T15:20:53Z</time>
      </trkpt>
      <trkpt lat="43.41542" lon="6.06446">
        <ele>214.80000305176</ele>
        <time>2017-01-04T15:20:54Z</time>
      </trkpt>
      <trkpt lat="43.41543" lon="6.06452">
        <ele>214.39999389648</ele>
        <time>2017-01-04T15:20:55Z</time>
      </trkpt>
      <trkpt lat="43.41542" lon="6.0646">
        <ele>213.80000305176</ele>
        <time>2017-01-04T15:20:57Z</time>
      </trkpt>
      <trkpt lat="43.41532" lon="6.06475">
        <ele>213.19999694824</ele>
        <time>2017-01-04T15:21:03Z</time>
      </trkpt>
      <trkpt lat="43.41529" lon="6.06486">
        <ele>212</ele>
        <time>2017-01-04T15:21:05Z</time>
      </trkpt>
      <trkpt lat="43.41524" lon="6.06504">
        <ele>211.80000305176</ele>
        <time>2017-01-04T15:21:08Z</time>
      </trkpt>
      <trkpt lat="43.41523" lon="6.06509">
        <ele>212</ele>
        <time>2017-01-04T15:21:09Z</time>
      </trkpt>
      <trkpt lat="43.4152" lon="6.06527">
        <ele>212.39999389648</ele>
        <time>2017-01-04T15:21:12Z</time>
      </trkpt>
      <trkpt lat="43.41518" lon="6.06547">
        <ele>212.80000305176</ele>
        <time>2017-01-04T15:21:15Z</time>
      </trkpt>
      <trkpt lat="43.41508" lon="6.06605">
        <ele>212</ele>
        <time>2017-01-04T15:21:23Z</time>
      </trkpt>
      <trkpt lat="43.41505" lon="6.06622">
        <ele>212</ele>
        <time>2017-01-04T15:21:25Z</time>
      </trkpt>
      <trkpt lat="43.41496" lon="6.06682">
        <ele>211.80000305176</ele>
        <time>2017-01-04T15:21:32Z</time>
      </trkpt>
      <trkpt lat="43.41495" lon="6.0671">
        <ele>211.39999389648</ele>
        <time>2017-01-04T15:21:35Z</time>
      </trkpt>
      <trkpt lat="43.41494" lon="6.06729">
        <ele>211</ele>
        <time>2017-01-04T15:21:37Z</time>
      </trkpt>
      <trkpt lat="43.41494" lon="6.06738">
        <ele>210.80000305176</ele>
        <time>2017-01-04T15:21:38Z</time>
      </trkpt>
      <trkpt lat="43.41489" lon="6.06779">
        <ele>209.60000610352</ele>
        <time>2017-01-04T15:21:42Z</time>
      </trkpt>
      <trkpt lat="43.41483" lon="6.0681">
        <ele>209.19999694824</ele>
        <time>2017-01-04T15:21:45Z</time>
      </trkpt>
      <trkpt lat="43.4148" lon="6.0682">
        <ele>209</ele>
        <time>2017-01-04T15:21:46Z</time>
      </trkpt>
      <trkpt lat="43.41477" lon="6.06828">
        <ele>208.60000610352</ele>
        <time>2017-01-04T15:21:47Z</time>
      </trkpt>
      <trkpt lat="43.41475" lon="6.06835">
        <ele>208.19999694824</ele>
        <time>2017-01-04T15:21:48Z</time>
      </trkpt>
      <trkpt lat="43.41471" lon="6.06858">
        <ele>208.60000610352</ele>
        <time>2017-01-04T15:21:51Z</time>
      </trkpt>
      <trkpt lat="43.41473" lon="6.06872">
        <ele>209.39999389648</ele>
        <time>2017-01-04T15:21:55Z</time>
      </trkpt>
      <trkpt lat="43.41473" lon="6.06887">
        <ele>209.19999694824</ele>
        <time>2017-01-04T15:22:05Z</time>
      </trkpt>
      <trkpt lat="43.41473" lon="6.0689">
        <ele>209.19999694824</ele>
        <time>2017-01-04T15:22:06Z</time>
      </trkpt>
      <trkpt lat="43.41472" lon="6.06911">
        <ele>209.39999389648</ele>
        <time>2017-01-04T15:22:12Z</time>
      </trkpt>
      <trkpt lat="43.41467" lon="6.06922">
        <ele>209.39999389648</ele>
        <time>2017-01-04T15:22:15Z</time>
      </trkpt>
      <trkpt lat="43.41467" lon="6.06929">
        <ele>209.19999694824</ele>
        <time>2017-01-04T15:22:17Z</time>
      </trkpt>
      <trkpt lat="43.41474" lon="6.06941">
        <ele>209</ele>
        <time>2017-01-04T15:22:21Z</time>
      </trkpt>
      <trkpt lat="43.41483" lon="6.06953">
        <ele>209</ele>
        <time>2017-01-04T15:22:25Z</time>
      </trkpt>
      <trkpt lat="43.41488" lon="6.06958">
        <ele>208.60000610352</ele>
        <time>2017-01-04T15:22:27Z</time>
      </trkpt>
      <trkpt lat="43.41493" lon="6.06963">
        <ele>208.39999389648</ele>
        <time>2017-01-04T15:22:29Z</time>
      </trkpt>
      <trkpt lat="43.41501" lon="6.06969">
        <ele>208.19999694824</ele>
        <time>2017-01-04T15:22:32Z</time>
      </trkpt>
      <trkpt lat="43.4151" lon="6.06972">
        <ele>208.60000610352</ele>
        <time>2017-01-04T15:22:35Z</time>
      </trkpt>
      <trkpt lat="43.41545" lon="6.06974">
        <ele>208.60000610352</ele>
        <time>2017-01-04T15:22:45Z</time>
      </trkpt>
      <trkpt lat="43.41575" lon="6.06987">
        <ele>209.39999389648</ele>
        <time>2017-01-04T15:22:55Z</time>
      </trkpt>
      <trkpt lat="43.41577" lon="6.07">
        <ele>209.60000610352</ele>
        <time>2017-01-04T15:22:59Z</time>
      </trkpt>
      <trkpt lat="43.41579" lon="6.0702">
        <ele>209.60000610352</ele>
        <time>2017-01-04T15:23:05Z</time>
      </trkpt>
      <trkpt lat="43.41581" lon="6.07028">
        <ele>209.60000610352</ele>
        <time>2017-01-04T15:23:10Z</time>
      </trkpt>
      <trkpt lat="43.41582" lon="6.07035">
        <ele>209.60000610352</ele>
        <time>2017-01-04T15:23:15Z</time>
      </trkpt>
      <trkpt lat="43.41581" lon="6.07036">
        <ele>209.80000305176</ele>
        <time>2017-01-04T15:23:25Z</time>
      </trkpt>
      <trkpt lat="43.41581" lon="6.07036">
        <ele>210.19999694824</ele>
        <time>2017-01-04T15:23:35Z</time>
      </trkpt>
      <trkpt lat="43.41581" lon="6.07036">
        <ele>209.80000305176</ele>
        <time>2017-01-04T15:23:42Z</time>
      </trkpt>
      <trkpt lat="43.41582" lon="6.07036">
        <ele>209.60000610352</ele>
        <time>2017-01-04T15:24:20Z</time>
      </trkpt>
      <trkpt lat="43.41582" lon="6.07036">
        <ele>209.60000610352</ele>
        <time>2017-01-04T15:24:21Z</time>
      </trkpt>
    </trkseg>
  </trk>
</gpx>